[[{"header":{"parameterUnit":"m.s-1","parameterCategory":1,"la1":30.6,"la2":29.2853,"lo1":-89.7004,"lo2":-87.6739,"dy":0.0162,"dx":0.0183,"nx":112,"ny":82,"refTime":"2024-03-13T18:00:00:Z","depth":0,"parameterNumber":2,"parameterNumberName":"U-component_of_WINDS"},"data":[0.0,0.0,0.0,0.0,0.0,0.0,0.0,0.0,0.0,0.0,0.0,0.0,0.0,0.0,0.0,0.0,0.0,0.0,0.0,0.0,0.0,0.0,0.0,0.0,0.0,0.0,0.0,0.0,0.0,0.0,0.0,0.0,0.0,0.0,0.0,0.0,0.0,0.0,0.0,0.0,0.0,0.0,0.0,0.0,0.0,0.0,0.0,0.0,0.0,0.0,0.0,0.0,0.0,0.0,0.0,0.0,0.0,0.0,0.0,0.0,0.0,0.0,0.0,0.0,0.0,0.0,0.0,0.0,0.0,0.0,0.0,0.0,0.0,0.0,0.0,0.0,0.0,0.0,0.0,0.0,0.0,0.0,0.0,0.0,0.0,0.0,0.0,0.0,0.0,0.0,0.0,1.1913,1.5462,1.8037,1.8646,1.8403,1.6511,1.251,0.0,0.0,0.0,0.0,0.0,0.0,0.0,0.0,0.0,0.0,0.0,0.0,0.0,0.0,0.0,0.0,0.0,0.0,0.0,0.0,0.0,0.0,0.0,0.0,0.0,0.0,0.0,0.0,0.0,0.0,0.0,0.0,0.0,0.0,0.0,0.0,0.0,0.0,0.0,0.0,0.0,0.0,0.0,0.0,0.0,0.0,0.0,0.0,0.0,0.0,0.0,0.0,0.0,0.0,0.0,0.0,0.0,0.0,0.0,0.0,0.0,0.0,0.0,0.0,0.0,0.0,0.0,0.0,0.0,0.0,0.0,0.0,0.0,0.0,0.0,0.0,0.0,0.0,0.0,0.0,0.0,0.0,0.0,0.0,0.0,0.0,0.0,0.0,0.0,0.0,0.0,0.0,0.0,0.0,0.0,0.0,0.0,0.0,0.0,0.0,0.0,0.0,0.0,0.0,1.2634,1.5535,1.7074,1.7842,1.7718,1.7468,1.5812,1.2352,0.0,0.0,0.0,0.0,0.0,0.0,0.0,0.0,0.0,0.0,0.0,0.0,0.0,0.0,0.0,0.0,0.0,0.0,0.0,0.0,0.0,0.0,0.0,0.0,0.0,0.0,0.0,0.0,0.0,0.0,0.0,0.0,0.0,0.0,0.0,0.0,0.0,0.0,0.0,0.0,0.0,0.0,0.0,0.0,0.0,0.0,0.0,0.0,0.0,0.0,0.0,0.0,0.0,0.0,0.0,0.0,0.0,0.0,0.0,0.0,0.0,0.0,0.0,0.0,0.0,0.0,0.0,0.0,0.0,0.0,0.0,0.0,0.0,0.0,0.0,0.0,0.0,0.0,0.0,0.0,0.0,0.0,0.0,0.0,0.0,0.0,0.0,0.0,0.0,0.0,0.0,0.0,0.0,0.0,0.0,0.0,0.0,0.0,0.0,0.0,0.0,0.0,0.0,1.1118,1.2956,1.6502,1.7273,1.7731,1.8114,1.7501,1.5841,1.2888,1.1745,0.0,0.0,0.0,0.0,0.0,0.0,0.0,0.0,0.0,0.0,0.0,0.0,0.0,0.0,0.0,0.0,0.0,0.0,0.0,0.0,0.0,0.0,0.0,0.0,0.0,0.0,0.0,0.0,0.0,0.0,0.0,0.0,0.0,0.0,0.0,0.0,0.0,0.0,0.0,0.0,0.0,0.0,0.0,0.0,0.0,0.0,0.0,0.0,0.0,0.0,0.0,0.0,0.0,0.0,0.0,0.0,0.0,0.0,0.0,0.0,0.0,0.0,0.0,0.0,0.0,0.0,0.0,0.0,0.0,0.0,0.0,0.0,0.0,0.0,0.0,0.0,0.0,0.0,0.0,0.0,0.0,0.0,0.0,0.0,0.0,0.0,0.0,0.0,0.0,0.0,0.0,0.0,0.0,0.0,0.0,0.0,0.0,0.0,0.0,0.0,0.0,0.0,1.2215,1.3765,1.6598,1.7091,1.748,1.8142,1.7569,1.5946,1.3022,1.1851,0.0,0.0,0.0,0.0,0.0,0.0,0.0,0.0,0.0,0.0,0.0,0.0,0.0,0.0,0.0,0.0,0.0,0.0,0.0,0.0,0.0,0.0,0.0,0.0,0.0,0.0,0.0,0.0,0.0,0.0,0.0,0.0,0.0,0.0,0.0,0.0,0.0,0.0,0.0,0.0,0.0,0.0,0.0,0.0,0.0,0.0,0.0,0.0,0.0,0.0,0.0,0.0,0.0,0.0,0.0,0.0,0.0,0.0,0.0,0.0,0.0,0.0,0.0,0.0,0.0,0.0,0.0,0.0,0.0,0.0,0.0,0.0,0.0,0.0,0.0,0.0,0.0,0.0,0.0,0.0,0.0,0.0,0.0,0.0,0.0,0.0,0.0,0.0,0.0,0.0,0.0,0.0,0.0,0.0,0.0,0.0,0.0,0.0,0.0,0.0,0.0,0.0,1.4137,1.6076,1.6575,1.6801,1.6869,1.6765,1.7199,1.5843,1.2036,1.2003,0.0,0.0,0.0,0.0,0.0,0.0,0.0,0.0,0.0,0.0,0.0,0.0,0.0,0.0,0.0,0.0,0.0,0.0,0.0,0.0,0.0,0.0,0.0,0.0,0.0,0.0,0.0,0.0,0.0,0.0,0.0,0.0,0.0,0.0,0.0,0.0,0.0,0.0,0.0,0.0,0.0,0.0,0.0,0.0,0.0,0.0,0.0,0.0,0.0,0.0,0.0,0.0,0.0,0.0,0.0,0.0,0.0,0.0,0.0,0.0,0.0,0.0,0.0,0.0,0.0,0.0,0.0,0.0,0.0,0.0,0.0,0.0,0.0,0.0,0.0,0.0,0.0,0.0,0.0,0.0,0.0,0.0,0.0,0.0,0.0,0.0,0.0,0.0,0.0,0.0,0.0,0.0,0.0,0.0,0.0,0.0,0.0,0.0,0.0,0.0,0.0,0.0,1.3806,1.5543,0.0,1.6773,1.6815,1.7027,1.6977,1.5559,1.2334,0.0,0.0,0.0,0.0,0.0,0.0,0.0,0.0,0.0,0.0,0.0,0.0,0.0,0.0,0.0,0.0,0.0,0.0,0.0,0.0,0.0,0.0,0.0,0.0,0.0,0.0,0.0,0.0,0.0,0.0,0.0,0.0,0.0,0.0,0.0,0.0,0.0,0.0,0.0,0.0,0.0,0.0,0.0,0.0,0.0,0.0,0.0,0.0,0.0,0.0,0.0,0.0,0.0,0.0,0.0,0.0,0.0,0.0,0.0,0.0,0.0,0.0,0.0,0.0,0.0,0.0,0.0,0.0,0.0,0.0,0.0,0.0,0.0,0.0,0.0,0.0,0.0,0.0,0.0,0.0,0.0,0.0,0.0,0.0,0.0,0.0,0.0,0.0,0.0,0.0,0.0,0.0,0.0,0.0,0.0,0.0,0.0,0.0,0.0,0.0,0.0,0.0,1.2015,1.3897,1.563,0.0,1.7002,1.6977,1.7199,1.7002,1.5551,1.2375,0.0,0.0,0.0,0.0,0.0,0.0,0.0,0.0,0.0,0.0,0.0,0.0,0.0,0.0,0.0,0.0,0.0,0.0,0.0,0.0,0.0,0.0,0.0,0.0,0.0,0.0,0.0,0.0,0.0,0.0,0.0,0.0,0.0,0.0,0.0,0.0,0.0,0.0,0.0,0.0,0.0,0.0,0.0,0.0,0.0,0.0,0.0,0.0,0.0,0.0,0.0,0.0,0.0,0.0,0.0,0.0,0.0,0.0,0.0,0.0,0.0,0.0,0.0,0.0,0.0,0.0,0.0,0.0,0.0,0.0,0.0,0.0,0.0,0.0,0.0,0.0,0.0,0.0,0.0,0.0,0.0,0.0,0.0,0.0,0.0,0.0,0.0,0.0,0.0,0.0,0.0,0.0,0.0,0.0,0.0,0.0,0.0,0.0,0.0,0.0,0.0,0.0,1.2179,1.4774,1.6815,1.7337,1.7455,1.7368,1.7043,1.7296,1.5847,0.0,0.0,0.0,0.0,0.0,0.0,0.0,0.0,0.0,0.0,0.0,0.0,0.0,0.0,0.0,0.0,0.0,0.0,0.0,0.0,0.0,0.0,0.0,0.0,0.0,0.0,0.0,0.0,0.0,0.0,0.0,0.0,0.0,0.0,0.0,0.0,0.0,0.0,0.0,0.0,0.0,0.0,0.0,0.0,0.0,0.0,0.0,0.0,0.0,0.0,0.0,0.0,0.0,0.0,0.0,0.0,0.0,0.0,0.0,0.0,0.0,0.0,0.0,0.0,0.0,0.0,0.0,0.0,0.0,0.0,0.0,0.0,0.0,0.0,0.0,0.0,0.0,0.0,0.0,0.0,0.0,0.0,0.0,0.0,0.0,0.0,0.0,0.0,0.0,0.0,0.0,0.0,0.0,0.0,0.0,0.0,0.0,0.0,0.0,0.0,0.0,0.0,0.0,1.2376,1.5192,1.724,1.7439,1.7486,1.7462,1.7368,1.7272,1.5732,1.2266,0.0,0.0,0.0,0.0,0.0,0.0,0.0,0.0,0.0,0.0,0.0,0.0,0.0,0.0,0.0,0.0,0.0,0.0,0.0,0.0,0.0,0.0,0.0,0.0,0.0,0.0,0.0,0.0,0.0,0.0,0.0,0.0,0.0,0.0,0.0,0.0,0.0,0.0,0.0,0.0,0.0,0.0,0.0,0.0,0.0,0.0,0.0,0.0,0.0,0.0,0.0,0.0,0.0,0.0,0.0,0.0,0.0,0.0,0.0,0.0,0.0,0.0,0.0,0.0,0.0,0.0,0.0,0.0,0.0,0.0,0.0,0.0,0.0,0.0,0.0,0.0,0.0,0.0,0.0,0.0,0.0,0.0,0.0,0.0,0.0,0.0,0.0,0.0,0.0,0.0,0.0,0.0,0.0,0.0,0.0,0.0,0.0,0.0,0.0,0.0,0.0,0.0,1.2435,1.5169,1.7191,1.7415,1.7368,1.7296,1.7296,1.7311,1.618,1.349,0.0,0.0,0.0,0.0,0.0,0.0,0.0,0.0,0.0,0.0,0.0,0.0,0.0,0.0,0.0,0.0,0.0,0.0,0.0,0.0,0.0,0.0,0.0,0.0,0.0,0.0,0.0,0.0,0.0,0.0,0.0,0.0,0.0,0.0,0.0,0.0,0.0,0.0,0.0,0.0,0.0,0.0,0.0,0.0,0.0,0.0,0.0,0.0,0.0,0.0,0.0,0.0,0.0,0.0,0.0,0.0,0.0,0.0,0.0,0.0,0.0,0.0,0.0,0.0,0.0,0.0,0.0,0.0,0.0,0.0,0.0,0.0,0.0,0.0,0.0,0.0,0.0,0.0,0.0,0.0,0.0,0.0,0.0,0.0,0.0,0.0,0.0,0.0,0.0,0.0,0.0,0.0,0.0,0.0,0.0,0.0,0.0,0.0,0.0,0.0,0.0,0.0,1.2384,1.4916,1.6892,1.7313,1.7191,1.7043,1.6968,1.7327,1.6796,1.511,0.0,0.0,0.0,0.0,0.0,0.0,0.0,0.0,0.0,0.0,0.0,0.0,0.0,0.0,0.0,0.0,0.0,0.0,0.0,0.0,0.0,0.0,0.0,0.0,0.0,0.0,0.0,0.0,0.0,0.0,0.0,0.0,0.0,0.0,0.0,0.0,0.0,0.0,0.0,0.0,0.0,0.0,0.0,0.0,0.0,0.0,0.0,0.0,0.0,0.0,0.0,0.0,0.0,0.0,0.0,0.0,0.0,0.0,0.0,0.0,1.5064,0.0,0.0,0.0,0.0,0.0,0.0,0.0,0.0,0.0,0.0,0.0,0.0,0.0,0.0,0.0,0.0,0.0,0.0,0.0,0.0,0.0,0.0,0.0,0.0,0.0,0.0,0.0,0.0,0.0,0.0,0.0,0.0,0.0,0.0,0.0,0.0,0.0,0.0,0.0,0.0,0.0,1.2423,1.5397,1.7432,1.7117,1.7344,1.7337,1.6738,1.6917,1.6449,1.508,0.0,0.0,0.0,0.0,0.0,0.0,0.0,0.0,0.0,0.0,0.0,0.0,0.0,0.0,0.0,0.0,0.0,0.0,0.0,0.0,0.0,0.0,0.0,0.0,0.0,0.0,0.0,0.0,0.0,0.0,0.0,0.0,0.0,0.0,0.0,0.0,0.0,0.0,0.0,0.0,0.0,0.0,0.0,0.0,0.0,0.0,0.0,0.0,0.0,0.0,0.0,0.0,0.0,0.0,0.0,0.0,0.0,0.0,0.0,0.0,0.0,1.514,0.0,0.0,0.0,0.0,0.0,0.0,0.0,0.0,0.0,0.0,0.0,0.0,0.0,0.0,0.0,0.0,0.0,0.0,0.0,0.0,0.0,0.0,0.0,0.0,0.0,0.0,0.0,0.0,0.0,0.0,0.0,0.0,0.0,0.0,0.0,0.0,0.0,0.0,0.0,0.0,1.2423,1.5221,1.7297,1.7462,1.7237,1.7071,1.7081,1.7113,1.696,1.6567,1.5564,0.0,0.0,0.0,0.0,0.0,0.0,0.0,0.0,0.0,0.0,0.0,0.0,0.0,0.0,0.0,0.0,0.0,0.0,0.0,0.0,0.0,0.0,0.0,0.0,0.0,0.0,0.0,0.0,0.0,0.0,0.0,0.0,0.0,0.0,0.0,0.0,0.0,0.0,0.0,0.0,0.0,0.0,0.0,0.0,0.0,0.0,0.0,0.0,0.0,0.0,0.0,0.0,0.0,1.8725,1.901,1.897,1.8926,2.0074,2.1901,1.8059,1.7924,2.0124,0.0,0.0,0.0,0.0,0.0,0.0,0.0,0.0,0.0,0.0,0.0,0.0,0.0,0.0,0.0,0.0,0.0,0.0,0.0,0.0,0.0,0.0,0.0,0.0,0.0,1.8786,1.952,0.0,0.0,0.0,0.0,0.0,0.0,0.0,0.0,0.0,0.0,0.0,0.0,1.2971,1.5185,1.7061,1.7845,1.7061,1.6745,1.7462,1.7439,1.7664,1.833,1.7272,1.6479,0.0,0.0,0.0,0.0,0.0,0.0,0.0,0.0,0.0,0.0,0.0,0.0,0.0,0.0,0.0,0.0,0.0,0.0,0.0,0.0,0.0,0.0,0.0,0.0,0.0,0.0,0.0,0.0,0.0,0.0,0.0,0.0,1.4838,1.6244,0.0,0.0,0.0,0.0,0.0,0.0,0.0,0.0,0.0,0.0,0.0,0.0,0.0,0.0,1.7474,1.9804,2.0912,2.0813,2.3221,2.437,2.4342,2.3614,2.3451,2.3704,2.2426,0.0,2.1457,2.0756,0.0,0.0,0.0,0.0,0.0,0.0,0.0,0.0,0.0,0.0,0.0,0.0,0.0,0.0,0.0,0.0,0.0,0.0,0.0,0.0,0.0,0.0,2.2917,2.2583,2.2745,2.2802,0.0,1.8586,1.5291,1.4739,1.4581,0.0,0.0,0.0,0.0,0.0,0.0,0.0,1.5201,1.653,1.7394,1.7626,1.7114,1.6865,1.7219,1.7339,1.7911,1.9086,1.8961,1.8299,1.7029,1.5953,0.0,0.0,0.0,0.0,0.0,0.0,0.0,0.0,0.0,0.0,0.0,0.0,0.0,0.0,0.0,0.0,0.0,0.0,0.0,0.0,0.0,0.0,0.0,0.0,0.0,0.0,0.0,0.0,0.0,1.325,1.4316,1.4684,1.4095,1.3123,0.0,0.0,0.0,0.0,0.0,0.0,0.0,0.0,0.0,1.9512,1.9686,2.0405,2.1811,2.2998,2.3545,2.3501,2.4706,2.5298,2.5265,2.4878,2.4729,2.4699,2.4426,2.4107,2.3639,2.1794,1.9922,1.8086,0.0,0.0,0.0,0.0,1.5818,1.6062,1.8602,1.9446,0.0,0.0,0.0,0.0,0.0,0.0,0.0,0.0,0.0,0.0,0.0,0.0,0.0,2.3551,2.3685,2.3526,2.3348,2.1492,1.9324,0.0,1.6503,1.4915,1.1947,0.0,0.0,0.0,0.0,0.0,1.6736,1.7723,1.8529,1.9004,1.8276,1.7934,1.8346,1.816,1.8377,1.924,1.9302,1.9162,1.8897,1.7365,1.5068,0.0,0.0,0.0,0.0,0.0,0.0,0.0,0.0,0.0,0.0,0.0,0.0,0.0,0.0,0.0,0.0,0.0,0.0,0.0,0.0,0.0,0.0,0.0,0.0,0.0,0.0,0.0,0.0,1.4218,1.4812,1.434,1.5024,1.4577,0.0,0.0,0.0,0.0,0.0,0.0,1.8066,1.8201,1.9413,2.1895,2.2124,2.3064,2.4843,2.4946,2.4943,2.4815,2.4943,2.5003,2.4995,2.4995,2.5043,2.5126,2.5234,2.5266,2.5097,2.2767,2.1775,2.1538,1.9579,1.8375,1.7836,1.8493,1.8644,1.889,2.1459,2.2278,2.2135,2.1802,0.0,2.0345,1.8541,0.0,0.0,0.0,0.0,1.8546,2.102,2.1562,2.1927,2.3713,2.3878,2.3642,2.3598,2.3092,2.2078,0.0,1.8907,1.7004,1.382,0.0,0.0,0.0,0.0,1.7769,1.822,1.8751,1.9312,1.9919,1.9029,1.8672,1.929,1.8935,1.8967,1.9568,1.9582,1.978,2.0289,1.8663,1.6772,1.4686,0.0,0.0,0.0,0.0,0.0,0.0,0.0,0.0,0.0,0.0,0.0,0.0,0.0,0.0,0.0,0.0,0.0,0.0,0.0,0.0,0.0,0.0,0.0,0.0,0.0,0.0,0.0,0.0,0.0,1.8316,1.9469,0.0,0.0,0.0,0.0,1.6362,1.6473,1.7564,1.9847,2.0391,2.1587,2.3713,2.4211,2.4301,2.3953,2.4273,2.4225,2.379,2.4225,2.4441,2.4441,2.4441,2.4603,2.4929,2.4911,2.4924,2.4936,2.5232,2.3937,2.1782,2.1655,2.0078,1.8196,2.0674,2.1477,2.1668,2.4282,2.507,2.4789,2.4077,2.2123,2.0161,2.0796,1.919,0.0,0.0,2.0884,2.1444,2.3863,2.4489,2.4444,2.4247,2.4001,2.3803,2.3858,2.2374,2.1321,0.0,2.2287,2.13,1.8767,0.0,1.8021,1.7402,1.7459,1.8203,1.9877,1.9511,1.9167,1.9339,1.8685,1.8578,1.9419,1.9353,1.9599,2.04,2.0311,2.0273,2.0304,2.0177,1.9015,1.6698,1.4537,0.0,0.0,0.0,0.0,0.0,0.0,0.0,0.0,0.0,0.0,0.0,0.0,0.0,0.0,0.0,0.0,0.0,0.0,0.0,0.0,0.0,0.0,0.0,0.0,0.0,0.0,0.0,0.0,1.7739,1.8963,0.0,0.0,1.7983,1.8817,1.8809,2.0259,2.1516,2.2368,2.2575,2.3015,2.3755,2.3932,2.3932,2.3753,2.3891,2.387,2.3705,2.387,2.4044,2.428,2.428,2.4435,2.4779,2.4864,2.4898,2.4924,2.5216,2.4856,2.4114,2.4116,2.3598,2.2968,2.3905,2.418,2.4193,2.5095,2.5299,2.5119,2.4859,2.4136,2.3395,2.3633,2.2955,2.2293,2.3309,2.3432,2.3453,2.4497,2.458,2.4356,2.4284,2.3881,2.3562,2.3671,2.2932,2.2363,2.2746,2.1909,2.0641,1.9151,2.0018,2.0317,1.8583,1.9622,2.0776,2.1184,2.0812,2.046,2.0302,1.9902,1.9772,1.9986,2.0069,2.0177,2.0357,2.0339,2.0304,2.0304,2.0304,1.9415,1.7479,1.6329,1.3897,0.0,0.0,0.0,0.0,0.0,0.0,0.0,0.0,0.0,0.0,0.0,0.0,0.0,0.0,0.0,0.0,0.0,0.0,0.0,0.0,0.0,0.0,0.0,0.0,0.0,0.0,1.841,1.7195,1.9119,1.9752,1.7742,1.963,2.098,2.099,2.2468,2.3351,2.3351,2.3468,2.3446,2.3182,2.3406,2.3406,2.32,2.3424,2.3424,2.3182,2.3406,2.3602,2.3712,2.3812,2.4062,2.4371,2.4579,2.4651,2.4685,2.493,2.5107,2.5245,2.5356,2.5457,2.5537,2.557,2.5545,2.5455,2.5351,2.5311,2.5279,2.5245,2.5234,2.5224,2.5145,2.5019,2.4915,2.4991,2.4768,2.4543,2.4726,2.4528,2.4302,2.4303,2.3939,2.3624,2.3628,2.3376,2.3102,2.2935,2.1933,2.0897,2.022,2.1262,2.153,1.9636,2.1026,2.2068,2.1378,2.1285,2.1182,2.0827,2.0595,2.0392,2.0357,2.0007,1.9978,2.0342,1.994,1.986,2.0289,1.9608,1.8661,1.7494,1.6384,1.4148,1.0702,0.0,0.0,0.0,0.0,0.0,0.0,0.0,0.0,0.0,0.0,0.0,0.0,0.0,0.0,0.0,0.0,0.0,0.0,0.0,0.0,0.0,0.0,0.0,1.6234,1.7757,1.8408,1.7265,2.0345,2.1809,1.9854,2.1513,2.2685,2.2685,2.2685,2.2685,2.2685,2.3007,2.2873,2.222,2.2848,2.2873,2.2192,2.2848,2.2848,2.2192,2.2873,2.301,2.2728,2.3052,2.3379,2.3726,2.4044,2.421,2.4228,2.4559,2.4775,2.4943,2.5265,2.5401,2.5422,2.5547,2.5527,2.5386,2.526,2.5341,2.5484,2.5339,2.5302,2.5283,2.5224,2.5145,2.5088,2.5018,2.4846,2.4692,2.4707,2.4594,2.4461,2.4339,2.4135,2.3923,2.3735,2.3535,2.3283,2.2947,2.2669,2.2439,2.2321,2.2147,2.169,2.0804,2.1608,0.0,2.0489,2.0902,2.1166,2.0795,2.0478,2.0342,2.0462,1.9232,1.9014,2.0416,1.92,1.9013,2.0243,1.8298,1.7076,1.6847,1.4679,1.3014,1.1954,0.0,0.0,0.0,0.0,0.0,0.0,0.0,0.0,0.0,0.0,0.0,0.0,0.0,0.0,0.0,0.0,0.0,0.0,0.0,0.0,0.0,0.0,1.5736,1.6727,1.8369,1.9547,1.9812,2.1011,2.1697,2.1419,2.2141,2.2649,2.2649,2.2579,2.2552,2.2552,2.2642,2.2598,2.2426,2.2651,2.2554,2.2068,2.2581,2.2607,2.2124,2.2607,2.2925,2.3076,2.3165,2.3379,2.3726,2.4044,2.421,2.4228,2.4559,2.4719,2.479,2.5118,2.5286,2.5346,2.5522,2.5547,2.5481,2.5438,2.5453,2.5484,2.5448,2.5448,2.5404,2.5253,2.5096,2.4956,2.4985,2.4753,2.4526,2.4726,2.4564,2.4357,2.4358,2.4115,2.3777,2.3544,2.3312,2.3126,2.2935,2.2598,2.2371,2.2364,2.226,2.2084,2.1866,2.2102,0.0,2.114,2.1194,2.0926,1.9954,1.9762,1.9729,1.9777,1.9419,1.9527,2.0311,1.9983,1.9937,2.0289,1.9375,1.8467,1.7702,1.5647,1.4133,0.0,0.0,0.0,0.0,0.0,0.0,0.0,0.0,0.0,0.0,0.0,0.0,0.0,0.0,0.0,0.0,0.0,0.0,0.0,0.0,0.0,0.0,1.455,1.6332,1.7136,1.8812,2.0204,2.0828,2.1119,2.1415,2.1807,2.2027,2.213,2.213,2.2215,2.2287,2.2287,2.2415,2.2443,2.2287,2.2153,2.2051,2.1998,2.2108,2.2136,2.2096,2.2309,2.2456,2.253,2.2504,2.2591,0.0,2.3312,2.3614,2.3777,2.4281,2.4575,0.0,0.0,0.0,0.0,0.0,2.5537,2.5504,2.5504,2.5499,2.5511,2.5511,2.5511,2.5468,2.5284,2.5165,2.5057,2.5044,2.4804,2.4604,2.4723,2.4564,2.4375,2.4358,2.421,2.3939,2.3482,2.3382,2.323,2.279,2.2535,0.0,2.2248,2.213,2.1948,2.1602,2.1819,2.1757,2.098,2.1005,2.0879,2.0289,2.0,1.9884,2.0016,1.942,0.0,0.0,0.0,1.9252,1.8649,1.8248,0.0,0.0,0.0,1.495,1.5138,0.0,0.0,0.0,1.3329,1.3101,0.0,0.0,0.0,0.0,0.0,0.0,0.0,0.0,0.0,0.0,0.0,0.0,0.0,0.0,0.0,0.0,1.5589,1.7018,1.7422,1.9051,2.0308,2.0681,2.078,2.0975,2.1385,2.1462,2.1493,2.1493,2.1764,2.1924,2.1924,0.0,0.0,0.0,0.0,2.1532,2.1866,2.1562,2.1592,2.1965,2.1907,2.1777,2.1598,2.146,2.1446,2.1538,2.2337,2.2832,2.3155,2.3931,2.4422,2.4719,2.4873,2.5005,2.5141,2.5414,2.5492,2.5511,2.5511,0.0,0.0,2.5511,2.5511,2.5476,2.5339,2.5302,2.5265,2.5141,2.4968,2.4828,2.4749,2.4626,2.4495,2.4375,2.4375,2.4229,2.357,2.3544,2.3432,2.2642,2.2473,2.2412,2.2124,2.1969,2.1608,2.0772,2.1295,2.1434,2.057,2.0734,2.0975,2.1194,0.0,0.0,2.0684,1.939,1.9044,2.0227,1.9228,1.8005,1.6691,1.6459,1.6033,1.5269,1.5128,1.584,1.7382,1.7382,1.7695,1.8205,1.4195,1.3894,0.0,0.0,0.0,0.0,0.0,0.0,0.0,0.0,0.0,0.0,0.0,0.0,0.0,0.0,0.0,1.332,1.5352,1.705,1.7422,1.8584,1.9456,1.9528,2.0058,2.0565,2.0991,2.1245,2.1417,2.1417,2.1432,2.1462,2.1462,2.1493,0.0,2.1446,2.1415,2.1276,2.1039,2.1323,2.1368,2.1134,0.0,0.0,2.1507,2.1164,2.1195,2.1568,2.2582,2.3035,2.3195,2.4191,2.4642,2.4727,2.4968,2.5133,2.5279,2.5435,2.5495,2.5511,2.5511,2.5511,2.5511,2.5511,2.5511,2.5476,2.5339,2.5302,0.0,2.5141,2.5069,2.5032,2.4964,2.4832,2.4745,2.4711,2.4549,2.4247,2.3681,2.3508,2.3364,2.3028,2.2668,2.2453,2.2554,2.2198,2.1861,2.1711,2.1919,2.1928,2.1497,2.1519,2.1357,2.0724,2.0451,2.0268,2.0176,1.9766,1.975,2.0292,1.9974,1.9435,1.8651,1.8736,1.8553,1.795,1.8041,1.8231,1.8571,1.8571,1.8885,1.9433,1.7678,1.7385,0.0,0.0,0.0,0.0,0.0,0.0,0.0,0.0,0.0,0.0,0.0,1.1188,1.1973,0.0,1.3708,1.4461,1.5706,1.6697,1.7105,1.7773,1.8545,1.9339,1.9965,2.0361,2.0579,2.0745,2.0844,2.0844,2.0958,2.1071,2.1071,2.1214,2.1308,2.1308,2.0975,2.0878,2.1071,2.091,2.0942,2.115,2.0959,2.0975,2.1182,2.0781,2.0698,2.0942,2.2071,2.288,2.349,2.4819,2.537,2.5387,2.5189,2.5145,2.5219,2.5434,2.5511,2.5569,2.5956,2.6102,2.6169,2.6613,2.6749,2.6741,2.6676,2.6641,2.6573,2.6443,2.639,2.6333,2.627,2.5878,2.5469,2.5327,2.4897,2.4321,2.3638,2.357,2.3518,2.3077,2.2927,2.285,2.2825,2.2419,2.2068,2.2027,2.1899,2.1844,2.1768,2.1601,2.1409,2.1184,2.0805,2.0589,2.0635,2.0225,2.002,2.0204,2.0045,1.9773,1.9382,1.9381,1.9197,1.8808,1.8845,1.8911,1.8911,1.8911,1.9211,1.9786,1.9224,1.9251,0.0,0.0,0.0,0.0,0.0,0.0,0.0,0.0,0.9608,1.079,1.1337,1.206,1.348,1.3823,1.4321,1.5738,1.6144,1.6436,1.6837,1.7271,1.8066,1.942,1.9869,2.008,2.0115,2.015,2.015,2.008,2.0426,2.0628,2.0595,2.0845,2.1007,2.1007,2.033,2.0261,2.0862,2.0261,2.0296,2.0942,2.0499,2.033,2.0465,2.0122,1.9999,2.0127,2.1166,2.2141,2.3131,2.4647,2.5404,2.5592,2.5351,2.5361,2.5525,2.5671,2.584,2.6072,2.6729,2.6917,2.6987,2.7748,2.7894,2.7836,2.7951,2.7904,2.7822,2.7716,2.7663,2.7597,2.7523,2.6953,2.6344,2.612,2.5566,2.4855,2.4129,2.4039,2.3905,2.3337,2.3232,2.3157,2.2952,2.2634,2.2303,2.2068,2.1794,2.1645,2.1811,2.157,2.1495,2.1751,2.1324,2.1087,2.1344,2.0683,2.0325,2.0411,2.0173,1.995,1.9788,1.96,1.941,1.9193,1.9232,1.9251,1.9251,1.9251,1.9439,1.9762,1.9928,2.0224,0.7435,0.7246,0.0,0.9657,0.9679,1.0237,0.0,0.0,1.3223,1.4666,1.5205,1.5472,1.5653,1.5603,1.5576,1.58,1.6293,1.6765,1.7115,1.7921,1.8626,1.9087,1.9213,1.931,1.9479,1.9675,1.9617,1.925,1.9762,2.0025,1.9818,1.9854,1.9889,1.9889,1.9457,1.9273,1.9347,1.9273,1.9273,1.9332,1.8727,1.8598,1.893,1.8847,1.8975,1.9355,2.0036,2.037,2.062,2.2104,2.3174,2.4005,2.537,2.6346,2.6927,2.6668,2.7058,2.7735,2.7813,2.7662,2.747,2.7804,2.7542,2.7218,2.775,2.7742,2.7579,2.7673,2.7692,2.7663,2.7533,2.7308,2.7083,2.705,2.689,2.6581,2.6081,2.5365,2.4721,2.4468,2.3626,2.2952,2.3052,2.2825,2.2544,2.2237,2.1982,2.1882,2.1969,2.2049,2.2007,2.1827,2.1721,2.1661,2.1547,2.1203,2.1188,2.159,2.1188,2.0895,2.0748,2.0446,2.0278,2.0253,2.0422,2.0515,2.0515,2.0515,2.0217,1.9647,2.033,2.05,0.8785,0.0,0.0,0.0,1.0712,1.122,1.2737,1.2828,1.3009,1.4341,1.4956,1.5311,1.5558,1.5424,1.5457,0.0,1.6281,1.6642,1.7421,1.7908,1.833,1.886,1.8936,1.9087,1.953,1.9639,1.9654,1.9472,1.969,1.9797,1.969,1.9603,1.953,1.953,1.925,1.9101,1.9101,1.8959,1.8869,1.8869,1.8458,1.8523,1.8993,1.8961,1.9251,1.9758,2.0483,2.1588,2.2884,2.3499,2.482,2.647,2.6626,2.7258,2.7999,2.742,2.7443,2.7857,2.839,2.8499,2.8441,2.8906,2.9027,2.8995,2.9142,2.9487,2.9832,2.9896,2.9822,2.9711,2.9574,2.8736,2.7898,2.7662,2.7213,2.6665,2.608,2.578,2.5499,2.5144,2.4845,2.4665,2.4665,2.434,2.3971,2.3785,2.311,2.2471,2.2157,2.2802,2.3104,2.2606,2.2356,2.209,2.1861,2.1614,2.1467,2.1395,2.1126,2.0854,2.0645,2.0489,2.0476,2.055,2.0667,2.0662,2.0562,2.022,2.0117,2.0195,2.0151,2.0189,0.9249,0.0,0.0,1.0914,1.1595,1.2181,1.2039,1.2345,1.2966,1.3861,1.4463,1.4949,1.539,1.5322,0.0,1.6337,1.6441,1.6756,1.7666,1.7882,1.8161,1.8644,1.8721,1.8912,1.9325,1.9472,1.9508,1.9398,1.9508,1.9581,1.9457,1.9295,1.9221,1.9132,1.8846,1.8669,1.8669,1.8355,1.8224,1.8224,1.8192,1.8249,1.848,1.8524,1.8829,1.9395,1.9791,2.0828,2.2276,2.3343,2.5007,2.685,2.7293,2.8183,2.9139,2.8434,2.8237,2.8376,2.9104,2.9257,2.9184,2.9715,3.0038,3.0274,3.0255,3.0929,3.1699,3.1732,3.1641,3.1476,3.1128,3.0058,2.8933,2.8417,2.7772,2.7134,2.657,2.6372,2.6254,2.5879,2.5833,2.5868,2.58,2.5402,2.5027,2.4919,2.4232,2.3472,2.2828,2.3433,2.3652,2.3012,2.2629,2.2347,2.2237,2.2014,2.1791,2.1595,2.1269,2.0929,2.0684,2.0556,2.0611,2.0935,2.0948,2.0861,2.0655,2.029,2.0184,2.022,2.0005,1.9981,0.0,0.0,1.0049,1.1342,1.2383,1.3191,1.3632,1.4007,1.4297,1.4468,1.4812,1.5289,1.5856,1.5988,1.6076,1.6436,1.6909,1.7353,1.7666,1.8135,1.8478,1.8517,1.8517,1.8517,0.0,1.8889,1.8965,1.8556,1.9078,1.9228,1.886,1.8822,1.8745,1.8539,1.7868,1.7557,1.7557,1.7214,1.7034,1.7047,1.7388,1.7213,1.6572,1.6823,1.7145,1.7478,1.688,1.6275,1.6001,1.9755,2.1805,2.2958,2.6641,2.9074,3.0472,2.9851,2.9796,3.0046,3.0209,2.987,2.942,2.9712,2.9839,3.0021,3.0518,3.1374,3.2182,3.2257,3.2362,3.2273,3.14,3.0808,3.0272,2.952,2.9027,2.8646,2.8376,2.7607,2.6956,2.6854,2.6302,2.58,2.58,2.5456,2.5112,2.4919,2.5099,2.4979,2.4227,2.372,2.3189,2.2571,2.2255,2.23,2.2752,2.2342,2.2323,2.2788,2.1913,2.1369,2.1396,2.0908,2.0948,2.1472,2.1485,2.1362,2.1101,2.138,2.0763,1.9361,2.0139,2.0125,0.8682,0.0,1.1106,1.2044,1.2948,1.3621,1.3862,1.4258,1.4571,1.4617,1.4451,1.4448,1.494,1.4798,1.4885,1.5761,1.6131,1.66,1.7393,1.7639,1.7895,1.8282,1.8321,0.0,0.0,0.0,0.0,1.8517,1.8542,1.8542,1.8425,1.8121,1.7908,1.7828,1.7475,1.7269,1.716,1.6921,1.6944,1.7194,1.7535,1.7756,1.7894,1.7587,1.7397,1.7379,1.6765,1.779,2.0,2.1322,2.4126,2.7719,2.9101,3.0298,3.1191,3.0592,3.0471,3.0559,3.0159,2.9902,2.979,3.015,3.0446,3.0764,3.1166,3.206,3.2919,3.2957,3.2918,3.2801,3.2427,3.1617,3.0809,3.0428,2.9691,2.9007,2.8845,2.8251,2.7709,2.7634,2.7504,2.7406,2.7406,2.6911,2.6358,2.5897,2.5062,2.4663,2.5135,2.4349,2.3723,2.3683,2.331,2.3026,2.2863,2.2703,2.2433,2.1955,2.1972,2.1857,2.1467,2.1681,2.1824,2.1925,2.1453,2.1088,2.0836,2.0354,2.0064,1.9943,1.9845,1.9928,0.9877,1.0804,1.1753,1.2731,1.3367,1.3763,1.3847,1.4201,1.4617,1.4801,1.4271,1.3925,1.4399,1.4262,1.4328,1.5089,1.5799,1.6451,1.7034,1.7424,1.7774,1.8016,1.8268,0.0,0.0,0.0,0.0,1.8517,1.84,1.8228,1.8069,1.776,1.7557,1.7393,1.7395,1.7286,1.7188,1.7131,1.7285,1.7694,1.7676,1.7945,1.847,1.7636,1.712,1.7002,1.7197,1.8656,2.1101,2.3018,2.5838,2.9058,3.0333,3.1136,3.1528,3.0921,3.0747,3.0733,3.0089,2.9787,2.9776,3.0365,3.0812,3.1229,3.1742,3.272,3.3658,3.3612,3.3568,3.3444,3.3069,3.2213,3.1356,3.0985,3.0216,2.9455,2.9009,2.8641,2.8362,2.7964,2.8081,2.8209,2.8053,2.7461,2.6858,2.6349,2.5342,2.4818,2.5368,2.4798,2.428,2.4074,2.3824,2.3465,2.2934,2.2694,2.2381,2.1771,2.1901,2.1954,2.1825,2.1882,2.2001,2.2051,2.1334,2.0828,2.0569,2.0076,1.9952,2.0028,1.9648,1.9748,1.1427,1.1844,1.1995,1.3252,1.361,1.361,1.3658,1.3978,1.4468,1.4949,1.4224,1.3634,0.0,0.0,1.4383,1.4426,1.588,1.6894,1.6692,1.7542,1.8069,0.0,0.0,0.0,0.0,0.0,0.0,1.8559,0.0,1.8293,1.7828,1.7787,1.7585,1.7199,1.7475,1.7549,1.7415,1.7622,1.7922,1.8321,1.7688,1.7686,1.8201,1.6979,1.6373,1.6357,1.7847,1.8555,1.9075,2.4273,2.6529,2.6985,3.0265,3.1579,3.1528,3.0918,3.0706,3.0615,3.0001,2.957,2.9444,3.0302,3.0872,3.1378,3.2235,3.3303,3.4186,3.4074,3.411,3.4023,3.3276,3.2592,3.1981,3.1347,3.0675,2.9916,2.8977,2.8956,2.8812,2.79,2.8035,2.8146,2.776,2.7132,2.659,2.633,2.5852,2.5389,2.5028,2.513,2.4791,2.3769,2.3771,2.3612,2.2991,2.2459,2.2193,2.2255,2.1824,2.1851,2.2426,2.163,2.1428,2.203,2.1164,2.0545,2.0268,2.0666,2.042,1.9605,1.9605,1.9605,1.1426,1.2438,1.3238,1.3311,1.3494,1.3768,1.4165,1.434,1.4406,1.4259,1.3679,1.2954,0.0,0.0,0.0,1.3803,1.5312,0.0,1.7113,1.7545,0.0,0.0,0.0,1.875,1.9188,1.927,0.0,0.0,1.8832,1.8394,1.7841,1.7639,1.7325,1.6693,1.6703,1.656,1.6264,1.6657,1.7117,1.7594,1.7426,1.7496,1.7809,1.6667,1.6153,1.627,1.5875,1.6681,1.8411,2.1422,2.4061,2.6461,2.9401,3.0973,3.1528,3.0872,3.0663,3.0555,2.9673,2.9394,2.9544,3.0176,3.083,3.1469,3.2208,3.269,3.2967,3.2985,3.2992,3.2988,3.2785,3.2683,3.2581,3.2414,3.1083,2.9854,2.9709,2.9374,2.8888,2.8213,2.795,2.773,2.74,2.6989,2.6607,2.6258,2.5795,2.5389,2.5028,2.5158,2.5041,2.4402,2.441,2.425,2.3632,2.3119,2.2638,2.2192,2.2544,2.2802,2.2847,2.2564,2.2367,2.2286,2.1031,2.0328,2.0161,1.9977,1.9791,1.9605,1.9605,1.9605,1.1957,1.2762,1.3286,1.3505,1.3815,1.3989,1.3737,1.3939,1.4004,1.3224,1.2574,0.0,0.0,0.0,0.0,0.0,0.0,0.0,1.7008,1.7558,1.7975,0.0,1.8542,0.0,1.923,1.9337,1.9477,0.0,1.9171,1.8556,1.7854,1.7612,1.7402,1.7222,1.72,1.7202,1.7135,1.7206,1.7375,1.7638,1.7638,1.7506,1.7257,1.6665,1.6186,1.5918,0.0,1.6864,1.8302,2.2197,2.4835,2.674,2.9923,3.1311,3.1433,3.0761,3.0376,3.0088,2.9479,2.9291,2.9442,3.006,3.0467,3.0929,3.2072,3.2437,3.2556,3.2957,3.3048,3.304,3.304,3.2995,3.2894,3.2766,3.1784,3.0661,2.9831,2.9787,2.9624,2.8676,2.8067,2.7627,2.7449,2.7297,2.7135,2.6944,2.6474,2.6086,2.5828,2.5481,2.5207,2.5077,2.478,2.4383,2.3858,2.3344,2.2831,2.2463,2.2873,2.3044,2.2812,2.2432,2.1978,2.1479,2.0333,1.977,1.9649,1.9462,1.9407,1.9407,1.9407,1.9407,1.2637,1.2929,1.2871,1.3752,1.4165,1.4054,1.2893,1.317,1.3328,1.1959,0.0,1.0626,0.9677,0.0,1.2763,1.2135,0.0,1.7049,1.6823,1.765,1.8327,1.8327,1.8882,1.9272,1.9272,1.9482,1.9739,1.9897,1.9543,1.899,1.814,1.7841,1.786,1.814,1.8162,1.8338,1.8679,1.8209,1.8015,1.7975,1.792,1.7523,1.6719,1.6719,1.6208,1.536,0.0,0.0,1.7901,2.3861,2.6342,2.6778,3.0576,3.1707,3.1096,3.0457,2.9839,2.9353,2.9307,2.9181,2.9126,2.9829,2.9929,3.0096,3.1662,3.22,3.2383,3.3159,3.3405,3.3441,3.3441,3.3255,3.2961,3.2672,3.235,3.1586,2.978,3.0093,3.0418,2.9306,2.8388,2.7789,2.7789,2.775,2.781,2.781,2.7326,2.6934,2.691,2.605,2.5544,2.5674,2.5043,2.4475,2.4096,2.3418,2.2957,2.2917,2.3,2.2916,2.2579,2.1815,2.106,2.0268,1.9518,1.9075,1.9075,1.9075,1.9075,1.9075,1.9075,1.9075,1.2627,1.3263,1.3661,1.3655,1.3637,1.347,1.2915,1.2742,0.0,0.0,0.0,1.0456,0.8764,1.0079,0.0,1.3004,0.0,0.0,0.0,0.0,1.8934,0.0,0.0,0.0,0.0,0.0,0.0,0.0,0.0,2.0257,1.958,1.9043,1.8674,1.8526,1.7893,1.7673,1.7965,1.7665,1.7512,1.7445,1.7145,1.6807,1.64,1.6161,1.5575,1.4805,1.4716,0.0,1.4961,2.0433,2.2924,2.375,2.8551,3.0236,2.9948,2.9357,2.8931,2.8597,2.87,2.8737,2.8737,2.9093,2.9491,2.987,3.022,3.081,3.1374,3.1581,3.211,3.2593,3.2593,3.2643,3.2654,3.2588,3.1742,3.0801,3.0435,3.0128,2.9919,2.997,2.9096,2.8302,2.8135,2.7856,2.7729,2.7931,2.7243,2.6873,2.7391,2.681,2.6351,2.6292,2.5759,2.5352,2.5298,2.416,2.3489,2.3475,2.3475,2.3204,2.2482,2.1753,2.0996,2.0161,1.9452,1.9075,1.9075,1.9075,1.9075,1.9075,1.9075,1.9075,1.1908,1.2383,1.28,1.2792,1.3102,1.3058,1.1654,0.0,0.0,0.0,0.0,0.9004,0.8023,0.0,0.0,0.0,0.0,0.0,0.0,0.0,0.0,0.0,0.0,0.0,0.0,0.0,0.0,0.0,0.0,2.0045,1.9499,1.9628,1.9405,1.874,1.8741,1.8425,1.7812,1.778,1.7373,1.6677,1.6992,1.6743,1.6114,1.6184,1.5684,1.4647,1.4181,0.0,1.4136,1.8246,2.1182,2.3414,2.7211,2.9439,3.042,2.9942,2.9526,2.9101,2.8954,2.8874,2.8838,2.8667,2.8855,2.9293,3.0249,3.0775,3.1193,3.1924,3.2506,3.2871,3.2642,3.2811,3.293,3.2555,3.1358,3.0455,3.083,3.0175,2.9575,2.9807,2.9386,2.8804,2.8249,2.843,2.8592,2.8196,2.7868,2.7674,2.7575,2.718,2.6911,2.6825,2.5937,2.5398,2.5398,2.4234,2.345,2.3318,2.3125,2.2616,2.1753,2.106,2.0355,1.9584,1.9264,1.9075,1.9075,1.9075,1.9075,1.9075,1.9075,1.9075,1.1378,1.1799,1.2157,1.2308,1.2909,1.2863,1.0755,1.0625,0.0,0.0,0.77,0.7757,0.7655,0.0,0.0,0.0,0.0,0.0,0.0,0.0,0.0,0.0,0.0,0.0,0.0,0.0,0.0,0.0,0.0,0.0,1.9386,1.9899,1.99,1.9256,1.9742,1.9345,1.808,1.8218,1.7585,1.6265,1.6884,1.6794,1.6024,1.6178,1.573,1.4796,1.4282,0.0,0.0,1.7147,2.0443,2.3858,2.6473,2.9053,3.1257,3.08,3.0341,2.9872,2.9354,2.9169,2.9027,2.8568,2.8407,2.8719,3.0305,3.0894,3.1247,3.2469,3.3069,3.3304,3.2876,3.2925,3.2912,3.2179,3.1116,3.042,3.0993,3.0264,2.9479,2.9497,2.9411,2.9056,2.8335,2.8936,2.9243,2.8448,2.84,2.8255,2.7515,2.7188,2.7011,2.6841,2.5837,2.5231,2.5231,2.406,2.3271,2.3198,2.2763,2.2063,2.1049,2.0537,1.9835,1.9065,1.9075,1.9075,1.9075,1.9065,1.9065,1.9075,1.9065,1.9075,1.1809,1.2604,1.3278,1.3435,1.3515,1.3124,1.1488,0.0,0.0,0.8139,0.7882,0.8056,0.8056,0.8765,0.0,0.0,0.0,0.0,0.0,0.0,0.0,0.0,0.0,0.0,0.0,0.0,0.0,0.0,0.0,0.0,2.028,1.9849,1.9953,2.069,2.0246,1.9632,1.8915,1.891,1.8201,1.6743,1.6488,1.6437,1.6427,1.5812,1.5336,1.5121,1.4675,0.0,0.0,1.7455,2.0798,2.4189,2.6562,2.9193,3.1596,3.106,3.0661,3.0243,2.9461,2.9183,2.9136,2.8858,2.8464,2.8362,2.9494,3.0396,3.1184,3.1957,3.2733,3.3232,3.2798,3.2419,3.1932,3.1179,3.0942,3.0828,3.0895,3.046,2.9943,2.9636,2.9252,2.8887,2.867,2.8732,2.8732,2.8511,2.8076,2.763,2.7174,2.6811,2.6283,2.5618,2.5342,2.5231,2.5342,2.3872,2.309,2.333,2.303,2.2249,2.0887,2.076,2.0128,1.8875,1.8808,1.8808,1.8808,1.9008,1.9008,1.8808,1.9008,1.9008,1.184,1.2443,1.2861,1.2694,1.2582,1.2169,1.0952,0.0,0.9282,0.7875,0.7354,0.736,0.8093,0.8224,0.8847,0.0,0.0,0.0,0.0,0.0,0.0,0.0,0.0,0.0,0.0,0.0,0.0,0.0,0.0,0.0,2.0381,2.0171,2.007,2.0116,2.0109,1.9736,1.8967,1.908,1.8417,1.6989,1.7244,1.7153,1.6599,1.622,1.5734,1.518,1.4616,0.0,0.0,1.5476,1.9158,2.4081,2.5031,2.8101,3.2007,3.2032,3.1643,3.0955,2.979,2.94,2.9243,2.8347,2.8137,2.8548,3.0273,3.1171,3.169,3.225,3.3118,3.3741,3.309,3.2956,3.2723,3.1688,3.1275,3.0964,3.0492,3.0081,2.9717,2.9512,2.9332,2.9028,2.8365,2.8653,2.8622,2.7665,2.7615,2.7429,2.6616,2.6418,2.6258,2.5988,2.5342,2.4768,2.4368,2.3471,2.2909,2.2982,2.2125,2.1353,2.0707,2.0009,1.9309,1.8607,1.8741,1.8741,1.8617,1.8684,1.8684,1.8617,1.8684,1.8684,1.1715,1.2372,1.2852,1.2567,1.227,1.1745,0.0,0.0,0.8612,0.7633,0.6945,0.6814,0.7875,0.7983,0.8389,0.9841,0.0,1.1463,0.0,0.0,0.0,0.0,0.0,0.0,0.0,0.0,0.0,0.0,0.0,0.0,0.0,2.022,2.0104,1.978,2.0028,1.9839,1.9045,1.9147,1.8649,1.7578,1.7777,1.7647,1.7169,1.6756,1.6149,1.5508,0.0,0.0,0.0,1.4156,1.7425,2.2462,2.2462,2.5885,3.0886,3.1286,3.1456,3.1328,3.0212,2.9679,2.9368,2.8587,2.8608,2.9281,3.1038,3.171,3.1977,3.2556,3.3288,3.3826,3.3467,3.3219,3.2873,3.2021,3.1347,3.0713,3.0166,2.9624,2.921,2.9134,2.8996,2.8748,2.8103,2.8477,2.8383,2.7108,2.7261,2.7174,2.6165,2.6111,2.6056,2.5948,2.5063,2.431,2.393,2.3185,2.2726,2.269,2.1815,2.1026,2.0526,1.9704,1.8998,1.8482,1.8607,1.8607,1.8414,1.8482,1.8482,1.8414,1.8482,1.8482,1.1325,1.2528,1.3573,1.3563,1.3062,1.2274,0.0,0.0,0.8587,0.7522,0.6877,0.6701,0.7389,0.8154,0.8862,0.0,0.0,0.0,0.0,0.0,0.0,0.0,0.0,0.0,0.0,0.0,0.0,0.0,0.0,0.0,0.0,1.9798,1.9914,2.0182,2.0182,1.9926,1.9408,1.9291,1.9012,1.8692,1.7839,1.7746,1.8361,1.7233,1.6525,0.0,0.0,0.0,0.0,1.426,1.595,1.8873,1.8873,2.246,2.7691,2.8097,2.9511,3.1159,3.0734,3.011,2.9558,2.9969,3.0265,3.064,3.1541,3.1672,3.172,3.2715,3.2949,3.3083,3.3783,3.2964,3.1931,3.1884,3.0911,3.0006,2.999,2.9138,2.8352,2.8463,2.8155,2.7855,2.7955,2.8103,2.791,2.7004,2.7019,2.6811,2.6002,2.5784,2.5508,2.5061,2.4279,2.3975,2.4452,2.3233,2.2482,2.269,2.2482,2.1765,2.0333,2.0268,1.9694,1.8337,1.8269,1.8269,1.8269,1.8414,1.8405,1.8337,1.8414,1.8414,1.1227,1.1901,1.2246,1.2246,1.1777,1.1149,1.0375,0.0,0.8344,0.7588,0.7089,0.6963,0.7601,0.765,0.8215,0.0,0.0,0.0,0.0,0.0,0.0,0.0,0.0,0.0,0.0,0.0,0.0,0.0,0.0,0.0,0.0,2.0057,2.0095,1.9914,1.9862,1.9759,1.9656,1.9724,1.9682,1.9599,1.9086,1.9061,1.9587,1.9403,0.0,0.0,0.0,0.0,0.0,1.6655,1.8122,2.0201,2.1743,2.4784,2.8495,3.0246,3.1267,3.1724,3.0889,3.0455,3.0179,2.9691,2.9873,3.035,3.1045,3.1602,3.2125,3.2827,3.3121,3.3383,3.4049,3.3421,3.2386,3.1598,3.0494,2.9461,2.8947,2.836,2.8057,2.8431,2.822,2.7955,2.8005,2.7675,2.7276,2.6707,2.6322,2.5892,2.5328,2.5467,2.5481,2.5369,2.4408,2.3741,2.3564,2.2811,2.2359,2.2371,2.1975,2.1451,2.0858,2.0085,1.9365,1.8787,1.8462,1.8212,1.8076,1.8144,1.8144,1.8076,1.8144,1.8144,0.0,1.1085,1.1453,1.1667,1.1159,0.0,0.0,0.0,0.7904,0.7381,0.7071,0.7045,0.7518,0.7473,0.7983,0.9825,0.0,0.0,0.0,0.0,0.0,0.0,0.0,0.0,0.0,0.0,0.0,0.0,0.0,0.0,0.0,2.0032,1.9911,1.9668,1.9763,1.9775,1.9656,1.9699,1.9812,1.9977,1.9448,1.9471,1.9861,1.9987,0.0,0.0,0.0,0.0,0.0,1.7122,1.7983,1.9037,2.07,2.3122,2.6007,2.8317,2.9655,3.0324,3.0698,3.0634,3.0377,3.008,3.0258,3.0573,3.1005,3.174,3.2593,3.3231,3.3522,3.3768,3.4526,3.3625,3.2313,3.1652,3.0235,2.8875,2.8449,2.7991,2.7825,2.8091,2.7974,2.779,2.7524,2.724,2.6797,2.6176,2.5783,2.5467,2.5061,2.5061,2.5188,2.5313,2.4363,2.3577,2.3207,2.2567,2.2235,2.2197,2.1862,2.1526,2.1135,2.0409,1.9824,1.9441,1.8854,1.8529,1.8405,1.8134,1.8008,1.8008,1.8008,1.8008,0.0,1.0049,1.0979,1.1513,1.0888,1.0012,0.0,0.0,0.0,0.7009,0.6924,0.701,0.7307,0.7587,0.8101,0.0,0.0,0.0,0.0,0.0,0.0,0.0,0.0,0.0,0.0,0.0,0.0,0.0,0.0,0.0,0.0,1.9758,1.9405,1.938,1.9895,1.992,1.938,1.9312,1.9485,1.997,1.9212,1.9068,1.9572,1.9467,0.0,0.0,0.0,0.0,0.0,1.6305,1.6325,1.6296,1.6963,1.878,2.1358,2.3569,2.5578,2.7542,3.0119,3.0543,3.0097,3.093,3.119,3.119,3.1218,3.1931,3.2886,3.3632,3.3837,3.4018,3.4834,3.3389,3.1685,3.1844,3.0042,2.836,2.836,2.7972,2.7575,2.7625,2.7575,2.7423,2.6826,2.6759,2.6467,2.5508,2.5467,2.5356,2.5005,2.4694,2.4637,2.4948,2.4144,2.3543,2.3314,2.2445,2.1999,2.2185,2.2185,2.1862,2.1198,2.1071,2.0741,2.0172,1.9375,1.8977,1.8977,1.8327,1.794,1.794,1.794,1.794,0.7507,0.0,0.8701,0.8944,0.8839,0.8597,0.0,0.0,0.0,0.0,0.0,0.7243,0.7879,0.7675,0.8059,0.0,0.0,0.0,0.0,0.0,0.0,0.0,0.0,0.0,0.0,0.0,0.0,0.0,0.0,0.0,0.0,1.992,1.9648,1.9235,1.9679,1.9703,1.9235,1.9504,1.9715,1.9836,1.9471,1.9629,2.033,2.0501,0.0,0.0,0.0,0.0,1.8077,1.8539,1.8234,1.7748,1.9542,2.0882,2.2046,2.4358,2.5522,2.6217,2.8332,2.8932,2.9061,3.0559,3.1072,3.1015,3.0764,3.0905,3.1137,3.1182,3.1709,3.2171,3.189,3.1195,3.0546,3.0373,2.8931,2.7639,2.7639,2.7556,2.7488,2.7575,2.7539,2.7321,2.6916,2.6428,2.5892,2.5342,2.4808,2.4447,2.4332,2.4421,2.4523,2.4637,2.4105,2.3623,2.3314,2.2689,2.2173,2.1987,2.1874,2.1812,2.1726,2.1083,2.0635,2.0506,1.9396,1.8787,1.8643,1.8046,1.7725,1.7608,1.7716,1.7725,0.6748,0.7473,0.8181,0.854,0.8471,0.8279,0.8267,0.0,0.0,0.0,0.0,0.0,0.7945,0.0,0.0,0.0,0.0,0.0,0.0,0.0,0.0,0.0,0.0,0.0,0.0,0.0,0.0,0.0,0.0,0.0,0.0,1.9691,1.9407,1.9129,1.9329,1.9341,1.9117,1.9329,1.942,1.942,1.9269,1.9369,1.9694,2.0107,1.9843,0.0,0.0,0.0,1.8416,1.892,1.8924,1.874,1.9978,2.0729,2.1356,2.3291,2.4135,2.4577,2.651,2.7673,2.865,3.0387,3.0757,3.0535,3.0435,3.0107,2.981,3.0359,3.0935,3.1374,3.0927,3.023,2.9577,2.9296,2.8192,2.7196,2.7144,2.7248,2.7335,2.7423,2.7335,2.7049,2.6322,2.5892,2.5412,2.4708,2.4216,2.3936,2.4054,2.4157,2.4144,2.4015,2.378,2.3352,2.2713,2.2384,2.2037,2.1812,2.1761,2.1761,2.1812,2.1371,2.0775,2.0172,1.9187,1.8462,1.8056,1.7716,1.7598,1.747,1.7598,1.7598,0.6379,0.7424,0.8502,0.8819,0.8551,0.8311,0.8632,0.0,0.0,0.0,0.0,0.0,0.0,0.0,0.0,0.0,0.0,0.0,0.0,0.0,0.0,0.0,0.0,0.0,0.0,0.0,0.0,0.0,0.0,0.0,0.0,1.9344,1.8951,1.8867,1.8951,1.8915,1.8706,1.8915,1.8999,1.8934,1.8893,1.8721,1.8518,1.8931,1.8598,0.0,0.0,0.0,1.813,1.837,1.8851,1.9408,1.9342,1.9648,2.0225,2.1442,2.2111,2.2793,2.4942,2.6991,2.8885,3.0331,3.041,2.9968,3.0038,2.9406,2.8905,2.9989,3.0577,3.0773,3.0597,2.9709,2.8731,2.8486,2.7669,2.6951,2.6846,2.6989,2.7181,2.7181,2.7181,2.6817,2.5689,2.5536,2.5184,2.4242,2.3957,2.3919,2.4138,2.4079,2.3803,2.3463,2.3403,2.2957,2.2002,2.1877,2.1839,2.1635,2.1635,2.1635,2.1635,2.1498,2.0892,1.9694,1.8972,1.8251,1.7598,1.7527,1.7536,1.7401,1.7536,1.7565,0.6264,0.7622,0.8666,0.7413,0.725,0.7474,0.7797,0.0,0.0,0.0,0.0,0.0,0.0,0.0,0.0,0.0,0.0,0.0,0.0,0.0,0.0,0.0,0.0,0.0,0.0,0.0,0.0,0.0,0.0,0.0,0.0,1.9251,1.8782,1.8338,1.8758,1.8462,1.739,1.845,1.8893,1.8667,1.8344,1.8193,1.8139,1.779,1.789,0.0,0.0,1.7904,1.8523,1.7791,1.825,1.9375,1.896,1.9353,2.015,2.0341,2.0488,2.0994,2.4367,2.7633,3.0326,3.0162,2.9984,2.9705,2.915,2.8732,2.8542,2.8585,2.8863,2.9093,2.8633,2.8291,2.7886,2.7594,2.7174,2.6846,2.6951,2.7003,2.7041,2.7181,2.7093,2.6818,2.6188,2.6114,2.5873,2.5211,2.5051,2.4934,2.4667,2.4407,2.4106,2.3454,2.3271,2.2823,2.1939,2.1877,2.1702,2.1296,2.1296,2.1296,2.1296,2.07,2.0237,2.0031,1.9223,1.8547,1.7901,1.7811,1.7459,1.6987,1.7549,1.7636,0.5974,0.6901,0.7656,0.7446,0.8157,0.9107,0.971,0.0,0.0,0.0,0.0,0.0,0.0,0.0,0.0,0.0,0.0,0.0,0.0,0.0,0.0,0.0,0.0,0.0,0.0,0.0,0.0,0.0,0.0,0.0,0.0,0.0,1.8274,1.7609,1.7823,1.7757,1.7252,1.7861,1.8084,1.7938,1.8055,1.803,1.7877,1.7656,1.7612,1.78,0.0,1.7671,1.8283,1.7846,1.8359,1.9364,1.8884,1.9288,2.0189,2.1167,2.1356,2.165,2.5486,2.7847,2.9276,2.9736,2.9661,2.9303,2.8732,2.8383,2.8122,2.8088,2.8267,2.8369,2.805,2.7748,2.7497,2.7211,2.6893,2.6645,2.6698,2.6832,2.6884,2.6989,2.6937,2.6808,2.6553,2.6238,2.5932,2.5769,2.5307,2.4785,2.4079,2.3879,2.3281,2.2185,2.2002,2.1616,2.0985,2.0921,2.1008,2.1158,2.1221,2.1221,2.1221,2.0751,2.0279,1.9878,1.9364,1.8796,1.8043,1.797,1.7825,1.7568,1.7834,1.7917,0.5683,0.6303,0.6966,0.7984,0.8988,1.0037,1.1204,0.0,0.0,0.0,0.0,0.0,0.0,0.0,0.0,0.0,0.0,0.0,0.0,0.0,0.0,0.0,0.0,0.0,0.0,0.0,0.0,0.0,0.0,0.0,0.0,0.0,1.7654,1.694,1.6985,1.6915,1.6791,1.7031,1.7271,1.7448,1.7847,1.7877,1.7601,1.7601,1.749,1.7278,1.7278,1.7562,1.7999,1.7879,1.8392,1.92,1.872,1.9047,1.9992,2.165,2.2306,2.2868,2.6416,2.7844,2.8251,2.9303,2.9303,2.8842,2.8463,2.8057,2.779,2.7905,2.8054,2.8088,2.784,2.7488,2.7181,2.6959,2.6683,2.6404,2.6472,2.6592,2.6674,2.6674,2.6789,2.6917,2.6891,2.6452,2.6109,2.6301,2.5652,2.4816,2.3825,2.3484,2.2771,2.1296,2.0974,2.0602,2.0161,2.0096,2.0302,2.0764,2.07,2.0635,2.056,2.0421,2.006,1.9292,1.9203,1.8777,1.8128,1.821,1.821,1.8128,1.8219,1.8265,0.5411,0.6467,0.7671,0.8687,0.8306,0.0,1.0311,1.0167,0.0,0.0,0.0,0.0,0.0,0.0,0.0,0.0,0.0,0.0,0.0,0.0,0.0,0.0,0.0,0.0,0.0,0.0,0.0,0.0,0.0,0.0,0.0,0.0,0.0,1.6374,1.6616,1.6138,1.4922,1.5867,1.6841,1.7655,1.7689,1.7601,1.7334,1.7334,1.7334,1.7278,1.7278,1.7562,1.7977,1.7518,1.789,1.8698,1.8239,1.8359,1.898,2.0483,2.2024,2.3725,2.6064,2.7666,2.8682,2.9013,2.8779,2.8304,2.7974,2.7725,2.7625,2.779,2.7905,2.7955,2.7675,2.71,2.6563,2.6683,2.6418,2.6165,2.6286,2.634,2.634,2.634,2.6866,2.7229,2.7187,2.7012,2.6944,2.6956,2.6476,2.5772,2.4831,2.4136,2.3268,2.1984,2.1101,2.0473,2.0096,2.0096,1.9901,1.9431,1.9166,1.89,1.87,1.8735,1.8623,1.8392,1.863,1.8561,1.8128,1.8495,1.8485,1.8137,1.8495,1.8669,0.5059,0.6027,0.7088,0.7969,0.0,0.0,0.0,0.0,0.0,0.0,0.0,0.0,0.0,0.0,0.0,0.0,0.0,0.0,0.0,0.0,0.0,0.0,0.0,0.0,0.0,0.0,0.0,0.0,0.0,0.0,0.0,0.0,0.0,1.5325,1.5391,1.5269,1.4927,1.5339,1.5857,1.6541,1.6817,1.7082,1.7278,1.7278,1.7278,1.7278,1.7278,1.7387,1.754,1.7355,1.766,1.8272,1.8392,1.9508,2.1128,2.2148,2.3611,2.5418,2.7652,2.8863,2.935,2.9162,2.8732,2.8207,2.781,2.7625,2.7625,2.7675,2.779,2.7855,2.784,2.7575,2.7269,2.7167,2.6803,2.6418,2.634,2.6286,2.6286,2.6286,2.6526,2.6901,2.7667,2.7053,2.6717,2.7525,2.6782,2.5654,2.408,2.338,2.2486,2.1139,2.0122,1.9131,1.8172,1.8017,1.793,1.8011,1.8718,1.9024,1.8813,1.9183,1.9193,1.8815,1.923,1.9155,1.8491,1.8635,1.8635,1.8491,1.8635,1.8707,0.5263,0.597,0.6845,0.0,0.0,0.0,0.0,0.0,0.0,0.0,0.0,0.0,0.0,0.0,0.0,0.0,0.0,0.0,0.0,0.0,0.0,0.0,0.0,0.0,0.0,0.0,0.0,0.0,0.0,0.0,0.0,0.0,0.0,0.0,1.4466,1.4443,1.4526,1.4526,1.4761,1.519,1.5595,1.6224,1.7071,1.7713,1.7725,1.7346,1.7772,1.7971,1.7946,1.7515,1.7775,1.8521,1.8812,2.0207,2.2132,2.3309,2.4081,2.4943,2.7879,2.8335,2.7695,2.8275,2.8013,2.7469,2.7311,2.741,2.7625,2.7625,2.7675,2.7795,2.7648,2.7689,2.769,2.7488,2.7049,2.6578,2.6379,2.6272,2.6181,2.6146,2.6174,2.6442,2.729,2.6585,2.6167,2.6777,2.637,2.5359,2.3612,2.2926,2.2045,2.0413,1.9535,1.863,1.7699,1.7398,1.7171,1.716,1.8174,1.8695,1.8342,1.8899,1.905,1.8687,1.9238,1.9222,1.87,1.8442,1.8282,1.8282,1.8023,1.7853,0.6109,0.6496,0.0,0.0,0.0,0.0,0.0,0.0,0.0,0.0,0.0,0.0,0.0,0.0,0.0,0.0,0.0,0.0,0.0,0.0,0.0,0.0,0.0,0.0,0.0,0.0,0.0,0.0,0.0,0.0,0.0,0.0,0.0,0.0,1.3952,1.3621,1.3218,1.3218,1.3439,1.3892,1.4031,1.4938,1.6543,1.8548,1.8673,1.7412,1.8877,1.9524,1.9424,1.7922,1.819,1.9524,1.9524,2.0164,2.1371,2.3494,2.2933,2.1784,2.6214,2.56,2.33,2.6165,2.6462,2.5811,2.6404,2.7036,2.761,2.761,2.7675,2.764,2.6977,2.7195,2.7625,2.756,2.7034,2.6496,2.651,2.6204,2.5855,2.5836,2.586,2.5859,2.5792,2.5678,2.5306,2.4502,2.5078,2.5119,2.3723,2.3151,2.2122,1.998,1.9423,1.9195,1.9185,1.8765,1.8175,1.7186,1.7486,1.7428,1.6927,1.7655,1.802,1.7804,1.8338,1.87,1.87,1.7781,1.7359,1.7359,1.6429,1.6003,0.4849,0.6381,0.0,0.0,0.0,0.0,0.0,0.0,0.0,0.0,0.0,0.0,0.0,0.0,0.0,0.0,0.0,0.0,0.0,0.0,0.0,0.0,0.0,0.0,0.0,0.0,0.0,0.0,0.0,0.0,0.0,0.0,0.0,0.0,1.3409,1.3314,1.3218,1.3218,1.339,1.3851,1.4031,1.4626,1.575,1.776,1.8557,1.847,2.0274,2.1053,2.102,2.0578,2.0661,2.1015,2.0631,2.131,2.245,2.2057,2.2909,2.4282,2.4288,2.4681,2.5282,2.5754,2.5793,2.5719,2.6195,2.6572,2.6886,2.6886,2.7265,2.7525,2.6816,2.7195,2.7455,2.6381,2.6025,2.5897,2.5809,2.5702,2.5772,2.6411,2.612,2.5945,2.6452,2.5974,2.5453,2.5306,2.4939,2.408,2.228,2.1865,2.0969,1.8877,1.8648,1.8233,1.7269,1.6741,1.6478,1.6493,1.6587,1.6587,1.6447,1.725,1.735,1.6636,1.7066,1.6952,1.6386,1.6131,1.5966,1.5966,1.5711,1.5545,0.5821,0.0,0.0,0.0,0.0,0.0,0.0,0.0,0.0,0.0,0.0,0.0,0.0,0.0,0.0,0.0,0.0,0.0,0.0,0.0,0.0,0.0,0.0,0.0,0.0,0.0,0.0,0.0,0.0,0.0,0.0,0.0,0.0,0.0,1.2987,1.2939,1.2745,1.2745,1.2958,1.3343,1.3503,1.3974,1.4834,1.7821,1.8732,1.8038,1.9982,2.0488,1.9998,2.0582,2.082,2.0785,2.0481,2.1147,2.2272,2.2029,2.2357,2.3031,2.379,2.3941,2.3971,2.4971,2.521,2.517,2.545,2.5878,2.6258,2.6512,2.6871,2.7036,2.6378,2.6789,2.718,2.6253,2.609,2.6176,2.6065,2.5743,2.5674,2.6297,2.5625,2.513,2.5862,2.5357,2.4816,2.4742,2.4225,2.3279,2.1744,2.1182,2.0416,1.8824,1.8246,1.7656,1.6801,1.6331,1.5952,1.5744,1.5913,1.5751,1.5101,1.6645,1.6992,1.6131,1.6453,1.6206,1.5394,1.4887,1.4629,1.472,1.4223,1.4055,0.0,0.0,0.0,0.0,0.0,0.0,0.0,0.0,0.0,0.0,0.0,0.0,0.0,0.0,0.0,0.0,0.0,0.0,0.0,0.0,0.0,0.0,0.0,0.0,0.0,0.0,0.0,0.0,0.0,0.0,0.0,0.0,0.0,1.2627,1.252,1.2372,1.2076,1.2076,1.2296,0.0,1.277,1.3229,1.4129,1.8286,1.901,1.7082,1.8912,1.8959,1.7799,1.9148,1.9625,1.9507,1.9594,2.014,2.1062,2.2519,2.1348,1.9589,2.3707,2.3048,2.09,2.3857,2.4557,2.4277,2.4539,2.4942,2.5515,2.6294,2.6542,2.6452,2.5854,2.6294,2.6823,2.6714,2.6707,2.6709,2.6782,2.6042,2.5492,2.5778,2.4708,2.3943,2.4658,2.4284,2.3792,2.3397,2.3112,2.2574,2.168,2.0894,2.0041,1.9292,1.8006,1.7269,1.7269,1.6632,1.5891,1.488,1.5115,1.4615,1.3215,1.5718,1.6722,1.5801,1.6034,1.5779,1.4963,1.3782,1.3203,1.3307,1.2198,1.1785,0.0,0.0,0.0,0.0,0.0,0.0,0.0,0.0,0.0,0.0,0.0,0.0,0.0,0.0,0.0,0.0,0.0,0.0,0.0,0.0,0.0,0.0,0.0,0.0,0.0,0.0,0.0,0.0,0.0,0.0,0.0,0.0,0.0,1.2224,1.1342,1.1292,1.2076,1.1678,1.2024,0.0,1.2905,1.3381,1.4452,1.6665,1.8551,2.0088,2.0888,2.1053,2.0779,2.1099,2.053,1.9578,2.0318,2.0029,1.9253,1.9612,1.9776,1.978,1.9321,2.0396,2.2056,2.2335,2.2711,2.3265,2.4366,2.4146,2.3852,2.5234,2.6087,2.6557,2.6422,2.692,2.7181,2.6167,2.5669,2.5483,2.5671,2.5189,2.4939,2.572,2.5319,2.4937,2.5154,2.5073,2.4578,2.3307,2.252,2.1517,1.9991,1.9687,1.9204,1.8399,1.6927,1.6034,1.6034,1.4176,1.2917,1.2668,1.2043,1.1525,1.1198,1.3833,1.4706,1.3457,1.3866,1.3256,1.1632,1.1381,1.0865,1.0322,0.9989,0.9828,0.0,0.0,0.0,0.0,0.0,0.0,0.0,0.0,0.0,0.0,0.0,0.0,0.0,0.0,0.0,0.0,0.0,0.0,0.0,0.0,0.0,0.0,0.0,0.0,0.0,0.0,0.0,0.0,0.0,0.0,0.0,1.185,1.1543,1.1292,1.0728,1.0759,1.1516,1.1584,1.2078,1.3123,1.2946,1.3079,1.3588,1.5324,1.7205,1.9149,1.922,1.9085,1.8814,1.9387,1.9163,1.8478,1.8989,1.8699,1.8068,1.8549,1.8729,1.8773,1.8964,1.9917,2.1092,2.1336,2.1642,2.1998,2.2264,2.2429,2.2733,2.3644,2.4742,2.5719,2.6033,2.6602,2.6842,2.5625,2.5488,2.559,2.5439,2.4951,2.4611,2.4978,2.4491,2.4045,2.4117,2.3746,2.3029,2.1855,2.1018,2.01,1.8807,1.8327,1.7747,1.7009,1.5786,1.4963,1.4636,1.3008,1.1901,1.1558,1.0682,0.999,0.9653,1.0935,1.1632,1.1381,1.1707,1.1193,0.9908,0.9744,0.9504,0.9238,0.9335,0.9302,0.0,0.0,0.0,0.0,0.0,0.0,0.0,0.0,0.0,0.0,0.0,0.0,0.0,0.0,0.0,0.0,0.0,0.0,0.0,0.0,0.0,0.0,0.0,0.0,0.0,0.0,0.0,0.0,0.0,0.0,1.141,1.1167,1.0846,1.0415,1.0272,1.0444,1.0885,1.1387,1.2041,1.2722,1.2789,1.272,1.2573,1.4076,1.5342,1.6421,1.6216,1.5833,1.538,1.6539,1.7032,1.7032,1.7155,1.7155,1.7267,1.795,1.7733,1.7352,1.9336,1.9703,1.9389,2.0296,2.0584,2.0476,1.9922,2.0448,2.1358,2.2044,2.3244,2.4568,2.5483,2.6225,2.649,2.5543,2.5696,2.5877,2.5204,2.4597,2.4093,2.37,2.3026,2.2448,2.2462,2.1691,2.0814,2.0062,1.9358,1.8497,1.7568,1.6846,1.6108,1.5011,1.428,1.3542,1.2778,1.1729,1.0864,1.0351,0.9387,0.8607,0.8017,0.8017,0.836,0.9126,0.963,0.9543,0.8865,0.8476,0.8407,0.8572,0.8786,0.8506,0.0,0.0,0.0,0.0,0.0,0.0,0.0,0.0,0.0,0.0,0.0,0.0,0.0,0.0,0.0,0.0,0.0,0.0,0.0,0.0,0.0,0.0,0.0,0.0,0.0,0.0,0.0,0.0,0.0,0.0,1.072,1.0269,1.0115,1.0415,0.9724,0.9835,1.0885,1.0758,1.115,1.2062,1.2366,1.2525,1.2512,1.2749,1.3169,1.3729,1.4123,1.4209,1.42,1.5332,1.5803,1.5871,1.6503,1.6694,1.6641,1.6406,1.6182,1.6105,1.6442,1.7332,1.8297,1.8451,1.8501,1.8623,1.9337,1.8875,1.8647,2.1294,2.2642,2.3773,2.5756,2.6798,2.7151,2.6591,2.5847,2.4968,2.3955,2.3276,2.2665,2.2025,2.1704,2.1496,2.1308,2.0544,1.974,1.8858,1.8026,1.6993,1.5328,1.5433,1.4587,1.2122,1.1632,1.1123,1.0163,0.8519,0.7566,0.7573,0.6605,0.5988,0.6086,0.6094,0.6097,0.6269,0.7925,0.8273,0.7401,0.7441,0.7132,0.6444,0.6446,0.5551,0.0,0.0,0.0,0.0,0.0,0.0,0.0,0.0,0.0,0.0,0.0,0.0,0.0,0.0,0.0,0.0,0.0,0.0,0.0,0.0,0.0,0.0,0.0,0.0,0.0,0.0,0.0,0.0,0.0,1.0677,1.0167,0.9865,0.9666,0.9614,0.9072,0.9131,0.989,0.9849,0.988,0.9946,0.9675,0.9806,1.0229,1.0229,1.0996,1.232,1.3149,1.3262,1.302,1.42,1.4866,1.5245,1.5555,1.568,1.568,1.5816,1.5633,1.5391,1.5758,1.6298,1.6872,1.6872,1.6872,1.691,1.7034,1.727,1.7774,1.906,2.0932,2.2919,2.456,2.5898,2.6477,2.5094,2.441,2.3535,2.1436,2.1806,2.2394,2.1604,2.0839,2.019,1.9615,1.8824,1.7963,1.7066,1.5921,1.4851,1.4105,1.3678,1.2729,1.0758,1.0423,0.9904,0.8686,0.7379,0.6596,0.6688,0.527,0.4474,0.4565,0.4026,0.387,0.4375,0.6034,0.6754,0.6289,0.6341,0.5815,0.4645,0.5429,0.4994,0.0,0.0,0.0,0.0,0.0,0.0,0.0,0.0,0.0,0.0,0.0,0.0,0.0,0.0,0.0,0.0,0.0,0.0,0.0,0.0,0.0,0.0,0.0,0.0,0.0,0.0,0.0,0.0,0.0,1.0058,0.9566,0.9239,0.9116,0.9288,0.8726,0.8673,0.9231,0.8998,0.864,0.8222,0.7436,0.7579,0.8463,0.813,0.8965,1.0773,1.1997,1.2251,1.1888,1.302,1.3742,1.4177,1.4022,1.415,1.4414,1.4087,1.3859,1.3826,1.4545,1.4672,1.4613,1.5148,1.5157,1.4972,1.4619,1.5361,1.6399,1.6722,1.912,2.1882,2.3197,2.506,2.6214,2.4681,2.383,2.2538,1.964,2.0194,2.1079,2.0534,1.9175,1.7834,1.7098,1.6047,1.5058,1.4169,1.3074,1.2231,1.1975,1.1273,1.0144,0.8669,0.8313,0.7712,0.6441,0.5652,0.522,0.5338,0.3902,0.3174,0.3246,0.2264,0.2098,0.2675,0.3018,0.3668,0.4564,0.4587,0.4001,0.3036,0.4044,0.3886,0.0,0.0,0.0,0.0,0.0,0.0,0.0,0.0,0.0,0.0,0.0,0.0,0.0,0.0,0.0,0.0,0.0,0.0,0.0,0.0,0.0,0.0,0.0,0.0,0.0,0.0,0.0,0.0,0.0,0.8744,0.8854,0.8082,0.8391,1.0072,0.8937,0.8711,0.9583,0.8386,0.7797,0.7742,0.6885,0.7145,0.8463,0.7145,0.7274,0.872,1.0155,1.0744,1.0744,1.1826,1.2312,1.2296,1.1576,1.2081,1.2943,0.9837,0.9537,1.0712,1.137,1.1193,1.1036,1.2976,1.3183,1.2687,1.2634,1.2894,1.3532,1.4867,1.762,2.0568,2.2083,2.482,2.7188,2.7203,2.5218,2.2538,1.964,1.8262,1.7675,1.8027,1.5894,1.3824,1.331,1.1889,1.0514,0.9702,0.9447,0.9104,0.8245,0.7698,0.6643,0.4816,0.418,0.3405,0.2478,0.2117,0.2043,0.2269,0.199,0.188,0.221,0.1407,0.094,0.1016,-0.1971,-0.1799,0.1611,0.1643,0.1562,0.147,0.1397,0.0705,0.0,0.0,0.0,0.0,0.0,0.0,0.0,0.0,0.0,0.0,0.0,0.0,0.0,0.0,0.0,0.0,0.0,0.0,0.0,0.0,0.0,0.0,0.0,0.0,0.0,0.0,0.0,0.0,0.0,0.0,0.7959,0.748,0.744,0.7982,0.7678,0.7504,0.753,0.642,0.5595,0.5203,0.4207,0.4262,0.5235,0.4713,0.5232,0.6595,0.7113,0.7514,0.7921,0.835,0.8717,0.9018,0.8742,0.8989,0.931,0.8576,0.8339,0.8626,1.02,1.0588,1.067,1.2296,1.2696,1.2552,1.2782,1.2774,1.2948,1.4101,1.5867,1.7716,1.8843,2.1937,2.4619,2.3943,2.226,2.0164,1.791,1.7589,1.7724,1.7861,1.5835,1.3794,1.3006,1.1549,1.0177,0.9356,0.8674,0.8158,0.7815,0.6568,0.5333,0.4194,0.3337,0.2554,0.1751,0.1495,0.151,0.1616,0.0952,0.057,0.0659,-0.0852,-0.1811,-0.2013,-0.3184,-0.3195,-0.2032,-0.2435,-0.2851,-0.3285,-0.2906,-0.2714,0.0,0.0,0.0,0.0,0.0,0.0,0.0,0.0,0.0,0.0,0.0,0.0,0.0,0.0,0.0,0.0,0.0,0.0,0.0,0.0,0.0,0.0,0.0,0.0,0.0,0.0,0.0,0.0,0.0,0.0,0.709,0.664,0.6374,0.6327,0.6715,0.6737,0.6218,0.5219,0.4489,0.4025,0.2889,0.2815,0.3595,0.3002,0.3392,0.4495,0.4238,0.4966,0.6424,0.6424,0.6607,0.6979,0.6456,0.6452,0.6638,0.6157,0.5837,0.5982,0.7761,0.8212,0.8419,1.0691,1.1293,1.1303,1.2097,1.218,1.2187,1.3081,1.4528,1.6177,1.764,2.1308,2.4112,2.2227,2.0915,1.9393,1.6688,1.6546,1.6833,1.6321,1.4306,1.2137,1.0595,0.9044,0.757,0.6268,0.5577,0.5053,0.4777,0.3369,0.2138,0.1617,0.0728,-0.0092,-0.0657,-0.0761,-0.0769,-0.0774,-0.1357,-0.1644,-0.1633,-0.2994,-0.3791,-0.411,-0.4428,-0.464,-0.4843,-0.504,-0.5271,-0.5534,-0.5027,-0.4522,0.0,0.0,0.0,0.0,0.0,0.0,0.0,0.0,0.0,0.0,0.0,0.0,0.0,0.0,0.0,0.0,0.0,0.0,0.0,0.0,0.0,0.0,0.0,0.0,0.0,0.0,0.0,0.0,0.0,0.6445,0.616,0.5489,0.517,0.5389,0.6324,0.6515,0.5888,0.5024,0.4558,0.4558,0.3288,0.3078,0.3791,0.2076,0.1741,0.2462,0.1608,0.3135,0.6221,0.6225,0.6225,0.6094,0.4719,0.4644,0.5019,0.2272,0.1808,0.2723,0.3954,0.3901,0.4048,0.7999,0.8873,0.87,1.0424,1.0916,1.1036,1.1697,1.3568,1.6022,1.8783,2.3186,2.5997,2.2546,2.1728,2.0529,1.6105,1.5099,1.4624,1.3202,1.0891,0.8305,0.5758,0.3922,0.2237,0.0268,-0.0,-0.0357,-0.1244,-0.2314,-0.2964,-0.3115,-0.3959,-0.4593,-0.477,-0.4789,-0.4828,-0.4818,-0.4824,-0.4785,-0.4793,-0.4876,-0.4883,-0.489,-0.5877,-0.6437,-0.6437,-0.6139,-0.5634,-0.4924,-0.4924,-0.4924,0.2692,0.0,0.0,0.0,0.0,0.0,0.0,0.0,0.0,0.0,0.0,0.0,0.0,0.0,0.0,0.0,0.0,0.0,0.0,0.0,0.0,0.0,0.0,0.0,0.0,0.0,0.0,0.0,0.5729,0.5296,0.5128,0.4543,0.4485,0.4994,0.5329,0.5431,0.5355,0.4824,0.4156,0.3222,0.2482,0.1743,0.1071,0.047,0.0268,0.0469,-0.0268,0.02,0.1464,0.2336,0.2471,0.207,0.1673,0.1672,0.1803,0.1006,0.0872,0.1272,0.2656,0.2986,0.3253,0.573,0.6181,0.6217,0.8716,0.9008,0.8991,1.1268,1.2219,1.3623,1.8294,2.1942,2.3756,2.1198,2.0641,1.951,1.5081,1.2906,1.1872,1.1952,0.8954,0.611,0.5406,0.3383,0.1431,0.0179,-0.0,-0.0357,-0.1244,-0.2314,-0.2964,-0.3115,-0.401,-0.4664,-0.4776,-0.4847,-0.4798,-0.4822,-0.4824,-0.4812,-0.4787,-0.5515,-0.5917,-0.5986,-0.7018,-0.754,-0.754,-0.7437,-0.7338,-0.7132,-0.7132,-0.7132,0.0,0.0,0.0,0.0,0.0,0.0,0.6091,0.6787,0.7429,0.0,0.0,0.0,0.0,0.0,0.0,0.0,0.0,0.0,0.0,0.0,0.0,0.0,0.0,0.0,0.0,0.0,0.0,0.5422,0.4956,0.4599,0.4351,0.4068,0.4058,0.4553,0.4556,0.4622,0.4758,0.4561,0.3959,0.2883,0.2452,0.1593,0.0336,0.0066,-0.0333,-0.0874,-0.114,-0.134,-0.1475,-0.0603,-0.0268,-0.0402,-0.0402,-0.0335,-0.0268,-0.0268,-0.0201,0.0,0.1003,0.1402,0.1733,0.3643,0.4232,0.4581,0.6949,0.7414,0.7513,0.9439,1.0562,1.2521,1.8067,2.0886,2.1898,2.0458,2.0149,1.888,1.415,1.1278,0.9692,1.0173,0.7344,0.4519,0.3467,0.1786,0.0089,-0.1696,-0.1962,-0.2407,-0.3735,-0.48,-0.5466,-0.5577,-0.6534,-0.7146,-0.7283,-0.7423,-0.7502,-0.7502,-0.7502,-0.7502,-0.7502,-0.8107,-0.8411,-0.8411,-0.9011,-0.9316,-0.9316,-0.8432,-0.8038,-0.8038,-0.8038,-0.8237,0.0,0.0,0.0,0.0,0.0,0.0,0.6149,0.6501,0.6936,0.0,0.0,0.0,0.0,0.0,0.0,0.0,0.0,0.0,0.0,0.0,0.0,0.0,0.0,0.0,0.0,0.5066,0.4622,0.4233,0.4298,0.4191,0.389,0.3806,0.3857,0.4088,0.411,0.411,0.4164,0.4154,0.3742,0.2933,0.2659,0.1882,0.0666,0.0261,-0.0523,-0.1607,-0.1474,-0.2012,-0.309,-0.2813,-0.2274,-0.1672,-0.1737,-0.1606,-0.1274,-0.134,-0.1275,-0.1008,-0.0538,-0.0403,-0.0067,0.1666,0.2596,0.3343,0.5171,0.5863,0.6262,0.7048,0.9394,1.2854,1.7932,2.0308,2.115,2.0213,1.9961,1.8547,1.3295,0.9969,0.7996,0.8141,0.5817,0.3018,0.0806,-0.0358,-0.1789,-0.4465,-0.4999,-0.58,-0.7584,-0.8544,-0.9138,-0.9242,-1.0154,-1.0729,-1.0849,-1.1057,-1.1268,-1.117,-1.117,-1.117,-1.117,-1.117,-1.117,-1.117,-1.117,-1.117,-1.117,-0.9316,-0.8333,-0.8333,-0.8333,-0.8821,0.0,0.0,0.0,0.0,0.0,0.0,0.4876,0.5643,0.6348,0.0,0.0,0.0,0.0,0.0,0.0,0.0,0.0,0.0,0.0,0.0,0.0,0.0,0.0,0.0,0.0,0.4398,0.4288,0.4233,0.3934,0.3739,0.3651,0.3773,0.3819,0.3966,0.4066,0.3848,0.3418,0.3414,0.279,0.1492,0.1259,0.0748,-0.0126,-0.0895,-0.1358,-0.1692,-0.279,-0.342,-0.3692,-0.4156,-0.3416,-0.2078,-0.2679,-0.2144,-0.1209,-0.1744,-0.1611,-0.1076,-0.1008,-0.0941,-0.0806,0.0,0.0335,0.0871,0.3213,0.3939,0.4372,0.6405,1.1287,1.6185,1.7287,2.1584,2.4537,2.0144,1.9157,1.7684,1.2483,0.888,0.6713,0.6709,0.3707,0.0984,0.0448,-0.2139,-0.4532,-0.586,-0.7355,-0.8674,-0.9831,-1.0183,-1.0353,-1.0479,-1.0879,-1.1096,-1.1034,-1.1342,-1.1463,-1.117,-1.117,-1.117,-1.117,-1.117,-1.117,-1.117,-1.117,-1.117,-1.117,-1.0783,-1.0587,-1.0587,-1.0587,-1.0685,0.0,0.0,0.0,0.4608,0.0,0.0,0.0,0.5428,0.5846,0.0,0.0,0.0,0.0,0.0,0.0,0.0,0.0,0.0,0.0,0.0,0.0,0.0,0.0,0.0,0.0,0.4181,0.415,0.3996,0.3725,0.3634,0.3751,0.341,0.3304,0.3453,0.3164,0.2955,0.2623,0.2681,0.2139,0.107,0.0977,0.0546,-0.0185,-0.1001,-0.1523,-0.1931,-0.3067,-0.3772,-0.4215,-0.4552,-0.3986,-0.3017,-0.3818,-0.3282,-0.2012,-0.2414,-0.1879,-0.0942,-0.0942,-0.1009,-0.1008,-0.047,-0.0134,0.0403,0.1874,0.2593,0.3291,0.5287,0.9257,1.3516,1.6363,2.0407,2.2944,1.9664,1.8882,1.7478,1.2264,0.7643,0.4532,0.4417,0.0254,-0.2891,-0.1777,-0.4343,-0.69,-0.7781,-0.8744,-0.9712,-1.0692,-1.1219,-1.1532,-1.157,-1.2254,-1.2706,-1.2646,-1.3104,-1.3323,-1.3125,-1.3125,-1.3125,-1.2931,-1.3482,-1.4046,-1.4607,-1.4136,-1.4136,-1.4601,-1.4601,-1.3651,-1.1741,-1.1741,-1.2226,0.0,0.0,0.0,0.0,0.0,0.5321,0.0,0.0,0.0,0.0,0.0,0.0,0.0,0.0,0.0,0.0,0.0,0.0,0.0,0.0,0.0,0.0,0.0,0.0,0.0,0.3902,0.3895,0.3768,0.3423,0.3391,0.3672,0.2952,0.2634,0.2778,0.2306,0.2003,0.1911,0.1917,0.1585,0.0915,0.0887,0.0472,-0.0364,-0.0974,-0.1668,-0.2461,-0.3111,-0.3808,-0.4469,-0.4388,-0.4187,-0.3995,-0.4719,-0.413,-0.2882,-0.2948,-0.2149,-0.1011,-0.0876,-0.0942,-0.1008,-0.0605,0.0,0.0605,0.1277,0.1888,0.2737,0.4922,0.7576,1.1002,1.6395,1.981,2.1375,1.9391,1.8331,1.6346,1.1113,0.5634,0.1577,0.129,-0.3481,-0.6871,-0.4667,-0.6702,-0.8992,-0.9702,-1.0139,-1.0671,-1.1472,-1.2431,-1.2954,-1.2954,-1.4138,-1.484,-1.484,-1.5206,-1.5547,-1.5635,-1.5452,-1.535,-1.5343,-1.6264,-1.7196,-1.794,-1.7196,-1.7188,-1.8033,-1.8033,-1.6411,-1.3363,-1.3267,-1.404,0.0,0.0,0.0,0.0,0.5923,0.0,0.0,0.0,0.0,0.0,0.0,0.0,0.0,0.0,0.0,0.0,0.0,0.0,0.0,0.0,0.0,0.0,0.0,0.0,0.0,0.0,0.3096,0.3585,0.2595,0.226,0.2813,0.2368,0.2115,0.2138,0.2119,0.1779,0.1237,0.12,0.0827,0.0118,0.0115,-0.0507,-0.1581,-0.1807,-0.2481,-0.3549,-0.3721,-0.3899,-0.3974,-0.3944,-0.4142,-0.4335,-0.4586,-0.3868,-0.2753,-0.2954,-0.2487,-0.1682,-0.1211,-0.1076,-0.1076,-0.1008,-0.0336,0.0672,0.1749,0.2169,0.3105,0.693,1.0833,1.4894,1.9187,2.3178,2.4901,2.0052,1.6246,1.2357,0.7098,0.1605,-0.2442,-0.274,-0.6466,-0.8901,-0.7277,-0.9152,-1.1005,-1.1096,-1.2498,-1.3646,-1.3737,-1.4482,-1.5054,-1.5054,-1.6395,-1.7224,-1.7041,-1.6846,-1.6929,-1.7669,-1.6821,-1.6727,-1.7569,-1.7755,-1.7848,-1.8033,-1.7848,-1.7848,-1.8033,-1.8033,-1.7747,-1.7368,-1.6901,-1.6814,0.0,0.0,0.0,0.0,0.0,0.0,0.0,0.0,0.5839,0.0,0.0,0.0,0.0,0.0,0.0,0.0,0.0,0.0,0.0,0.0,0.0,0.0,0.0,0.0,0.0,0.0,0.0,0.0,0.0,0.1971,0.2296,0.1719,0.1385,0.1351,0.1052,0.0765,0.048,0.0465,0.0286,0.0,0.0,-0.0615,-0.1785,-0.1967,-0.2638,-0.3682,-0.3803,-0.3868,-0.3861,-0.3786,-0.3903,-0.4131,-0.4116,-0.3491,-0.2546,-0.2504,-0.1921,-0.1078,-0.0808,-0.0875,-0.1008,-0.0403,0.0605,0.1547,0.2085,0.2238,0.263,0.435,0.9577,1.4998,1.6704,2.0844,2.3031,1.6986,1.4828,1.1915,0.3672,-0.0076,-0.2578,-0.5212,-0.9113,-1.1821,-1.1379,-1.2219,-1.2936,-1.2936,-1.4048,-1.4824,-1.4824,-1.5643,-1.62,-1.6476,-1.7196,-1.7747,-1.7937,-1.7956,-1.8141,-1.8411,-1.7933,-1.8118,-1.933,-1.8588,-1.8864,-2.0158,-1.9604,-1.9604,-2.0158,-2.0158,-2.0158,-2.0158,-1.8964,-1.8596,0.4999,0.0,0.0,0.0,0.0,0.0,0.0,0.0,0.0,0.0,0.0,0.0,0.0,0.0,0.0,0.0,0.0,0.0,0.0,0.0,0.0,0.0,0.0,0.0,0.0,0.0,0.0,0.0,0.0,0.0,0.1679,0.1022,0.068,0.0637,0.0227,0.0,0.0,0.0,-0.0168,-0.0504,-0.0504,-0.1228,-0.2506,-0.2459,-0.3005,-0.3923,-0.3817,-0.3757,-0.3825,-0.3653,-0.3702,-0.3873,-0.3574,-0.299,-0.2291,-0.2196,-0.1565,-0.0667,-0.0538,-0.0606,-0.0672,0.0202,0.1143,0.1951,0.2154,0.2238,0.275,0.5009,0.996,1.5129,1.7359,1.961,1.9889,1.439,1.1595,0.7915,-0.044,-0.3242,-0.5024,-0.8269,-1.1421,-1.3722,-1.458,-1.4727,-1.465,-1.4496,-1.5304,-1.5959,-1.5801,-1.6535,-1.7245,-1.7595,-1.8132,-1.8589,-1.9032,-1.9126,-1.9247,-1.9247,-1.9239,-1.9695,-2.0619,-1.9786,-2.0068,-2.1642,-2.0997,-2.0997,-2.1741,-2.1741,-2.182,-2.1998,-2.0439,-1.9994,0.0,0.0,0.0,0.6035,0.0,0.0,0.0,0.0,0.6876,0.0,0.0,0.0,0.0,0.0,0.0,0.0,0.0,0.0,0.0,0.0,0.0,0.0,0.0,0.0,0.0,0.0,0.0,0.0,0.0,0.0,0.0896,0.0336,0.0056,0.0056,0.0,0.0,0.0,0.0,-0.0559,-0.1728,-0.1728,-0.267,-0.4275,-0.3782,-0.3901,-0.447,-0.3863,-0.3591,-0.3596,-0.3588,-0.3653,-0.3746,-0.3001,-0.245,-0.2046,-0.2164,-0.1802,-0.123,-0.0667,-0.0269,0.0,0.0403,0.0874,0.1412,0.2018,0.2238,0.3926,1.1882,1.4353,1.6425,2.4343,2.1843,1.6502,1.376,0.5408,-0.2719,-0.5689,-0.9311,-1.2159,-1.2831,-1.3127,-1.386,-1.5873,-1.6226,-1.5996,-1.547,-1.6601,-1.7326,-1.669,-1.7432,-1.8151,-1.8545,-1.968,-2.0592,-2.0985,-2.058,-2.0249,-2.0249,-2.1087,-2.1642,-2.1642,-2.1642,-2.1642,-2.1741,-2.1642,-2.1642,-2.1741,-2.1741,-2.2087,-2.2715,-2.1535,-2.0988,0.0,0.0,0.5664,0.5664,0.0,0.0,0.0,0.0,0.0,0.0,0.0,0.0,0.0,0.0,0.0,0.0,0.0,0.0,0.0,0.0,0.0,0.0,0.0,0.0,0.0,0.0,0.0,0.0,0.0,0.0,0.0,0.0112,0.0,0.0,0.0,0.0,0.0,-0.0393,-0.1007,-0.1783,-0.2227,-0.3113,-0.4388,-0.3834,-0.395,-0.4463,-0.3858,-0.3585,-0.3585,-0.3585,-0.3378,-0.3062,-0.2805,-0.2098,-0.1283,-0.1349,-0.1013,-0.0583,-0.0267,0.0134,0.0605,0.0941,0.1412,0.234,0.4827,0.5957,0.7387,1.2474,1.6183,1.9269,2.2041,1.8629,1.3529,1.0021,0.3823,-0.2909,-0.9038,-0.951,-0.9916,-1.386,-1.4803,-1.5548,-1.7418,-1.8231,-1.8249,-1.7074,-1.7415,-1.79,-1.8141,-1.8948,-1.994,-2.1024,-2.1574,-2.2109,-2.2822,-2.2328,-2.198,-2.198,-2.182,-2.1741,-2.1741,-2.1741,-2.1909,-2.2451,-2.2441,-2.2608,-2.3105,-2.3105,-2.3202,-2.3464,-2.3018,-2.2589,0.4968,0.5187,0.0,0.5581,0.5562,0.0,0.5932,0.0,0.0,0.0,0.0,0.0,0.0,0.0,0.0,0.0,0.0,0.0,0.0,0.2299,0.0,0.0,0.0,0.0,0.0,0.0,0.0,0.0,0.0,0.0,0.0,0.0,0.0,0.0,-0.0224,-0.0224,0.0,-0.0784,-0.162,-0.2389,-0.2613,-0.339,-0.4721,-0.3944,-0.3788,-0.4135,-0.3749,-0.3585,-0.3585,-0.3585,-0.3244,-0.2681,-0.2458,-0.179,-0.0903,-0.0891,-0.0435,0.0194,0.0133,0.0605,0.1277,0.1277,0.2513,0.4436,0.6649,0.8494,1.0715,1.4654,1.7984,2.0192,1.9561,1.5211,0.9767,0.4838,-0.0696,-0.6275,-1.1378,-1.1243,-1.1111,-1.482,-1.6343,-1.756,-1.9081,-1.9593,-1.9367,-1.8204,-1.8461,-1.8957,-1.9344,-2.0046,-2.0965,-2.2321,-2.2623,-2.3006,-2.374,-2.3222,-2.2882,-2.3135,-2.253,-2.2176,-2.2422,-2.2422,-2.2687,-2.3135,-2.3135,-2.3387,-2.38,-2.38,-2.3973,-2.4145,-2.3887,-2.3724]},{"header":{"parameterUnit":"m.s-1","parameterCategory":1,"la1":30.6,"la2":29.2853,"lo1":-89.7004,"lo2":-87.6739,"dy":0.0162,"dx":0.0183,"nx":112,"ny":82,"refTime":"2024-03-13T18:00:00:Z","depth":0,"parameterNumber":3,"parameterNumberName":"V-component_of_WINDS"},"data":[0.0,0.0,0.0,0.0,0.0,0.0,0.0,0.0,0.0,0.0,0.0,0.0,0.0,0.0,0.0,0.0,0.0,0.0,0.0,0.0,0.0,0.0,0.0,0.0,0.0,0.0,0.0,0.0,0.0,0.0,0.0,0.0,0.0,0.0,0.0,0.0,0.0,0.0,0.0,0.0,0.0,0.0,0.0,0.0,0.0,0.0,0.0,0.0,0.0,0.0,0.0,0.0,0.0,0.0,0.0,0.0,0.0,0.0,0.0,0.0,0.0,0.0,0.0,0.0,0.0,0.0,0.0,0.0,0.0,0.0,0.0,0.0,0.0,0.0,0.0,0.0,0.0,0.0,0.0,0.0,0.0,0.0,0.0,0.0,0.0,0.0,0.0,0.0,0.0,0.0,0.0,-1.1109,-1.3323,-1.4935,-1.5302,-1.5442,-1.429,-1.1413,0.0,0.0,0.0,0.0,0.0,0.0,0.0,0.0,0.0,0.0,0.0,0.0,0.0,0.0,0.0,0.0,0.0,0.0,0.0,0.0,0.0,0.0,0.0,0.0,0.0,0.0,0.0,0.0,0.0,0.0,0.0,0.0,0.0,0.0,0.0,0.0,0.0,0.0,0.0,0.0,0.0,0.0,0.0,0.0,0.0,0.0,0.0,0.0,0.0,0.0,0.0,0.0,0.0,0.0,0.0,0.0,0.0,0.0,0.0,0.0,0.0,0.0,0.0,0.0,0.0,0.0,0.0,0.0,0.0,0.0,0.0,0.0,0.0,0.0,0.0,0.0,0.0,0.0,0.0,0.0,0.0,0.0,0.0,0.0,0.0,0.0,0.0,0.0,0.0,0.0,0.0,0.0,0.0,0.0,0.0,0.0,0.0,0.0,0.0,0.0,0.0,0.0,0.0,0.0,-1.1128,-1.3327,-1.42,-1.4773,-1.5133,-1.4336,-1.3151,-1.1468,0.0,0.0,0.0,0.0,0.0,0.0,0.0,0.0,0.0,0.0,0.0,0.0,0.0,0.0,0.0,0.0,0.0,0.0,0.0,0.0,0.0,0.0,0.0,0.0,0.0,0.0,0.0,0.0,0.0,0.0,0.0,0.0,0.0,0.0,0.0,0.0,0.0,0.0,0.0,0.0,0.0,0.0,0.0,0.0,0.0,0.0,0.0,0.0,0.0,0.0,0.0,0.0,0.0,0.0,0.0,0.0,0.0,0.0,0.0,0.0,0.0,0.0,0.0,0.0,0.0,0.0,0.0,0.0,0.0,0.0,0.0,0.0,0.0,0.0,0.0,0.0,0.0,0.0,0.0,0.0,0.0,0.0,0.0,0.0,0.0,0.0,0.0,0.0,0.0,0.0,0.0,0.0,0.0,0.0,0.0,0.0,0.0,0.0,0.0,0.0,0.0,0.0,0.0,-0.9923,-1.1115,-1.3604,-1.3925,-1.4041,-1.428,-1.3797,-1.2714,-1.0863,-1.1145,0.0,0.0,0.0,0.0,0.0,0.0,0.0,0.0,0.0,0.0,0.0,0.0,0.0,0.0,0.0,0.0,0.0,0.0,0.0,0.0,0.0,0.0,0.0,0.0,0.0,0.0,0.0,0.0,0.0,0.0,0.0,0.0,0.0,0.0,0.0,0.0,0.0,0.0,0.0,0.0,0.0,0.0,0.0,0.0,0.0,0.0,0.0,0.0,0.0,0.0,0.0,0.0,0.0,0.0,0.0,0.0,0.0,0.0,0.0,0.0,0.0,0.0,0.0,0.0,0.0,0.0,0.0,0.0,0.0,0.0,0.0,0.0,0.0,0.0,0.0,0.0,0.0,0.0,0.0,0.0,0.0,0.0,0.0,0.0,0.0,0.0,0.0,0.0,0.0,0.0,0.0,0.0,0.0,0.0,0.0,0.0,0.0,0.0,0.0,0.0,0.0,0.0,-1.0479,-1.1397,-1.3144,-1.3114,-1.3053,-1.3242,-1.3,-1.2071,-1.0266,-1.0302,0.0,0.0,0.0,0.0,0.0,0.0,0.0,0.0,0.0,0.0,0.0,0.0,0.0,0.0,0.0,0.0,0.0,0.0,0.0,0.0,0.0,0.0,0.0,0.0,0.0,0.0,0.0,0.0,0.0,0.0,0.0,0.0,0.0,0.0,0.0,0.0,0.0,0.0,0.0,0.0,0.0,0.0,0.0,0.0,0.0,0.0,0.0,0.0,0.0,0.0,0.0,0.0,0.0,0.0,0.0,0.0,0.0,0.0,0.0,0.0,0.0,0.0,0.0,0.0,0.0,0.0,0.0,0.0,0.0,0.0,0.0,0.0,0.0,0.0,0.0,0.0,0.0,0.0,0.0,0.0,0.0,0.0,0.0,0.0,0.0,0.0,0.0,0.0,0.0,0.0,0.0,0.0,0.0,0.0,0.0,0.0,0.0,0.0,0.0,0.0,0.0,0.0,-1.1499,-1.2448,-1.2209,-1.1929,-1.1867,-1.218,-1.1384,-1.0636,-1.0055,-0.9633,0.0,0.0,0.0,0.0,0.0,0.0,0.0,0.0,0.0,0.0,0.0,0.0,0.0,0.0,0.0,0.0,0.0,0.0,0.0,0.0,0.0,0.0,0.0,0.0,0.0,0.0,0.0,0.0,0.0,0.0,0.0,0.0,0.0,0.0,0.0,0.0,0.0,0.0,0.0,0.0,0.0,0.0,0.0,0.0,0.0,0.0,0.0,0.0,0.0,0.0,0.0,0.0,0.0,0.0,0.0,0.0,0.0,0.0,0.0,0.0,0.0,0.0,0.0,0.0,0.0,0.0,0.0,0.0,0.0,0.0,0.0,0.0,0.0,0.0,0.0,0.0,0.0,0.0,0.0,0.0,0.0,0.0,0.0,0.0,0.0,0.0,0.0,0.0,0.0,0.0,0.0,0.0,0.0,0.0,0.0,0.0,0.0,0.0,0.0,0.0,0.0,0.0,-1.069,-1.1501,0.0,-1.1799,-1.1774,-1.1431,-1.1505,-1.0945,-0.9464,0.0,0.0,0.0,0.0,0.0,0.0,0.0,0.0,0.0,0.0,0.0,0.0,0.0,0.0,0.0,0.0,0.0,0.0,0.0,0.0,0.0,0.0,0.0,0.0,0.0,0.0,0.0,0.0,0.0,0.0,0.0,0.0,0.0,0.0,0.0,0.0,0.0,0.0,0.0,0.0,0.0,0.0,0.0,0.0,0.0,0.0,0.0,0.0,0.0,0.0,0.0,0.0,0.0,0.0,0.0,0.0,0.0,0.0,0.0,0.0,0.0,0.0,0.0,0.0,0.0,0.0,0.0,0.0,0.0,0.0,0.0,0.0,0.0,0.0,0.0,0.0,0.0,0.0,0.0,0.0,0.0,0.0,0.0,0.0,0.0,0.0,0.0,0.0,0.0,0.0,0.0,0.0,0.0,0.0,0.0,0.0,0.0,0.0,0.0,0.0,0.0,0.0,-0.9303,-1.0377,-1.1149,0.0,-1.1468,-1.1505,-1.1169,-1.1468,-1.0991,-0.941,0.0,0.0,0.0,0.0,0.0,0.0,0.0,0.0,0.0,0.0,0.0,0.0,0.0,0.0,0.0,0.0,0.0,0.0,0.0,0.0,0.0,0.0,0.0,0.0,0.0,0.0,0.0,0.0,0.0,0.0,0.0,0.0,0.0,0.0,0.0,0.0,0.0,0.0,0.0,0.0,0.0,0.0,0.0,0.0,0.0,0.0,0.0,0.0,0.0,0.0,0.0,0.0,0.0,0.0,0.0,0.0,0.0,0.0,0.0,0.0,0.0,0.0,0.0,0.0,0.0,0.0,0.0,0.0,0.0,0.0,0.0,0.0,0.0,0.0,0.0,0.0,0.0,0.0,0.0,0.0,0.0,0.0,0.0,0.0,0.0,0.0,0.0,0.0,0.0,0.0,0.0,0.0,0.0,0.0,0.0,0.0,0.0,0.0,0.0,0.0,0.0,0.0,-0.9345,-1.0932,-1.1774,-1.0992,-1.0802,-1.0905,-1.1442,-1.1019,-1.0489,0.0,0.0,0.0,0.0,0.0,0.0,0.0,0.0,0.0,0.0,0.0,0.0,0.0,0.0,0.0,0.0,0.0,0.0,0.0,0.0,0.0,0.0,0.0,0.0,0.0,0.0,0.0,0.0,0.0,0.0,0.0,0.0,0.0,0.0,0.0,0.0,0.0,0.0,0.0,0.0,0.0,0.0,0.0,0.0,0.0,0.0,0.0,0.0,0.0,0.0,0.0,0.0,0.0,0.0,0.0,0.0,0.0,0.0,0.0,0.0,0.0,0.0,0.0,0.0,0.0,0.0,0.0,0.0,0.0,0.0,0.0,0.0,0.0,0.0,0.0,0.0,0.0,0.0,0.0,0.0,0.0,0.0,0.0,0.0,0.0,0.0,0.0,0.0,0.0,0.0,0.0,0.0,0.0,0.0,0.0,0.0,0.0,0.0,0.0,0.0,0.0,0.0,0.0,-0.9116,-1.0344,-1.1142,-1.0791,-1.0715,-1.0753,-1.0905,-1.1057,-1.0661,-0.9584,0.0,0.0,0.0,0.0,0.0,0.0,0.0,0.0,0.0,0.0,0.0,0.0,0.0,0.0,0.0,0.0,0.0,0.0,0.0,0.0,0.0,0.0,0.0,0.0,0.0,0.0,0.0,0.0,0.0,0.0,0.0,0.0,0.0,0.0,0.0,0.0,0.0,0.0,0.0,0.0,0.0,0.0,0.0,0.0,0.0,0.0,0.0,0.0,0.0,0.0,0.0,0.0,0.0,0.0,0.0,0.0,0.0,0.0,0.0,0.0,0.0,0.0,0.0,0.0,0.0,0.0,0.0,0.0,0.0,0.0,0.0,0.0,0.0,0.0,0.0,0.0,0.0,0.0,0.0,0.0,0.0,0.0,0.0,0.0,0.0,0.0,0.0,0.0,0.0,0.0,0.0,0.0,0.0,0.0,0.0,0.0,0.0,0.0,0.0,0.0,0.0,0.0,-0.9035,-1.0377,-1.1217,-1.0829,-1.0905,-1.1019,-1.1019,-1.1567,-1.1488,-1.0492,0.0,0.0,0.0,0.0,0.0,0.0,0.0,0.0,0.0,0.0,0.0,0.0,0.0,0.0,0.0,0.0,0.0,0.0,0.0,0.0,0.0,0.0,0.0,0.0,0.0,0.0,0.0,0.0,0.0,0.0,0.0,0.0,0.0,0.0,0.0,0.0,0.0,0.0,0.0,0.0,0.0,0.0,0.0,0.0,0.0,0.0,0.0,0.0,0.0,0.0,0.0,0.0,0.0,0.0,0.0,0.0,0.0,0.0,0.0,0.0,0.0,0.0,0.0,0.0,0.0,0.0,0.0,0.0,0.0,0.0,0.0,0.0,0.0,0.0,0.0,0.0,0.0,0.0,0.0,0.0,0.0,0.0,0.0,0.0,0.0,0.0,0.0,0.0,0.0,0.0,0.0,0.0,0.0,0.0,0.0,0.0,0.0,0.0,0.0,0.0,0.0,0.0,-0.9039,-1.0738,-1.1664,-1.1029,-1.1217,-1.1442,-1.1553,-1.2302,-1.2599,-1.2127,0.0,0.0,0.0,0.0,0.0,0.0,0.0,0.0,0.0,0.0,0.0,0.0,0.0,0.0,0.0,0.0,0.0,0.0,0.0,0.0,0.0,0.0,0.0,0.0,0.0,0.0,0.0,0.0,0.0,0.0,0.0,0.0,0.0,0.0,0.0,0.0,0.0,0.0,0.0,0.0,0.0,0.0,0.0,0.0,0.0,0.0,0.0,0.0,0.0,0.0,0.0,0.0,0.0,0.0,0.0,0.0,0.0,0.0,0.0,0.0,-0.334,0.0,0.0,0.0,0.0,0.0,0.0,0.0,0.0,0.0,0.0,0.0,0.0,0.0,0.0,0.0,0.0,0.0,0.0,0.0,0.0,0.0,0.0,0.0,0.0,0.0,0.0,0.0,0.0,0.0,0.0,0.0,0.0,0.0,0.0,0.0,0.0,0.0,0.0,0.0,0.0,0.0,-0.8985,-0.9999,-1.084,-1.133,-1.0943,-1.0992,-1.1884,-1.1901,-1.1951,-1.2103,0.0,0.0,0.0,0.0,0.0,0.0,0.0,0.0,0.0,0.0,0.0,0.0,0.0,0.0,0.0,0.0,0.0,0.0,0.0,0.0,0.0,0.0,0.0,0.0,0.0,0.0,0.0,0.0,0.0,0.0,0.0,0.0,0.0,0.0,0.0,0.0,0.0,0.0,0.0,0.0,0.0,0.0,0.0,0.0,0.0,0.0,0.0,0.0,0.0,0.0,0.0,0.0,0.0,0.0,0.0,0.0,0.0,0.0,0.0,0.0,0.0,-0.2977,0.0,0.0,0.0,0.0,0.0,0.0,0.0,0.0,0.0,0.0,0.0,0.0,0.0,0.0,0.0,0.0,0.0,0.0,0.0,0.0,0.0,0.0,0.0,0.0,0.0,0.0,0.0,0.0,0.0,0.0,0.0,0.0,0.0,0.0,0.0,0.0,0.0,0.0,0.0,0.0,-0.8985,-1.0266,-1.1341,-1.1834,-1.1572,-1.1678,-1.241,-1.2433,-1.2607,-1.3119,-1.2436,0.0,0.0,0.0,0.0,0.0,0.0,0.0,0.0,0.0,0.0,0.0,0.0,0.0,0.0,0.0,0.0,0.0,0.0,0.0,0.0,0.0,0.0,0.0,0.0,0.0,0.0,0.0,0.0,0.0,0.0,0.0,0.0,0.0,0.0,0.0,0.0,0.0,0.0,0.0,0.0,0.0,0.0,0.0,0.0,0.0,0.0,0.0,0.0,0.0,0.0,0.0,0.0,0.0,-0.0449,-0.0705,-0.166,-0.1489,-0.1316,-0.1196,-0.154,-0.1923,-0.2293,0.0,0.0,0.0,0.0,0.0,0.0,0.0,0.0,0.0,0.0,0.0,0.0,0.0,0.0,0.0,0.0,0.0,0.0,0.0,0.0,0.0,0.0,0.0,0.0,0.0,-0.9112,-0.9786,0.0,0.0,0.0,0.0,0.0,0.0,0.0,0.0,0.0,0.0,0.0,0.0,-0.9295,-1.0831,-1.2002,-1.238,-1.2338,-1.2504,-1.298,-1.3141,-1.3554,-1.4385,-1.3677,-1.3167,0.0,0.0,0.0,0.0,0.0,0.0,0.0,0.0,0.0,0.0,0.0,0.0,0.0,0.0,0.0,0.0,0.0,0.0,0.0,0.0,0.0,0.0,0.0,0.0,0.0,0.0,0.0,0.0,0.0,0.0,0.0,0.0,-0.0421,0.1207,0.0,0.0,0.0,0.0,0.0,0.0,0.0,0.0,0.0,0.0,0.0,0.0,0.0,0.0,0.0954,0.1255,0.1646,0.2096,0.1929,0.1758,0.1595,0.1651,0.1743,0.1762,0.1568,0.0,-0.1078,-0.1634,0.0,0.0,0.0,0.0,0.0,0.0,0.0,0.0,0.0,0.0,0.0,0.0,0.0,0.0,0.0,0.0,0.0,0.0,0.0,0.0,0.0,0.0,-0.8969,-0.9878,-1.0186,-1.0392,0.0,-0.9934,-0.9097,-0.9435,-0.9606,0.0,0.0,0.0,0.0,0.0,0.0,0.0,-1.0399,-1.0837,-1.1513,-1.2689,-1.2264,-1.2309,-1.3332,-1.3305,-1.3682,-1.4845,-1.4814,-1.4361,-1.3606,-1.2918,0.0,0.0,0.0,0.0,0.0,0.0,0.0,0.0,0.0,0.0,0.0,0.0,0.0,0.0,0.0,0.0,0.0,0.0,0.0,0.0,0.0,0.0,0.0,0.0,0.0,0.0,0.0,0.0,0.0,-0.1159,-0.0062,0.032,0.0431,0.02,0.0,0.0,0.0,0.0,0.0,0.0,0.0,0.0,0.0,0.2137,0.1982,0.2235,0.2968,0.3079,0.3257,0.3565,0.3417,0.3106,0.2711,0.2834,0.3091,0.3471,0.2837,0.2109,0.1239,-0.0333,-0.087,-0.0829,0.0,0.0,0.0,0.0,-0.2967,-0.3708,-0.4166,-0.4758,0.0,0.0,0.0,0.0,0.0,0.0,0.0,0.0,0.0,0.0,0.0,0.0,0.0,-0.9277,-0.9932,-1.0352,-1.0702,-1.0424,-1.0167,0.0,-1.0113,-0.9594,-0.8443,0.0,0.0,0.0,0.0,0.0,-1.0662,-1.151,-1.2381,-1.3245,-1.3157,-1.3392,-1.4269,-1.3935,-1.4038,-1.4965,-1.5013,-1.4971,-1.4897,-1.3937,-1.2366,0.0,0.0,0.0,0.0,0.0,0.0,0.0,0.0,0.0,0.0,0.0,0.0,0.0,0.0,0.0,0.0,0.0,0.0,0.0,0.0,0.0,0.0,0.0,0.0,0.0,0.0,0.0,0.0,0.0093,0.0971,0.0657,0.1679,0.1951,0.0,0.0,0.0,0.0,0.0,0.0,0.3964,0.3703,0.3818,0.4455,0.42,0.4483,0.5337,0.5132,0.5245,0.5558,0.5245,0.4747,0.4239,0.4351,0.4529,0.4827,0.411,0.3776,0.3583,0.1094,0.0285,0.047,-0.0641,-0.0923,-0.074,-0.1253,-0.2165,-0.3204,-0.3591,-0.4532,-0.5519,-0.5638,0.0,-0.5642,-0.5624,0.0,0.0,0.0,0.0,-0.5937,-0.6728,-0.7267,-0.7765,-0.8572,-0.9406,-1.0035,-1.0138,-1.0463,-1.0828,0.0,-1.0806,-1.0267,-0.9234,0.0,0.0,0.0,0.0,-1.0889,-1.1385,-1.2294,-1.3211,-1.3947,-1.4081,-1.4327,-1.4869,-1.4529,-1.4488,-1.5083,-1.5162,-1.5384,-1.578,-1.4845,-1.3582,-1.1999,0.0,0.0,0.0,0.0,0.0,0.0,0.0,0.0,0.0,0.0,0.0,0.0,0.0,0.0,0.0,0.0,0.0,0.0,0.0,0.0,0.0,0.0,0.0,0.0,0.0,0.0,0.0,0.0,0.0,0.4609,0.5583,0.0,0.0,0.0,0.0,0.5634,0.5672,0.622,0.7371,0.6186,0.6343,0.8339,0.7114,0.7083,0.8482,0.7712,0.7988,0.9311,0.7988,0.7298,0.7298,0.7298,0.6881,0.61,0.5923,0.5869,0.5642,0.2652,0.115,0.0808,0.104,0.0877,0.0516,0.0632,-0.0562,-0.2182,-0.2124,-0.3635,-0.5496,-0.4899,-0.4702,-0.4794,-0.4993,-0.5052,0.0,0.0,-0.5596,-0.5846,-0.6842,-0.7138,-0.7357,-0.8349,-0.9033,-0.9436,-0.9458,-0.9671,-1.0284,0.0,-1.2164,-1.2051,-1.1276,0.0,-1.1371,-1.0664,-1.0647,-1.1375,-1.3282,-1.3161,-1.3421,-1.4773,-1.4533,-1.4385,-1.47,-1.485,-1.5107,-1.5443,-1.5656,-1.5768,-1.5792,-1.5764,-1.5125,-1.3888,-1.2361,0.0,0.0,0.0,0.0,0.0,0.0,0.0,0.0,0.0,0.0,0.0,0.0,0.0,0.0,0.0,0.0,0.0,0.0,0.0,0.0,0.0,0.0,0.0,0.0,0.0,0.0,0.0,0.0,0.6195,0.7279,0.0,0.0,0.6724,0.7223,0.7079,0.7828,0.8475,0.8924,0.8441,0.8491,0.9238,0.877,0.877,0.9297,0.8992,0.9103,0.9577,0.9103,0.8574,0.8006,0.8006,0.7587,0.6756,0.6199,0.5977,0.5869,0.4333,0.3328,0.2641,0.2004,0.1598,0.1354,0.0991,0.0053,-0.1109,-0.1755,-0.2938,-0.4204,-0.4664,-0.4801,-0.4919,-0.5293,-0.5617,-0.5921,-0.5974,-0.6498,-0.7059,-0.6967,-0.7515,-0.815,-0.8421,-0.9347,-1.0123,-0.9865,-1.039,-1.1089,-1.1715,-1.1588,-1.1266,-1.089,-1.1733,-1.2148,-1.1166,-1.1674,-1.2484,-1.3495,-1.371,-1.4127,-1.4954,-1.5065,-1.5171,-1.5405,-1.533,-1.5413,-1.5691,-1.5748,-1.5792,-1.5792,-1.5792,-1.5375,-1.4537,-1.432,-1.279,0.0,0.0,0.0,0.0,0.0,0.0,0.0,0.0,0.0,0.0,0.0,0.0,0.0,0.0,0.0,0.0,0.0,0.0,0.0,0.0,0.0,0.0,0.0,0.0,0.0,0.0,0.9079,0.7477,0.8865,0.9263,0.744,0.8586,0.9396,0.9181,0.9945,1.0458,1.0458,1.0143,1.0195,1.0687,1.0238,1.0238,1.0695,1.0246,1.0246,1.0687,1.0238,0.9776,0.94,0.92,0.8698,0.7919,0.7106,0.6779,0.673,0.5928,0.5222,0.4395,0.3113,0.2563,0.2347,0.134,0.0279,-0.0833,-0.2441,-0.3164,-0.3553,-0.4395,-0.4677,-0.4732,-0.523,-0.5719,-0.6154,-0.6173,-0.6869,-0.7503,-0.709,-0.7616,-0.8309,-0.8368,-0.9249,-1.0028,-0.9969,-1.0592,-1.1267,-1.156,-1.1417,-1.1287,-1.1382,-1.2275,-1.2745,-1.1916,-1.2447,-1.3064,-1.3554,-1.4021,-1.449,-1.5062,-1.5379,-1.5647,-1.5691,-1.5282,-1.5191,-1.568,-1.537,-1.5377,-1.578,-1.5319,-1.4911,-1.455,-1.4817,-1.3662,-1.1034,0.0,0.0,0.0,0.0,0.0,0.0,0.0,0.0,0.0,0.0,0.0,0.0,0.0,0.0,0.0,0.0,0.0,0.0,0.0,0.0,0.0,0.0,0.0,0.9185,0.9742,1.0099,0.875,1.0534,1.1232,0.9684,1.108,1.2126,1.2126,1.2126,1.2126,1.2126,1.1283,1.1466,1.2764,1.1516,1.1466,1.2812,1.1516,1.1516,1.2812,1.1466,1.1099,1.158,1.1057,1.0348,0.9526,0.8692,0.8277,0.8224,0.745,0.6696,0.5873,0.4398,0.3796,0.3516,0.173,0.0167,-0.1497,-0.3944,-0.4298,-0.3638,-0.407,-0.4177,-0.4288,-0.4732,-0.523,-0.5677,-0.6064,-0.6657,-0.7139,-0.7085,-0.7402,-0.783,-0.8262,-0.8725,-0.9183,-0.971,-1.0233,-1.0795,-1.1316,-1.1864,-1.2374,-1.2822,-1.3045,-1.3162,-1.3,-1.2919,0.0,-1.3561,-1.4033,-1.4479,-1.504,-1.5501,-1.568,-1.549,-1.4558,-1.4458,-1.5454,-1.46,-1.4589,-1.5744,-1.4489,-1.389,-1.4136,-1.387,-1.3714,-1.3572,0.0,0.0,0.0,0.0,0.0,0.0,0.0,0.0,0.0,0.0,0.0,0.0,0.0,0.0,0.0,0.0,0.0,0.0,0.0,0.0,0.0,0.0,1.4483,1.2265,1.3593,1.4398,1.3238,1.3257,1.3037,1.2118,1.2147,1.2234,1.2234,1.2323,1.2372,1.2372,1.2166,1.2206,1.2559,1.2107,1.2246,1.3064,1.2197,1.2147,1.2967,1.2147,1.1493,1.1007,1.0864,1.0348,0.9526,0.8692,0.8277,0.8224,0.745,0.6972,0.6642,0.5167,0.3779,0.2496,0.1505,-0.0111,-0.1838,-0.2561,-0.3125,-0.3638,-0.3747,-0.3747,-0.391,-0.468,-0.5277,-0.5819,-0.6114,-0.6923,-0.7557,-0.709,-0.7568,-0.8209,-0.8268,-0.8837,-0.9607,-1.0115,-1.0685,-1.1217,-1.156,-1.2206,-1.2657,-1.2589,-1.2852,-1.3074,-1.2944,-1.289,0.0,-1.3992,-1.4228,-1.4449,-1.4833,-1.4959,-1.5002,-1.4971,-1.47,-1.4849,-1.5656,-1.5473,-1.5437,-1.578,-1.583,-1.6266,-1.7095,-1.5923,-1.5156,0.0,0.0,0.0,0.0,0.0,0.0,0.0,0.0,0.0,0.0,0.0,0.0,0.0,0.0,0.0,0.0,0.0,0.0,0.0,0.0,0.0,0.0,1.6019,1.6619,1.5702,1.5926,1.5856,1.4994,1.4582,1.4107,1.3494,1.317,1.3035,1.3035,1.289,1.2803,1.2803,1.2618,1.2569,1.2803,1.2919,1.3054,1.3218,1.2957,1.2909,1.3016,1.2686,1.2384,1.2043,1.2092,1.1886,0.0,1.0257,0.9541,0.9127,0.8066,0.7396,0.0,0.0,0.0,0.0,0.0,-0.1227,-0.2681,-0.2681,-0.3074,-0.3585,-0.3585,-0.3585,-0.3749,-0.4401,-0.4835,-0.5269,-0.5782,-0.6588,-0.723,-0.7031,-0.7568,-0.8156,-0.8268,-0.8633,-0.9249,-1.021,-1.0533,-1.0956,-1.1927,-1.2363,0.0,-1.2716,-1.3035,-1.3188,-1.3044,-1.3175,-1.3464,-1.3952,-1.4369,-1.4619,-1.4606,-1.4935,-1.512,-1.4946,-1.4634,0.0,0.0,0.0,-1.5109,-1.5237,-1.5654,0.0,0.0,0.0,-1.6315,-1.6961,0.0,0.0,0.0,-1.5198,-1.5138,0.0,0.0,0.0,0.0,0.0,0.0,0.0,0.0,0.0,0.0,0.0,0.0,0.0,0.0,0.0,0.0,1.8253,1.9236,1.8765,1.7079,1.5724,1.5164,1.5028,1.4755,1.4154,1.4071,1.4025,1.4025,1.36,1.3304,1.3304,0.0,0.0,0.0,0.0,1.3784,1.3399,1.3737,1.369,1.3198,1.3294,1.3542,1.3826,1.4003,1.4061,1.392,1.2318,1.1197,1.037,0.8829,0.7759,0.6972,0.5914,0.4522,0.2587,-0.0887,-0.2792,-0.3585,-0.3585,0.0,0.0,-0.3585,-0.3585,-0.3694,-0.407,-0.4177,-0.4398,-0.5344,-0.5937,-0.6421,-0.6864,-0.7295,-0.7723,-0.8156,-0.8215,-0.858,-1.0005,-1.0115,-1.0372,-1.2166,-1.2393,-1.2423,-1.2967,-1.3266,-1.3371,-1.3233,-1.3501,-1.3721,-1.3615,-1.4383,-1.4755,-1.4228,0.0,0.0,-1.5028,-1.4413,-1.4547,-1.5732,-1.4821,-1.4386,-1.4767,-1.5082,-1.5618,-1.6446,-1.6655,-1.7592,-1.9304,-1.9304,-1.9653,-2.0219,-1.6257,-1.6412,0.0,0.0,0.0,0.0,0.0,0.0,0.0,0.0,0.0,0.0,0.0,0.0,0.0,0.0,0.0,1.7204,1.8377,1.9103,1.8765,1.7558,1.6617,1.6532,1.5884,1.5287,1.4766,1.4398,1.4176,1.4176,1.4118,1.4071,1.4071,1.4025,0.0,1.4061,1.4107,1.4351,1.4731,1.4247,1.4143,1.4525,0.0,0.0,1.3967,1.4343,1.4297,1.3873,1.1693,1.068,1.0327,0.8212,0.7241,0.6799,0.3787,0.2033,0.0828,-0.2169,-0.3413,-0.3585,-0.3585,-0.3585,-0.3585,-0.3585,-0.3585,-0.3694,-0.407,-0.4177,0.0,-0.5344,-0.5673,-0.5837,-0.6282,-0.6712,-0.7095,-0.7144,-0.7681,-0.8527,-0.9688,-1.01,-1.0525,-1.1418,-1.2116,-1.251,-1.2246,-1.288,-1.3331,-1.324,-1.3236,-1.3372,-1.3695,-1.3841,-1.3803,-1.3523,-1.3794,-1.4061,-1.4193,-1.423,-1.4681,-1.5712,-1.5676,-1.5879,-1.6501,-1.7395,-1.8153,-1.875,-1.9602,-2.0248,-2.0625,-2.0625,-2.0973,-2.1583,-1.972,-1.9564,0.0,0.0,0.0,0.0,0.0,0.0,0.0,0.0,0.0,0.0,0.0,1.4581,1.5604,0.0,1.7546,1.8593,1.9224,1.9464,1.908,1.8405,1.7599,1.6811,1.6095,1.5623,1.5367,1.5142,1.5006,1.5006,1.4812,1.4686,1.4686,1.4444,1.4305,1.4305,1.4755,1.4892,1.4686,1.4846,1.4801,1.4536,1.4744,1.4687,1.449,1.496,1.5107,1.4801,1.2551,1.1408,1.0953,0.8304,0.6739,0.5686,0.287,0.1593,0.0881,-0.2393,-0.3585,-0.3593,-0.3648,-0.3727,-0.3678,-0.374,-0.3759,-0.3818,-0.3987,-0.4219,-0.4626,-0.532,-0.567,-0.6019,-0.6368,-0.6572,-0.6824,-0.7262,-0.7612,-0.8256,-0.9791,-1.0005,-1.0226,-1.1318,-1.1619,-1.1769,-1.1819,-1.2491,-1.3064,-1.317,-1.342,-1.3583,-1.3668,-1.3894,-1.3903,-1.3495,-1.3967,-1.4283,-1.4182,-1.4762,-1.5362,-1.5856,-1.6088,-1.6665,-1.7761,-1.8392,-1.9197,-2.0169,-2.0746,-2.1003,-2.1003,-2.1003,-2.1336,-2.1975,-2.1351,-2.138,0.0,0.0,0.0,0.0,0.0,0.0,0.0,0.0,1.2984,1.4515,1.5252,1.6077,1.7647,1.7852,1.833,1.9875,2.0025,1.9762,1.9369,1.893,1.8145,1.6808,1.6306,1.6044,1.6001,1.5957,1.5957,1.6044,1.5603,1.5334,1.5379,1.4937,1.4709,1.4709,1.5599,1.5688,1.488,1.5688,1.5644,1.4801,1.5377,1.5599,1.5421,1.6149,1.6486,1.6298,1.4547,1.3435,1.2494,0.9032,0.6688,0.5091,0.1995,0.0719,0.0334,-0.2585,-0.3632,-0.3664,-0.3757,-0.3963,-0.4154,-0.4085,-0.4293,-0.4533,-0.4177,-0.4482,-0.4968,-0.5325,-0.5691,-0.6181,-0.6671,-0.6783,-0.6874,-0.7613,-0.7695,-0.8136,-0.9933,-0.9896,-0.9963,-1.1319,-1.1268,-1.1108,-1.1569,-1.2098,-1.2618,-1.3064,-1.3552,-1.3789,-1.3563,-1.3941,-1.4093,-1.3658,-1.4316,-1.4765,-1.4669,-1.5586,-1.6239,-1.6382,-1.6704,-1.7419,-1.8615,-1.9094,-1.9838,-2.1037,-2.1265,-2.138,-2.138,-2.138,-2.1684,-2.2337,-2.2425,-2.2659,1.2621,1.212,0.0,1.3791,1.3823,1.4553,0.0,0.0,1.7155,1.92,1.9549,1.9538,1.9767,1.9882,2.0027,2.0224,1.9854,1.9457,1.9176,1.8316,1.7598,1.7186,1.7073,1.6934,1.671,1.6509,1.6607,1.7031,1.6436,1.6144,1.6337,1.6293,1.625,1.625,1.6765,1.6976,1.6892,1.6976,1.6976,1.6879,1.7463,1.7572,1.7271,1.844,1.881,1.8448,1.7883,1.7169,1.5894,1.0366,0.7866,0.677,-0.0166,-0.306,-0.3306,-0.3629,-0.3803,-0.3898,-0.3909,-0.4629,-0.5464,-0.484,-0.5791,-0.6849,-0.5143,-0.5079,-0.5611,-0.5442,-0.5446,-0.5691,-0.6547,-0.7126,-0.7511,-0.7629,-0.7902,-0.8573,-0.9881,-1.0055,-1.024,-1.1022,-1.1396,-1.1569,-1.1368,-1.1819,-1.2304,-1.2774,-1.3208,-1.3409,-1.3266,-1.3248,-1.3354,-1.3573,-1.3705,-1.4337,-1.5799,-1.6417,-1.7005,-1.7718,-1.8257,-1.865,-1.8929,-2.0268,-2.1091,-2.125,-2.2189,-2.2685,-2.2685,-2.2685,-2.2952,-2.3518,-2.4015,-2.3896,1.4841,0.0,0.0,0.0,1.5956,1.6792,1.8191,1.8151,1.8238,1.983,2.0397,2.0597,2.046,2.0561,2.0512,0.0,1.9839,1.9485,1.8846,1.8383,1.7935,1.7434,1.7352,1.7186,1.668,1.6552,1.6565,1.6778,1.6522,1.6392,1.6522,1.6595,1.668,1.668,1.7031,1.7199,1.7199,1.7297,1.7366,1.7366,1.7747,1.8044,1.8261,1.8797,1.8836,1.8505,1.8524,1.5974,1.166,0.9197,0.5446,0.0867,-0.2447,-0.4439,-0.5506,-0.5206,-0.5086,-0.51,-0.5006,-0.5282,-0.5786,-0.5947,-0.6038,-0.6097,-0.5665,-0.5732,-0.6002,-0.5879,-0.6339,-0.6928,-0.7648,-0.7834,-0.7934,-0.8589,-0.8842,-0.9247,-1.0736,-1.0744,-1.0758,-1.1658,-1.1651,-1.1436,-1.1436,-1.2069,-1.2745,-1.3049,-1.341,-1.3569,-1.3182,-1.3701,-1.4367,-1.5034,-1.5437,-1.6049,-1.7003,-1.7347,-1.7775,-1.8435,-1.8773,-1.9362,-2.0288,-2.0941,-2.1577,-2.223,-2.2653,-2.2947,-2.3037,-2.326,-2.3658,-2.4282,-2.4773,-2.5043,1.5859,0.0,0.0,1.6806,1.7854,1.8848,1.8451,1.8741,1.9313,2.0169,2.0655,2.0861,2.061,2.0613,0.0,1.9818,1.9681,1.9361,1.8616,1.8436,1.8161,1.7693,1.7611,1.7406,1.6947,1.6778,1.6735,1.6863,1.6735,1.665,1.6765,1.6921,1.7005,1.7076,1.7421,1.7639,1.7639,1.7881,1.7987,1.7987,1.8351,1.8733,1.9053,1.9606,2.0016,2.026,2.0584,1.7867,1.3056,0.9789,0.5031,-0.0527,-0.3957,-0.6248,-0.7536,-0.6892,-0.6454,-0.6096,-0.5855,-0.6085,-0.6604,-0.6997,-0.7073,-0.692,-0.6915,-0.6857,-0.681,-0.6745,-0.716,-0.7775,-0.8268,-0.8477,-0.8708,-0.937,-0.9631,-1.0078,-1.1484,-1.1399,-1.1279,-1.2206,-1.1841,-1.1382,-1.1487,-1.2253,-1.2959,-1.325,-1.3849,-1.4103,-1.3581,-1.443,-1.5433,-1.6339,-1.6898,-1.746,-1.8007,-1.8309,-1.8694,-1.9274,-1.9661,-2.0389,-2.1513,-2.1662,-2.22,-2.3149,-2.3163,-2.3373,-2.3866,-2.4074,-2.4594,-2.5419,-2.5836,-2.6396,0.0,0.0,1.6975,1.8063,1.9437,2.0706,2.1398,2.1364,2.1195,2.115,2.0958,2.0662,2.0204,2.01,2.003,1.9762,1.9281,1.8855,1.8616,1.8214,1.7922,1.7882,1.7882,1.7882,0.0,1.7461,1.7378,1.7842,1.7253,1.7086,1.7434,1.7475,1.7557,1.7747,1.8422,1.8745,1.8745,1.9035,1.9169,1.9184,2.0003,2.0154,1.975,2.163,2.349,2.5195,2.5623,2.5919,2.5238,1.3704,0.8699,0.7074,-0.4458,-0.9307,-0.9681,-0.8772,-0.7567,-0.6318,-0.6009,-0.7102,-0.8506,-0.7892,-0.948,-1.1224,-0.9403,-0.8554,-0.8248,-0.8192,-0.7769,-0.7377,-0.7756,-0.898,-0.9982,-0.945,-1.0066,-1.0996,-1.1826,-1.179,-1.1721,-1.2238,-1.1848,-1.1487,-1.1487,-1.2142,-1.2795,-1.325,-1.4418,-1.5083,-1.4629,-1.5257,-1.6087,-1.7008,-1.7388,-1.7897,-1.8672,-1.9251,-1.9837,-2.0518,-2.1534,-2.2128,-2.2156,-2.2618,-2.3163,-2.3847,-2.3862,-2.4467,-2.5712,-2.548,-2.5986,-2.7142,-2.7592,-2.8084,1.6243,0.0,1.914,1.9946,2.0721,2.1381,2.1552,2.1339,2.1103,2.1071,2.0639,2.0162,1.9825,1.9907,1.9842,1.9204,1.9481,1.9522,1.8898,1.8669,1.845,1.8123,1.8083,0.0,0.0,0.0,0.0,1.7882,1.7828,1.7828,1.7949,1.8201,1.8383,1.8461,1.8822,1.9011,1.9058,1.9295,1.9664,2.0221,2.1083,2.1635,2.1901,2.2817,2.4056,2.5406,2.5815,2.1581,1.4069,1.0056,0.3337,-0.4763,-0.8482,-1.0211,-1.0436,-0.9426,-0.8666,-0.7974,-0.724,-0.7386,-0.8052,-0.8931,-0.9236,-0.9332,-0.9752,-0.9497,-0.9052,-0.8985,-0.9129,-0.9328,-0.9837,-1.0579,-1.129,-1.1528,-1.2071,-1.2688,-1.3145,-1.28,-1.2482,-1.274,-1.2462,-1.2202,-1.2202,-1.3125,-1.4163,-1.5027,-1.5059,-1.5262,-1.609,-1.6501,-1.7157,-1.8255,-1.8792,-1.9321,-1.9962,-2.0174,-2.0647,-2.1575,-2.2359,-2.2932,-2.3324,-2.3869,-2.4345,-2.4674,-2.5008,-2.5469,-2.6077,-2.6406,-2.6992,-2.783,-2.8211,-2.8725,1.7727,1.8998,2.0255,2.1083,2.1495,2.1708,2.1631,2.1354,2.1071,2.0942,2.0193,1.9432,1.9108,1.9186,1.9014,1.8062,1.8996,1.9519,1.8671,1.8603,1.8567,1.8333,1.8109,0.0,0.0,0.0,0.0,1.7882,1.8003,1.8149,1.8307,1.8553,1.8745,1.8898,1.9319,1.9625,1.9685,2.0147,2.0783,2.156,2.1926,2.2661,2.364,2.3833,2.4564,2.5566,2.367,1.8494,1.0985,0.6383,-0.0338,-0.799,-0.9856,-1.0721,-1.0779,-0.9749,-0.9254,-0.8958,-0.7992,-0.7912,-0.8398,-0.9501,-0.9641,-0.9548,-1.0698,-1.0474,-0.981,-1.0036,-1.0183,-1.0385,-1.0665,-1.1486,-1.2272,-1.2519,-1.3138,-1.3735,-1.3992,-1.3584,-1.3075,-1.3189,-1.2797,-1.256,-1.2858,-1.3992,-1.5118,-1.5989,-1.5835,-1.604,-1.7192,-1.7364,-1.7885,-1.915,-1.9552,-1.9952,-2.056,-2.0795,-2.1331,-2.2446,-2.3079,-2.3645,-2.4239,-2.4842,-2.5309,-2.5705,-2.6228,-2.6779,-2.742,-2.7759,-2.8231,-2.887,-2.913,-2.9416,1.9018,1.9907,2.0363,2.152,2.1781,2.1781,2.1751,2.1524,2.115,2.0765,1.9578,1.8509,0.0,0.0,1.7682,1.6522,1.7949,1.8928,1.8057,1.8086,1.8307,0.0,0.0,0.0,0.0,0.0,0.0,1.7923,0.0,1.8055,1.8461,1.85,1.8693,1.9101,1.9927,2.0457,2.0571,2.1568,2.243,2.3136,2.264,2.3258,2.4823,2.459,2.5092,2.5799,2.0172,1.7531,1.622,0.3682,-0.1681,-0.2598,-0.8536,-1.0873,-1.0779,-0.9823,-0.9388,-0.9287,-0.8391,-0.8689,-0.9496,-0.97,-1.0706,-1.1888,-1.2052,-1.1386,-1.0697,-1.1236,-1.1001,-1.0564,-1.0333,-1.1702,-1.2921,-1.2348,-1.3258,-1.4269,-1.4368,-1.3967,-1.3589,-1.3458,-1.285,-1.2605,-1.339,-1.4579,-1.5584,-1.6056,-1.6708,-1.7368,-1.7852,-1.7843,-1.8344,-1.9681,-1.977,-1.9989,-2.0701,-2.122,-2.2,-2.3146,-2.3712,-2.4268,-2.4907,-2.555,-2.6226,-2.6844,-2.7458,-2.8408,-2.9629,-2.9377,-2.9572,-3.0189,-3.0189,-3.0189,1.979,2.0598,2.1392,2.1828,2.1807,2.1612,2.1401,2.126,2.0766,1.9358,1.8402,1.7506,0.0,0.0,0.0,1.6894,1.841,0.0,1.8757,1.8569,0.0,0.0,0.0,1.795,1.8368,1.8367,0.0,0.0,1.7949,1.7841,1.8394,1.8588,1.8907,1.9545,1.9818,2.0089,2.0355,2.1906,2.3026,2.3669,2.355,2.4081,2.5082,2.4827,2.5234,2.6038,2.504,2.1838,1.6797,0.871,0.2582,-0.2315,-0.85,-1.0892,-1.0779,-1.0031,-0.9594,-0.9415,-0.9356,-0.9268,-0.9245,-1.0023,-1.0766,-1.1532,-1.2122,-1.206,-1.1755,-1.1762,-1.1683,-1.152,-1.1449,-1.2792,-1.4166,-1.401,-1.4494,-1.4885,-1.4651,-1.4089,-1.3471,-1.2932,-1.3033,-1.345,-1.4112,-1.4883,-1.5594,-1.6249,-1.6832,-1.7368,-1.7852,-1.8701,-1.9564,-2.0385,-2.1219,-2.193,-2.2623,-2.3119,-2.3752,-2.4539,-2.5038,-2.5436,-2.571,-2.6653,-2.7376,-2.7768,-2.8682,-2.9303,-2.975,-2.9897,-3.0044,-3.0189,-3.0189,-3.0189,2.0814,2.1452,2.2003,2.1823,2.1582,2.1236,2.0559,2.0186,1.9543,1.8035,1.6839,0.0,0.0,0.0,0.0,0.0,0.0,0.0,1.8561,1.8422,1.8372,0.0,1.7828,0.0,1.8011,1.7954,1.8004,0.0,1.8272,1.8235,1.8408,1.864,1.9075,1.9811,2.0318,2.1054,2.213,2.3252,2.4024,2.4388,2.4388,2.477,2.5465,2.5297,2.5653,2.6232,0.0,2.0825,1.6771,0.7212,0.1193,-0.2693,-0.9077,-1.1396,-1.1054,-1.0367,-0.9723,-0.9271,-0.9578,-0.9588,-0.9566,-1.0424,-1.1089,-1.1641,-1.2151,-1.2289,-1.2253,-1.224,-1.2274,-1.2353,-1.2353,-1.3331,-1.4474,-1.476,-1.516,-1.5455,-1.5364,-1.4932,-1.4289,-1.3372,-1.3917,-1.4689,-1.5059,-1.5999,-1.6873,-1.7248,-1.7857,-1.8351,-1.8679,-1.9376,-2.0141,-2.0949,-2.1923,-2.2738,-2.3344,-2.3858,-2.459,-2.5502,-2.5739,-2.6161,-2.6827,-2.7701,-2.8384,-2.8764,-2.9585,-3.0011,-3.0113,-3.0258,-3.0316,-3.0316,-3.0316,-3.0316,2.1887,2.2282,2.2406,2.1691,2.1401,2.0935,1.9666,1.8984,1.8176,1.6612,0.0,1.4101,1.3442,0.0,1.5143,1.3959,0.0,1.8524,1.8041,1.8198,1.8327,1.8327,1.784,1.7505,1.7505,1.7388,1.754,1.8153,1.8872,1.9073,1.8703,1.88,1.9237,2.0146,2.0986,2.2345,2.4343,2.4721,2.491,2.5084,2.5123,2.5378,2.5868,2.5868,2.6191,2.6472,0.0,0.0,1.7979,0.4369,-0.115,-0.1755,-0.9348,-1.2013,-1.1472,-1.0711,-0.9984,-0.9396,-0.9664,-0.9977,-1.0314,-1.0783,-1.1414,-1.2007,-1.2075,-1.2199,-1.2431,-1.248,-1.2656,-1.2837,-1.2837,-1.352,-1.4418,-1.5062,-1.5517,-1.592,-1.6169,-1.6001,-1.5415,-1.4452,-1.5253,-1.6125,-1.6125,-1.7509,-1.8495,-1.8495,-1.9134,-1.9749,-1.9913,-2.0079,-2.0501,-2.1543,-2.245,-2.3125,-2.3576,-2.425,-2.5164,-2.6247,-2.6226,-2.6713,-2.7883,-2.8559,-2.912,-2.9629,-3.0199,-3.0526,-3.0526,-3.0526,-3.0526,-3.0526,-3.0526,-3.0526,2.2432,2.2517,2.2735,2.196,2.1718,2.1246,1.9605,1.9251,0.0,0.0,0.0,1.3813,1.2174,1.3315,0.0,1.5092,0.0,0.0,0.0,0.0,1.8934,0.0,0.0,0.0,0.0,0.0,0.0,0.0,0.0,2.0346,1.9752,1.9294,1.9679,2.1032,2.0857,2.1728,2.3733,2.3982,2.4551,2.5502,2.5659,2.5881,2.6118,2.6243,2.6573,2.6987,2.6143,0.0,2.5913,1.1797,0.6573,0.6142,-0.6657,-1.1758,-1.1797,-1.1049,-1.0961,-1.1337,-1.1233,-1.1247,-1.1247,-1.0805,-1.1247,-1.1992,-1.1904,-1.2059,-1.2279,-1.2123,-1.2326,-1.2593,-1.2593,-1.3772,-1.5054,-1.5196,-1.5739,-1.6291,-1.6354,-1.5851,-1.5575,-1.6188,-1.6714,-1.7174,-1.741,-1.8176,-1.8616,-1.8312,-1.9253,-2.0159,-2.064,-2.1421,-2.2013,-2.2356,-2.3811,-2.4805,-2.486,-2.6021,-2.6784,-2.7004,-2.7004,-2.7289,-2.8012,-2.8606,-2.9166,-2.975,-3.0241,-3.0526,-3.0526,-3.0526,-3.0526,-3.0526,-3.0526,-3.0526,2.2998,2.3168,2.3453,2.2496,2.2022,2.1204,1.9018,0.0,0.0,0.0,0.0,1.1948,1.1094,0.0,0.0,0.0,0.0,0.0,0.0,0.0,0.0,0.0,0.0,0.0,0.0,0.0,0.0,0.0,0.0,2.0309,1.9585,2.0061,2.0628,2.1181,2.175,2.2551,2.353,2.4139,2.4697,2.5196,2.604,2.6409,2.6295,2.6801,2.7029,2.7117,2.7386,0.0,2.8198,1.7853,1.1741,0.7948,-0.2261,-0.8581,-1.1983,-1.2022,-1.1854,-1.1758,-1.2216,-1.2405,-1.2241,-1.1582,-1.1585,-1.1909,-1.1992,-1.22,-1.2524,-1.306,-1.3133,-1.3114,-1.3521,-1.3927,-1.4489,-1.5267,-1.6237,-1.6968,-1.7178,-1.6384,-1.5974,-1.7122,-1.757,-1.7999,-1.8787,-1.9357,-1.9743,-2.0205,-2.0621,-2.1139,-2.1934,-2.2605,-2.2984,-2.3114,-2.4506,-2.5398,-2.5398,-2.6563,-2.7335,-2.7423,-2.756,-2.7929,-2.8606,-2.912,-2.9617,-3.0156,-3.0384,-3.0526,-3.0526,-3.0526,-3.0526,-3.0526,-3.0526,-3.0526,2.32,2.3536,2.3859,2.2787,2.2136,2.1094,1.835,1.6759,0.0,0.0,1.0845,1.0247,1.0298,0.0,0.0,0.0,0.0,0.0,0.0,0.0,0.0,0.0,0.0,0.0,0.0,0.0,0.0,0.0,0.0,0.0,1.9642,2.0696,2.1341,2.148,2.2511,2.326,2.367,2.4397,2.4882,2.5045,2.625,2.6746,2.6669,2.7192,2.7521,2.7681,2.773,0.0,0.0,2.2046,1.5058,0.8099,0.1272,-0.5911,-1.247,-1.2916,-1.2645,-1.2145,-1.2916,-1.314,-1.3076,-1.257,-1.2205,-1.1969,-1.2167,-1.2325,-1.2704,-1.3782,-1.3867,-1.371,-1.4466,-1.4402,-1.4482,-1.5956,-1.6983,-1.774,-1.8075,-1.7385,-1.7105,-1.8253,-1.8647,-1.9232,-2.0211,-2.0545,-2.0955,-2.1928,-2.199,-2.2175,-2.3088,-2.3531,-2.3793,-2.3956,-2.4951,-2.5563,-2.5563,-2.6721,-2.7488,-2.7524,-2.786,-2.8367,-2.9104,-2.9467,-2.9968,-3.051,-3.0526,-3.0526,-3.0526,-3.051,-3.051,-3.0526,-3.051,-3.0526,2.2565,2.3093,2.3231,2.2141,2.184,2.1002,1.7946,0.0,0.0,1.1203,1.0225,1.0038,1.0038,1.0492,0.0,0.0,0.0,0.0,0.0,0.0,0.0,0.0,0.0,0.0,0.0,0.0,0.0,0.0,0.0,0.0,2.1278,2.0825,2.1211,2.2579,2.2191,2.2684,2.421,2.4313,2.4823,2.5783,2.6132,2.6692,2.7475,2.6977,2.7809,2.9516,2.8801,0.0,0.0,2.3163,1.5887,0.8864,0.145,-0.6472,-1.3738,-1.3104,-1.3094,-1.3465,-1.3348,-1.3299,-1.3355,-1.3765,-1.3273,-1.2406,-1.2292,-1.2358,-1.2599,-1.3237,-1.3558,-1.3935,-1.4689,-1.5463,-1.6446,-1.791,-1.8317,-1.8432,-1.8472,-1.8849,-1.9445,-2.0084,-2.0673,-2.1181,-2.1506,-2.1553,-2.1651,-2.1877,-2.2433,-2.298,-2.3518,-2.393,-2.4509,-2.5175,-2.5453,-2.5563,-2.5453,-2.6864,-2.764,-2.7437,-2.769,-2.8222,-2.9148,-2.9239,-2.9701,-3.0651,-3.0692,-3.0692,-3.0692,-3.0568,-3.0568,-3.0692,-3.0568,-3.0568,2.2505,2.3158,2.3442,2.2552,2.1467,2.0054,1.7959,0.0,1.3195,1.084,0.9498,0.8968,0.9731,0.9672,1.0088,0.0,0.0,0.0,0.0,0.0,0.0,0.0,0.0,0.0,0.0,0.0,0.0,0.0,0.0,0.0,2.2438,2.2206,2.2193,2.244,2.263,2.2904,2.3319,2.388,2.4664,2.5668,2.6808,2.7719,2.8463,2.8815,2.9283,2.9793,2.9639,0.0,0.0,2.8356,2.0189,0.9425,0.6415,-0.2397,-1.3422,-1.3762,-1.3923,-1.4026,-1.453,-1.4658,-1.458,-1.4056,-1.3952,-1.4001,-1.3637,-1.3392,-1.337,-1.419,-1.44,-1.4584,-1.5872,-1.6973,-1.7952,-1.8666,-1.9165,-1.9443,-1.9239,-1.9628,-2.0139,-2.0473,-2.073,-2.1187,-2.2161,-2.1788,-2.1765,-2.2907,-2.2967,-2.322,-2.4176,-2.4421,-2.4593,-2.4878,-2.5453,-2.5986,-2.6361,-2.724,-2.779,-2.7755,-2.8319,-2.8857,-2.93,-2.9805,-3.0309,-3.0814,-3.0733,-3.0733,-3.0831,-3.079,-3.079,-3.0831,-3.079,-3.079,2.1576,2.2552,2.3067,2.2556,2.1039,1.926,0.0,0.0,1.2018,1.0315,0.885,0.8229,0.9302,0.9183,0.9399,1.0929,0.0,1.2675,0.0,0.0,0.0,0.0,0.0,0.0,0.0,0.0,0.0,0.0,0.0,0.0,0.0,2.326,2.3025,2.2555,2.3039,2.3228,2.3103,2.3751,2.4636,2.5696,2.7114,2.8241,2.9147,2.9768,3.0213,3.0437,0.0,0.0,0.0,3.1796,2.4205,1.2773,1.2773,0.3293,-1.0484,-1.1002,-1.255,-1.4525,-1.5477,-1.5697,-1.5533,-1.4961,-1.5131,-1.5487,-1.5222,-1.4535,-1.3987,-1.4751,-1.517,-1.5684,-1.696,-1.8508,-1.9655,-1.9815,-2.026,-2.0619,-2.0347,-2.0551,-2.0835,-2.0974,-2.1164,-2.1565,-2.2555,-2.2049,-2.2075,-2.3564,-2.3386,-2.3518,-2.4721,-2.4778,-2.4835,-2.4948,-2.5728,-2.6414,-2.6811,-2.7509,-2.794,-2.802,-2.8559,-2.9073,-2.9451,-3.0054,-3.0551,-3.0912,-3.0814,-3.0814,-3.0952,-3.0912,-3.0912,-3.0952,-3.0912,-3.0912,1.9419,2.0954,2.1827,2.1811,2.0603,1.8811,0.0,0.0,1.1819,0.9415,0.8379,0.8093,0.869,0.9136,0.9629,0.0,0.0,0.0,0.0,0.0,0.0,0.0,0.0,0.0,0.0,0.0,0.0,0.0,0.0,0.0,0.0,2.3595,2.3523,2.3319,2.3319,2.3538,2.3967,2.4036,2.4777,2.6084,2.6698,2.7855,2.9383,2.911,3.012,0.0,0.0,0.0,0.0,3.2028,2.7077,1.9975,1.9975,1.0059,-0.42,-0.3388,-0.8184,-1.5197,-1.5914,-1.5926,-1.5799,-1.6956,-1.6949,-1.655,-1.6771,-1.5705,-1.4372,-1.4395,-1.5804,-1.7406,-1.7963,-1.9807,-2.1538,-2.1607,-2.1745,-2.1901,-2.1889,-2.1957,-2.2051,-2.1939,-2.2396,-2.286,-2.2739,-2.2555,-2.2702,-2.3682,-2.3695,-2.393,-2.4892,-2.5118,-2.5397,-2.5839,-2.6496,-2.6745,-2.6336,-2.7444,-2.8137,-2.802,-2.8137,-2.8622,-2.9585,-2.9629,-3.0038,-3.0975,-3.1015,-3.1015,-3.1015,-3.0952,-3.0935,-3.0975,-3.0952,-3.0952,1.7371,1.8238,1.8502,1.8502,1.7216,1.563,1.4479,0.0,1.0258,0.9083,0.8227,0.787,0.8479,0.8275,0.8656,0.0,0.0,0.0,0.0,0.0,0.0,0.0,0.0,0.0,0.0,0.0,0.0,0.0,0.0,0.0,0.0,2.4116,2.4161,2.3523,2.3566,2.3653,2.3739,2.4465,2.5419,2.6486,2.6882,2.7994,2.9453,2.3643,0.0,0.0,0.0,0.0,0.0,2.5163,2.1124,1.7873,1.2807,0.4426,-0.541,-1.012,-1.3514,-1.5731,-1.608,-1.6108,-1.6046,-1.6373,-1.673,-1.6997,-1.6161,-1.5756,-1.5668,-1.61,-1.7334,-1.8695,-1.9264,-2.0782,-2.2154,-2.2228,-2.2359,-2.2403,-2.2111,-2.2357,-2.2519,-2.2013,-2.2347,-2.2739,-2.2678,-2.3017,-2.3399,-2.4047,-2.4439,-2.4894,-2.555,-2.5467,-2.5481,-2.5592,-2.6404,-2.6953,-2.7108,-2.7795,-2.8235,-2.825,-2.851,-2.8858,-2.9241,-2.9777,-3.0251,-3.0658,-3.0878,-3.1072,-3.1151,-3.1112,-3.1112,-3.1151,-3.1112,-3.1112,0.0,1.6128,1.6586,1.6818,1.5359,0.0,0.0,0.0,0.9174,0.849,0.7957,0.7424,0.6829,0.6467,0.6436,0.6944,0.0,0.0,0.0,0.0,0.0,0.0,0.0,0.0,0.0,0.0,0.0,0.0,0.0,0.0,0.0,2.4086,2.4262,2.3754,2.4081,2.4096,2.3739,2.4435,2.5244,2.6153,2.6524,2.7423,2.8629,2.3819,0.0,0.0,0.0,0.0,0.0,2.4681,2.2406,2.1518,1.714,1.0537,0.2561,-0.4739,-0.935,-1.2483,-1.5726,-1.6806,-1.6665,-1.6759,-1.7119,-1.7474,-1.6573,-1.6435,-1.6697,-1.7207,-1.8486,-1.9792,-2.0236,-2.1628,-2.2942,-2.2891,-2.3096,-2.3278,-2.2935,-2.2972,-2.2836,-2.2445,-2.2653,-2.2909,-2.3198,-2.3471,-2.3917,-2.4624,-2.5007,-2.5356,-2.5839,-2.5839,-2.5743,-2.5647,-2.6472,-2.7122,-2.7414,-2.7993,-2.8332,-2.8411,-2.8621,-2.8826,-2.909,-2.9556,-2.9951,-3.0225,-3.0617,-3.0838,-3.0935,-3.1095,-3.119,-3.119,-3.119,-3.119,0.0,1.4351,1.5464,1.6066,1.4515,1.27,0.0,0.0,0.0,0.775,0.7589,0.6799,0.4219,0.4077,0.3459,0.0,0.0,0.0,0.0,0.0,0.0,0.0,0.0,0.0,0.0,0.0,0.0,0.0,0.0,0.0,0.0,2.3756,2.407,2.404,2.4678,2.4709,2.404,2.417,2.4606,2.5218,2.5728,2.6366,2.7063,2.7546,0.0,0.0,0.0,0.0,0.0,2.8384,2.8418,2.8951,2.9087,2.4364,1.6537,0.9284,0.1845,-0.5791,-1.4205,-1.693,-1.6769,-1.7678,-1.8008,-1.8008,-1.7842,-1.7609,-1.7486,-1.7789,-1.9242,-2.0744,-2.0827,-2.231,-2.3768,-2.3456,-2.3789,-2.4115,-2.4115,-2.3576,-2.3138,-2.3078,-2.3138,-2.3318,-2.3943,-2.3989,-2.4253,-2.5287,-2.5356,-2.5467,-2.5893,-2.6136,-2.619,-2.5948,-2.6698,-2.7203,-2.7297,-2.8091,-2.8541,-2.8396,-2.8396,-2.8621,-2.9044,-2.9136,-2.9348,-2.9766,-3.0267,-3.0518,-3.0518,-3.0958,-3.123,-3.123,-3.123,-3.123,0.9872,0.0,1.1443,1.1551,1.1112,1.0429,0.0,0.0,0.0,0.0,0.0,0.6579,0.3716,0.3599,0.3094,0.0,0.0,0.0,0.0,0.0,0.0,0.0,0.0,0.0,0.0,0.0,0.0,0.0,0.0,0.0,0.0,2.4381,2.4701,2.4181,2.4851,2.4882,2.4181,2.474,2.5121,2.5275,2.5606,2.6049,2.6375,2.0323,0.0,0.0,0.0,0.0,2.7571,2.1046,2.1924,2.6688,2.114,1.8073,1.5944,0.8625,0.473,0.1948,-0.6022,-0.8777,-0.9724,-1.6163,-1.8212,-1.8269,-1.8576,-1.8569,-1.8524,-1.8829,-2.0201,-2.1496,-2.1107,-2.2457,-2.3652,-2.2784,-2.3116,-2.3606,-2.3606,-2.3432,-2.3271,-2.3138,-2.321,-2.3437,-2.3813,-2.4323,-2.4894,-2.5453,-2.6028,-2.6447,-2.6553,-2.6418,-2.6297,-2.619,-2.6654,-2.7056,-2.7297,-2.7894,-2.8381,-2.8525,-2.8636,-2.8684,-2.87,-2.9152,-2.947,-2.956,-3.03,-3.0658,-3.0723,-3.11,-3.1329,-3.144,-3.1312,-3.1329,0.8483,0.9229,1.0013,1.0223,1.0051,0.965,0.9061,0.0,0.0,0.0,0.0,0.0,0.4359,0.0,0.0,0.0,0.0,0.0,0.0,0.0,0.0,0.0,0.0,0.0,0.0,0.0,0.0,0.0,0.0,0.0,0.0,2.4316,2.4618,2.4265,2.4629,2.4645,2.425,2.4629,2.4856,2.4856,2.4998,2.5242,2.5435,2.1281,2.2134,0.0,0.0,0.0,2.6921,2.2649,2.3579,2.7267,2.3186,2.2036,2.1732,1.3719,1.0999,1.018,0.2203,-0.297,-0.7476,-1.5734,-1.8664,-1.8988,-1.911,-1.9552,-2.0107,-2.0094,-2.1162,-2.2173,-2.1958,-2.278,-2.3527,-2.3095,-2.3343,-2.3641,-2.37,-2.3582,-2.345,-2.3318,-2.345,-2.3721,-2.4439,-2.4894,-2.5412,-2.615,-2.6659,-2.6937,-2.6832,-2.6712,-2.6698,-2.6788,-2.6997,-2.7342,-2.7799,-2.814,-2.8462,-2.8684,-2.8747,-2.8747,-2.8684,-2.9014,-2.9396,-2.9766,-3.041,-3.0878,-3.1117,-3.1312,-3.1423,-3.1517,-3.1423,-3.1423,0.8202,0.9168,1.0178,1.019,0.988,0.9519,0.9256,0.0,0.0,0.0,0.0,0.0,0.0,0.0,0.0,0.0,0.0,0.0,0.0,0.0,0.0,0.0,0.0,0.0,0.0,0.0,0.0,0.0,0.0,0.0,0.0,2.3994,2.4256,2.4148,2.4256,2.421,2.4051,2.421,2.4317,2.4343,2.44,2.4508,2.4686,2.5352,2.5598,0.0,0.0,0.0,2.6879,2.7235,2.7948,2.8773,2.8676,2.913,2.9018,2.1536,1.922,1.8375,0.9078,-0.0294,-0.9385,-1.6383,-1.9187,-1.9835,-1.9694,-2.059,-2.1584,-2.1391,-2.2012,-2.2771,-2.2744,-2.3107,-2.3579,-2.3692,-2.3841,-2.3949,-2.4067,-2.3878,-2.3628,-2.3628,-2.3628,-2.4041,-2.5354,-2.5536,-2.5965,-2.7161,-2.7439,-2.7394,-2.7045,-2.7097,-2.7262,-2.735,-2.7401,-2.7725,-2.8415,-2.8511,-2.859,-2.8842,-2.8842,-2.8842,-2.8842,-2.892,-2.9289,-3.0038,-3.0659,-3.1139,-3.1423,-3.1619,-3.1637,-3.1555,-3.1637,-3.1688,0.9156,1.0637,1.1396,0.8874,0.8679,0.9026,0.8774,0.0,0.0,0.0,0.0,0.0,0.0,0.0,0.0,0.0,0.0,0.0,0.0,0.0,0.0,0.0,0.0,0.0,0.0,0.0,0.0,0.0,0.0,0.0,0.0,2.4094,2.404,2.3471,2.401,2.3844,2.2869,2.3829,2.44,2.4549,2.4791,2.4926,2.4966,2.5406,2.5789,0.0,0.0,2.6419,2.7462,2.6377,2.7057,2.8725,2.8109,2.8692,2.9733,2.8386,2.7942,2.5925,1.0913,-0.4191,-1.7158,-1.9031,-1.9846,-2.0226,-2.0985,-2.1553,-2.1901,-2.2133,-2.2856,-2.335,-2.2674,-2.3529,-2.4455,-2.3568,-2.3726,-2.4067,-2.3949,-2.3891,-2.3819,-2.3628,-2.376,-2.436,-2.596,-2.6228,-2.6793,-2.8495,-2.8817,-2.8557,-2.7881,-2.7954,-2.7853,-2.7461,-2.7488,-2.781,-2.8463,-2.8511,-2.8669,-2.9045,-2.9045,-2.9045,-2.9045,-2.9425,-2.9722,-2.9837,-3.1216,-3.1645,-3.1162,-3.2132,-3.2324,-3.178,-3.232,-3.2651,0.8857,0.9855,1.0684,1.0016,1.1383,1.2768,1.2317,0.0,0.0,0.0,0.0,0.0,0.0,0.0,0.0,0.0,0.0,0.0,0.0,0.0,0.0,0.0,0.0,0.0,0.0,0.0,0.0,0.0,0.0,0.0,0.0,0.0,2.3496,2.2948,2.3227,2.3351,2.3315,2.3811,2.4108,2.4241,2.4737,2.5045,2.5178,2.5333,2.5625,2.5899,0.0,2.6199,2.7106,2.6458,2.7219,2.8709,2.7996,2.8595,2.9376,2.4893,2.3001,2.0456,0.4494,-0.6046,-1.3188,-1.8312,-2.0291,-2.0805,-2.1553,-2.2075,-2.2469,-2.2543,-2.2788,-2.2973,-2.2714,-2.3387,-2.4009,-2.3654,-2.3897,-2.4203,-2.4144,-2.4054,-2.3995,-2.3878,-2.3936,-2.4458,-2.5867,-2.6353,-2.7089,-2.8494,-2.9112,-2.9149,-2.8569,-2.8584,-2.8622,-2.8396,-2.8415,-2.8685,-2.915,-2.9196,-2.9182,-2.9121,-2.9075,-2.9075,-2.9075,-2.9913,-3.0494,-3.0756,-3.2068,-3.272,-3.2718,-3.3269,-3.3348,-3.3041,-3.3365,-3.352,0.8792,0.9389,1.0426,1.1836,1.3515,1.4951,1.535,0.0,0.0,0.0,0.0,0.0,0.0,0.0,0.0,0.0,0.0,0.0,0.0,0.0,0.0,0.0,0.0,0.0,0.0,0.0,0.0,0.0,0.0,0.0,0.0,0.0,2.3111,2.2378,2.254,2.286,2.3217,2.3549,2.3882,2.4236,2.4791,2.5178,2.5371,2.5371,2.5448,2.5616,2.5616,2.6037,2.6685,2.6506,2.7267,2.8466,2.7753,2.8239,2.8419,2.0456,1.5984,1.1904,-0.1905,-0.805,-1.0986,-1.8045,-2.0805,-2.1439,-2.1939,-2.2519,-2.2909,-2.28,-2.2616,-2.2543,-2.2848,-2.3271,-2.3628,-2.3852,-2.4131,-2.4408,-2.4363,-2.4261,-2.4229,-2.4229,-2.4334,-2.4773,-2.5968,-2.6801,-2.7755,-2.8828,-2.964,-2.9838,-2.9161,-2.9261,-2.9277,-2.9045,-2.9134,-2.9422,-2.975,-2.9793,-2.9677,-2.938,-2.9425,-2.947,-2.9499,-3.0563,-3.1336,-3.1792,-3.3094,-3.3874,-3.4093,-3.4249,-3.4249,-3.4093,-3.4266,-3.4352,0.9863,1.0925,1.2157,1.3571,1.2373,0.0,1.5072,1.4792,0.0,0.0,0.0,0.0,0.0,0.0,0.0,0.0,0.0,0.0,0.0,0.0,0.0,0.0,0.0,0.0,0.0,0.0,0.0,0.0,0.0,0.0,0.0,0.0,0.0,2.163,2.2352,2.2315,2.1311,2.2556,2.3829,2.5214,2.5262,2.5371,2.5578,2.5578,2.5578,2.5616,2.5616,2.6037,2.6652,2.5972,2.6523,2.7721,2.7041,2.7219,2.6981,1.9867,1.2397,0.4665,-0.3431,-1.1601,-1.8805,-2.0504,-2.1491,-2.2113,-2.2653,-2.2957,-2.3078,-2.2909,-2.28,-2.2739,-2.3017,-2.3662,-2.4234,-2.4131,-2.4421,-2.4721,-2.462,-2.4563,-2.4563,-2.4563,-2.4944,-2.5727,-2.6951,-2.8217,-2.9405,-3.0602,-3.1275,-3.1125,-2.9723,-2.9939,-2.9781,-2.8651,-2.9042,-2.9512,-2.9793,-2.9793,-2.9924,-3.0208,-3.0377,-3.0543,-3.0666,-3.1648,-3.2256,-3.2343,-3.4134,-3.4726,-3.4093,-3.4783,-3.4766,-3.4111,-3.4783,-3.5111,0.9366,1.0817,1.2528,1.3395,0.0,0.0,0.0,0.0,0.0,0.0,0.0,0.0,0.0,0.0,0.0,0.0,0.0,0.0,0.0,0.0,0.0,0.0,0.0,0.0,0.0,0.0,0.0,0.0,0.0,0.0,0.0,0.0,0.0,2.1288,2.1577,2.1807,2.1924,2.2423,2.3181,2.418,2.4583,2.5088,2.5616,2.5616,2.5616,2.5616,2.5616,2.5778,2.6005,2.5729,2.6183,2.7089,2.7267,2.1857,1.3655,1.0683,0.4429,-0.3685,-1.1172,-1.6413,-1.9984,-2.0801,-2.1553,-2.2237,-2.2823,-2.3078,-2.3078,-2.3017,-2.2909,-2.286,-2.2848,-2.3138,-2.3497,-2.3616,-2.4028,-2.4421,-2.4563,-2.462,-2.462,-2.462,-2.4736,-2.5306,-2.6485,-2.7771,-2.903,-3.017,-3.1219,-3.1399,-3.0409,-3.0608,-3.0667,-3.019,-3.0691,-3.1066,-3.1004,-3.105,-3.137,-3.1998,-3.0998,-3.0742,-3.1465,-3.2244,-3.3077,-3.3943,-3.5052,-3.5648,-3.5711,-3.5989,-3.5989,-3.5711,-3.5989,-3.6128,1.0164,1.1469,1.3149,0.0,0.0,0.0,0.0,0.0,0.0,0.0,0.0,0.0,0.0,0.0,0.0,0.0,0.0,0.0,0.0,0.0,0.0,0.0,0.0,0.0,0.0,0.0,0.0,0.0,0.0,0.0,0.0,0.0,0.0,0.0,2.1246,2.1615,2.2262,2.2262,2.2622,2.3391,2.4129,2.4746,2.519,2.3188,2.3522,2.5476,2.3266,2.2291,2.2461,2.4668,2.4578,2.3077,2.3544,1.6073,0.4755,0.2039,-0.0999,-0.5245,-1.5533,-1.6195,-1.3433,-1.9342,-1.9889,-1.8791,-2.1919,-2.3,-2.3078,-2.3078,-2.3017,-2.2811,-2.259,-2.2724,-2.303,-2.3271,-2.3721,-2.4247,-2.4492,-2.4607,-2.4845,-2.5249,-2.5276,-2.5646,-2.6818,-2.8138,-2.9318,-3.0265,-3.1287,-3.1738,-3.1192,-3.141,-3.163,-3.1736,-3.2193,-3.2432,-3.2261,-3.238,-3.281,-3.3497,-3.2287,-3.1898,-3.2753,-3.3403,-3.4192,-3.5145,-3.5803,-3.6343,-3.6702,-3.6788,-3.6869,-3.6869,-3.6952,-3.7013,1.2666,1.3173,0.0,0.0,0.0,0.0,0.0,0.0,0.0,0.0,0.0,0.0,0.0,0.0,0.0,0.0,0.0,0.0,0.0,0.0,0.0,0.0,0.0,0.0,0.0,0.0,0.0,0.0,0.0,0.0,0.0,0.0,0.0,0.0,2.1587,2.1797,2.1998,2.1998,2.2367,2.312,2.4059,2.4496,2.4297,1.799,1.8919,2.5099,1.8071,1.4981,1.552,2.2531,2.1297,1.4981,1.4981,1.033,0.2719,-0.4727,-0.2816,0.1189,-1.4907,-0.9827,0.0966,-1.5877,-1.6216,-1.1559,-1.9807,-2.2686,-2.3065,-2.3065,-2.3017,-2.2784,-2.2238,-2.2618,-2.3078,-2.3125,-2.3708,-2.4279,-2.4292,-2.465,-2.5408,-2.6638,-2.6778,-2.7131,-2.8394,-2.967,-3.0699,-3.1221,-3.1811,-3.2151,-3.206,-3.2307,-3.2644,-3.3088,-3.3305,-3.3414,-3.3397,-3.368,-3.4002,-3.4469,-3.4318,-3.4391,-3.4705,-3.5217,-3.5558,-3.571,-3.6382,-3.6702,-3.6702,-3.7069,-3.7226,-3.7226,-3.756,-3.7701,1.0518,1.2728,0.0,0.0,0.0,0.0,0.0,0.0,0.0,0.0,0.0,0.0,0.0,0.0,0.0,0.0,0.0,0.0,0.0,0.0,0.0,0.0,0.0,0.0,0.0,0.0,0.0,0.0,0.0,0.0,0.0,0.0,0.0,0.0,2.1882,2.194,2.1998,2.1998,2.2396,2.3167,2.4059,2.4706,2.4842,1.8472,1.6636,1.8071,1.0837,0.7715,0.7859,0.9981,0.9579,0.7649,0.7154,0.2569,-0.3455,-0.077,-0.5131,-1.1517,-0.5496,-0.7782,-1.3231,-1.2422,-1.4817,-1.843,-2.0466,-2.1807,-2.256,-2.256,-2.2777,-2.2892,-2.2401,-2.2618,-2.3037,-2.3238,-2.3433,-2.3834,-2.4924,-2.5257,-2.5548,-2.6068,-2.658,-2.7103,-2.7753,-2.9358,-3.0603,-3.0699,-3.1921,-3.284,-3.3032,-3.3191,-3.3396,-3.3707,-3.4346,-3.4656,-3.4449,-3.4708,-3.5137,-3.5776,-3.5775,-3.5775,-3.5883,-3.5764,-3.6171,-3.7148,-3.7232,-3.7413,-3.7685,-3.7774,-3.7844,-3.7844,-3.7929,-3.7998,1.3229,0.0,0.0,0.0,0.0,0.0,0.0,0.0,0.0,0.0,0.0,0.0,0.0,0.0,0.0,0.0,0.0,0.0,0.0,0.0,0.0,0.0,0.0,0.0,0.0,0.0,0.0,0.0,0.0,0.0,0.0,0.0,0.0,0.0,2.2158,2.2186,2.2298,2.2298,2.2671,2.3464,2.4359,2.5081,2.5309,1.5906,1.4569,1.9259,1.1947,1.0383,1.274,0.9928,0.8784,0.8716,0.8275,0.3681,-0.2587,-0.1637,-0.3291,-0.5956,-0.5987,-0.6025,-0.6817,-1.138,-1.4263,-1.6502,-1.9706,-2.1237,-2.2033,-2.2246,-2.2548,-2.2686,-2.2133,-2.228,-2.2605,-2.2821,-2.3184,-2.3673,-2.4627,-2.5188,-2.5674,-2.6183,-2.6652,-2.7305,-2.8224,-2.9559,-3.0646,-3.1106,-3.2441,-3.3556,-3.3968,-3.423,-3.4488,-3.485,-3.5618,-3.6001,-3.5826,-3.6043,-3.6468,-3.709,-3.7039,-3.7108,-3.7377,-3.6737,-3.6858,-3.7774,-3.7614,-3.7721,-3.8101,-3.8281,-3.836,-3.8346,-3.8554,-3.8615,0.0,0.0,0.0,0.0,0.0,0.0,0.0,0.0,0.0,0.0,0.0,0.0,0.0,0.0,0.0,0.0,0.0,0.0,0.0,0.0,0.0,0.0,0.0,0.0,0.0,0.0,0.0,0.0,0.0,0.0,0.0,0.0,0.0,2.2432,2.247,2.2552,2.2712,2.2712,2.3126,0.0,2.4795,2.5548,2.5754,1.2392,1.2822,2.3729,1.7029,1.7757,2.3196,1.6793,1.4522,1.5036,1.4301,1.0206,0.3714,-0.3768,0.1821,1.0252,-0.988,-0.329,1.0477,-1.0809,-1.3057,-0.9077,-1.7829,-2.0469,-2.0662,-2.1868,-2.2272,-2.2196,-2.1694,-2.1868,-2.2209,-2.2218,-2.3012,-2.3839,-2.3904,-2.4821,-2.5828,-2.6694,-2.7083,-2.7787,-2.9256,-3.0122,-3.1006,-3.2203,-3.3315,-3.4268,-3.4864,-3.5295,-3.5786,-3.6284,-3.6917,-3.7246,-3.7246,-3.7577,-3.7897,-3.8263,-3.8129,-3.8323,-3.8931,-3.7948,-3.7559,-3.7913,-3.7773,-3.7859,-3.8231,-3.8651,-3.8894,-3.8921,-3.9283,-3.9469,0.0,0.0,0.0,0.0,0.0,0.0,0.0,0.0,0.0,0.0,0.0,0.0,0.0,0.0,0.0,0.0,0.0,0.0,0.0,0.0,0.0,0.0,0.0,0.0,0.0,0.0,0.0,0.0,0.0,0.0,0.0,0.0,0.0,2.2632,2.3,2.3025,2.2712,2.2919,2.3598,0.0,2.5056,2.5843,2.6756,1.8108,1.2454,0.9421,0.7654,0.7715,0.8981,0.7472,1.0124,1.4487,0.8364,0.8348,1.1568,0.9778,0.7394,0.6047,1.3094,0.7575,-0.2415,-0.1122,-0.3801,-0.8989,-1.6512,-1.5606,-1.329,-1.9982,-2.2084,-2.2284,-2.2171,-2.2489,-2.2908,-2.2948,-2.3418,-2.4077,-2.4898,-2.5632,-2.6281,-2.675,-2.7874,-2.8813,-2.9064,-3.0688,-3.2322,-3.3441,-3.4186,-3.4941,-3.5881,-3.6071,-3.6308,-3.6701,-3.736,-3.7773,-3.7773,-3.8425,-3.8887,-3.899,-3.9085,-3.9221,-3.9376,-3.8529,-3.831,-3.8807,-3.8621,-3.8773,-3.927,-3.9364,-3.9854,-4.0643,-4.0063,-4.0163,0.0,0.0,0.0,0.0,0.0,0.0,0.0,0.0,0.0,0.0,0.0,0.0,0.0,0.0,0.0,0.0,0.0,0.0,0.0,0.0,0.0,0.0,0.0,0.0,0.0,0.0,0.0,0.0,0.0,0.0,0.0,2.2764,2.29,2.3025,2.3271,2.3472,2.3611,2.3621,2.4357,2.5756,2.5823,2.6521,2.7554,2.3373,1.7432,1.0615,1.3583,1.4911,1.5032,1.4742,1.6806,1.9729,1.5653,1.6327,1.9123,1.5359,1.3796,1.3702,1.4684,0.9822,0.3293,0.3954,0.1276,-0.2896,-0.6807,-0.8386,-0.9826,-1.4347,-1.8476,-2.1581,-2.1845,-2.2322,-2.2824,-2.3379,-2.3872,-2.439,-2.5218,-2.5837,-2.6508,-2.7259,-2.8423,-2.9561,-3.0455,-3.2237,-3.3822,-3.4638,-3.5153,-3.5708,-3.6516,-3.6759,-3.6999,-3.7323,-3.7877,-3.8231,-3.8378,-3.8877,-3.9231,-3.9333,-3.9519,-3.97,-3.9823,-3.943,-3.927,-3.9364,-3.9207,-3.9357,-3.974,-3.9821,-4.0361,-4.1244,-4.0841,-4.1109,0.0,0.0,0.0,0.0,0.0,0.0,0.0,0.0,0.0,0.0,0.0,0.0,0.0,0.0,0.0,0.0,0.0,0.0,0.0,0.0,0.0,0.0,0.0,0.0,0.0,0.0,0.0,0.0,0.0,0.0,2.301,2.3151,2.3259,2.3392,2.3625,2.4019,2.4593,2.4559,2.5244,2.6672,2.6813,2.7278,2.8075,2.733,2.3851,1.8643,2.3929,2.6351,2.6505,2.5961,2.5733,2.5733,2.5675,2.5675,2.489,1.8506,2.022,2.3992,1.1733,1.0865,1.4217,0.7842,0.5805,0.5534,0.3963,-0.0223,-0.5078,-0.8132,-1.376,-1.9281,-2.1194,-2.2103,-2.2725,-2.3612,-2.4278,-2.4881,-2.5536,-2.6147,-2.6875,-2.7995,-2.9077,-3.0476,-3.253,-3.4049,-3.516,-3.564,-3.6027,-3.6499,-3.7041,-3.7396,-3.772,-3.8107,-3.8449,-3.8778,-3.9036,-3.9282,-3.951,-3.9668,-3.9867,-4.0062,-4.0304,-4.0304,-4.0194,-3.9927,-3.9728,-3.9749,-3.9986,-4.031,-4.0863,-4.1666,-4.1781,-4.2278,0.0,0.0,0.0,0.0,0.0,0.0,0.0,0.0,0.0,0.0,0.0,0.0,0.0,0.0,0.0,0.0,0.0,0.0,0.0,0.0,0.0,0.0,0.0,0.0,0.0,0.0,0.0,0.0,0.0,0.0,2.3253,2.3477,2.3544,2.3392,2.4529,2.4969,2.4593,2.5499,2.6267,2.6934,2.7611,2.7968,2.8102,2.7974,2.7302,2.6234,2.6843,2.7151,2.7134,2.6556,2.6301,2.6283,2.603,2.5954,2.5872,2.5023,2.5401,2.6025,2.4035,2.0026,1.5627,1.4611,1.4261,1.304,0.6283,0.7867,0.8994,-0.526,-1.0319,-1.311,-2.0487,-2.2786,-2.3395,-2.3942,-2.4743,-2.563,-2.6605,-2.7253,-2.7864,-2.8446,-3.0149,-3.2171,-3.4267,-3.5228,-3.5797,-3.6225,-3.6755,-3.7287,-3.7938,-3.7959,-3.825,-3.904,-3.927,-3.9438,-3.9656,-4.0081,-4.0332,-4.037,-4.0559,-4.0675,-4.072,-4.0777,-4.0797,-4.0731,-4.0302,-4.0212,-4.0422,-4.1149,-4.2056,-4.3115,-4.3134,-4.3633,0.0,0.0,0.0,0.0,0.0,0.0,0.0,0.0,0.0,0.0,0.0,0.0,0.0,0.0,0.0,0.0,0.0,0.0,0.0,0.0,0.0,0.0,0.0,0.0,0.0,0.0,0.0,0.0,0.0,2.3294,2.3522,2.3671,2.3774,2.3795,2.4924,2.5608,2.5765,2.6698,2.7518,2.8283,2.8706,2.8889,2.8887,2.8887,2.8646,2.8166,2.7723,2.7648,2.7763,2.7134,2.6819,2.6673,2.6539,2.6488,2.6488,2.6453,2.6539,2.6657,2.6487,2.4392,2.179,2.179,2.179,2.1164,1.795,1.6104,1.37,0.7079,-0.1877,-1.0324,-1.3825,-1.8816,-2.3425,-2.5204,-2.5948,-2.6718,-2.8576,-2.8418,-2.8406,-3.0148,-3.2554,-3.4621,-3.5754,-3.6353,-3.6829,-3.7232,-3.7736,-3.819,-3.8493,-3.8626,-3.8888,-3.9458,-3.9588,-3.9721,-4.0005,-4.0307,-4.0501,-4.0506,-4.0715,-4.0849,-4.0859,-4.0876,-4.1127,-4.1626,-4.0984,-4.0911,-4.1459,-4.1807,-4.2731,-4.419,-4.4219,-4.4702,0.0,0.0,0.0,0.0,0.0,0.0,0.0,0.0,0.0,0.0,0.0,0.0,0.0,0.0,0.0,0.0,0.0,0.0,0.0,0.0,0.0,0.0,0.0,0.0,0.0,0.0,0.0,0.0,0.0,2.3696,2.413,2.4069,2.422,2.4677,2.5522,2.6302,2.7001,2.7901,2.8708,2.9399,2.9547,2.9572,2.9514,2.9567,2.9324,2.8814,2.8262,2.8174,2.835,2.7763,2.7412,2.7234,2.7226,2.7182,2.7109,2.7061,2.72,2.7282,2.6928,2.6882,2.6914,2.6774,2.6791,2.6872,2.7066,2.3209,1.8454,1.7166,0.58,-0.6378,-0.8101,-1.5659,-2.3397,-2.5446,-2.635,-2.7463,-2.9956,-2.9798,-2.9826,-3.2077,-3.4592,-3.6566,-3.7088,-3.7576,-3.7983,-3.8407,-3.8793,-3.9088,-3.9167,-3.9314,-3.958,-3.9929,-3.9965,-4.0145,-4.0665,-4.0861,-4.1036,-4.1238,-4.1477,-4.148,-4.124,-4.1462,-4.1783,-4.222,-4.1844,-4.193,-4.2529,-4.2743,-4.3547,-4.4819,-4.5092,-4.5557,0.0,0.0,0.0,0.0,0.0,0.0,0.0,0.0,0.0,0.0,0.0,0.0,0.0,0.0,0.0,0.0,0.0,0.0,0.0,0.0,0.0,0.0,0.0,0.0,0.0,0.0,0.0,0.0,0.0,2.4523,2.5354,2.4872,2.5079,2.6239,2.6709,2.7214,2.783,2.9007,2.9616,2.967,2.9821,2.976,2.9514,2.976,2.9728,2.9439,2.9079,2.8929,2.8929,2.8376,2.8148,2.8112,2.8121,2.795,2.7756,2.8569,2.8711,2.8461,2.8141,2.8233,2.8379,2.7826,2.7794,2.8002,2.8047,2.8294,2.6993,1.9463,1.0224,0.0853,-0.6594,-1.5965,-2.3531,-2.3543,-2.5218,-2.7463,-2.9956,-3.163,-3.2896,-3.3727,-3.549,-3.7223,-3.8383,-3.8887,-3.9241,-3.965,-3.9732,-3.9832,-4.0079,-4.0068,-4.0236,-4.0692,-4.0625,-4.0972,-4.2017,-4.2154,-4.2529,-4.33,-4.3411,-4.3064,-4.2169,-4.2985,-4.3095,-4.2312,-4.3002,-4.3381,-4.3427,-4.4266,-4.4738,-4.4917,-4.574,-4.6186,0.0,0.0,0.0,0.0,0.0,0.0,0.0,0.0,0.0,0.0,0.0,0.0,0.0,0.0,0.0,0.0,0.0,0.0,0.0,0.0,0.0,0.0,0.0,0.0,0.0,0.0,0.0,0.0,0.0,0.0,2.6445,2.5874,2.5946,2.6948,2.7685,2.8501,2.9382,2.9884,3.0189,3.0279,3.0414,3.0327,3.0075,3.0181,3.0056,2.9746,2.9627,2.9588,2.9563,2.9363,2.9195,2.9042,2.9045,2.8949,2.8868,2.8952,2.9082,2.912,2.8607,2.8507,2.8539,2.8112,2.802,2.8191,2.8709,2.8691,2.8248,2.6943,1.942,1.1341,0.9653,-0.2596,-1.645,-2.4365,-2.7488,-2.9203,-3.1021,-3.2565,-3.3688,-3.3947,-3.5987,-3.79,-3.859,-3.8989,-3.935,-3.9734,-3.9948,-4.0096,-4.0204,-4.0328,-4.051,-4.0761,-4.1252,-4.1758,-4.221,-4.2806,-4.3255,-4.3544,-4.3622,-4.3512,-4.3178,-4.339,-4.3654,-4.3899,-4.4143,-4.4299,-4.4328,-4.4601,-4.5007,-4.5546,-4.5865,-4.6014,0.0,0.0,0.0,0.0,0.0,0.0,0.0,0.0,0.0,0.0,0.0,0.0,0.0,0.0,0.0,0.0,0.0,0.0,0.0,0.0,0.0,0.0,0.0,0.0,0.0,0.0,0.0,0.0,0.0,0.0,2.6692,2.6384,2.655,2.7404,2.8517,2.9474,3.0226,3.0375,3.0492,3.0576,3.0704,3.0633,3.0374,3.0477,3.0358,3.0076,3.0153,3.0081,2.9904,2.9904,2.9804,2.9639,2.9737,2.9718,2.9637,2.9601,2.9685,2.9736,2.9221,2.9118,2.912,2.8594,2.8488,2.8694,2.9385,2.9224,2.9242,3.1387,2.4787,1.6606,1.4802,0.0093,-1.6572,-2.5682,-2.8525,-2.9721,-3.1718,-3.3369,-3.4512,-3.4606,-3.6789,-3.879,-3.9199,-3.9565,-3.9874,-4.0139,-4.0319,-4.0427,-4.0363,-4.0544,-4.0803,-4.116,-4.1732,-4.2363,-4.3022,-4.3607,-4.4056,-4.4349,-4.4413,-4.4305,-4.4013,-4.4196,-4.4448,-4.4733,-4.4958,-4.5094,-4.5131,-4.511,-4.5378,-4.5898,-4.5897,-4.5911,0.0,0.0,0.0,0.0,0.0,0.0,0.0,0.0,0.0,0.0,0.0,0.0,0.0,0.0,0.0,0.0,0.0,0.0,0.0,0.0,0.0,0.0,0.0,0.0,0.0,0.0,0.0,0.0,0.0,2.6091,2.616,2.6388,2.691,2.7723,2.9126,3.0004,3.0292,3.0428,3.0501,3.0501,3.0644,3.0568,3.033,3.0652,3.0654,3.0428,3.068,3.0464,2.9907,2.9926,2.9926,2.9953,3.022,3.0172,2.9993,3.058,3.065,3.0366,3.0034,3.0139,3.0238,2.9339,2.925,2.9608,3.006,3.0197,3.0527,3.2137,2.5789,1.6376,0.7257,-0.9192,-2.4243,-2.7229,-2.7936,-2.878,-3.1952,-3.4112,-3.5525,-3.5787,-3.7981,-3.9927,-4.0333,-4.0729,-4.0974,-4.0917,-4.0898,-4.0858,-4.0723,-4.0755,-4.1104,-4.1916,-4.208,-4.2801,-4.4452,-4.4626,-4.4995,-4.5841,-4.5899,-4.553,-4.4665,-4.5442,-4.55,-4.4655,-4.5402,-4.58,-4.58,-4.586,-4.5886,-4.5889,-4.5889,-4.5889,0.9874,0.0,0.0,0.0,0.0,0.0,0.0,0.0,0.0,0.0,0.0,0.0,0.0,0.0,0.0,0.0,0.0,0.0,0.0,0.0,0.0,0.0,0.0,0.0,0.0,0.0,0.0,0.0,2.5577,2.6029,2.7336,2.7518,2.7923,2.869,2.9106,2.9663,3.0371,3.046,3.0539,3.0651,3.0681,3.0693,3.0665,3.0758,3.076,3.0699,3.0721,3.0624,3.0473,3.0536,3.0545,3.0555,3.0638,3.0618,3.0572,3.0745,3.0749,3.0657,3.0353,3.0322,3.0314,2.9826,2.9715,2.9888,3.0396,3.0168,3.0112,3.2041,3.0242,2.4202,0.8873,-0.4216,-1.5949,-2.6061,-2.841,-2.9199,-3.234,-3.4751,-3.627,-3.6244,-3.8403,-4.0281,-4.0382,-4.0719,-4.0971,-4.0917,-4.0898,-4.0858,-4.0723,-4.0755,-4.1104,-4.1916,-4.2624,-4.3461,-4.451,-4.517,-4.5647,-4.588,-4.5899,-4.5783,-4.555,-4.5743,-4.5712,-4.5467,-4.5596,-4.5671,-4.5671,-4.5668,-4.5684,-4.5677,-4.5677,-4.5677,0.0,0.0,0.0,0.0,0.0,0.0,1.651,1.8397,2.0138,0.0,0.0,0.0,0.0,0.0,0.0,0.0,0.0,0.0,0.0,0.0,0.0,0.0,0.0,0.0,0.0,0.0,0.0,2.5784,2.5798,2.6419,2.7865,2.7632,2.7989,2.9158,2.9178,2.9602,3.0471,3.052,3.0585,3.0646,3.0311,3.0388,3.0799,3.0449,3.0486,3.0808,3.0721,3.0693,3.0707,3.0717,3.0721,3.072,3.072,3.0721,3.076,3.076,3.0781,3.0781,3.0628,3.0573,3.0517,3.0211,3.0114,3.0201,3.0708,3.0297,3.0132,3.2383,3.0033,2.3426,0.8714,-0.2149,-1.2579,-2.5604,-2.8642,-2.9494,-3.2737,-3.5231,-3.6812,-3.6682,-3.8684,-4.0451,-4.0653,-4.0898,-4.0996,-4.0883,-4.0851,-4.0808,-4.0649,-4.0557,-4.0827,-4.1659,-4.2449,-4.3281,-4.411,-4.4958,-4.5439,-4.5439,-4.5439,-4.5439,-4.5439,-4.5395,-4.5379,-4.5379,-4.5304,-4.5282,-4.5282,-4.5495,-4.5586,-4.5586,-4.5586,-4.555,0.0,0.0,0.0,0.0,0.0,0.0,1.7485,1.8107,1.88,0.0,0.0,0.0,0.0,0.0,0.0,0.0,0.0,0.0,0.0,0.0,0.0,0.0,0.0,0.0,0.0,2.5179,2.5244,2.5293,2.6034,2.6843,2.7677,2.7078,2.7445,2.9089,2.9244,2.9717,3.0597,3.0519,3.0474,3.0464,2.9647,2.9706,3.05,2.9862,2.9976,3.0661,3.0687,3.0696,3.0685,3.0613,3.0599,3.0618,3.0595,3.0641,3.0716,3.0693,3.0735,3.0804,3.0796,3.0798,3.0762,3.0521,3.0436,3.0521,3.0898,3.0516,3.0437,3.2806,2.6344,1.6601,0.7336,-0.2854,-1.38,-2.5872,-2.8774,-2.9682,-3.3114,-3.5644,-3.7217,-3.7106,-3.8923,-4.0611,-4.1027,-4.1053,-4.0976,-4.0772,-4.071,-4.0623,-4.0427,-4.0196,-4.0385,-4.1263,-4.1892,-4.2635,-4.3512,-4.4345,-4.4776,-4.48,-4.48,-4.48,-4.48,-4.48,-4.48,-4.48,-4.48,-4.48,-4.48,-4.5282,-4.5513,-4.5513,-4.5513,-4.5381,0.0,0.0,0.0,0.0,0.0,0.0,1.2459,1.4235,1.6014,0.0,0.0,0.0,0.0,0.0,0.0,0.0,0.0,0.0,0.0,0.0,0.0,0.0,0.0,0.0,0.0,2.5265,2.5283,2.5293,2.5558,2.5785,2.5975,2.6431,2.7174,2.8219,2.8934,2.9732,3.0591,2.9962,2.9654,2.9709,2.884,2.8564,2.8808,2.9303,2.9617,2.9796,3.036,3.061,3.0618,3.0539,3.0571,3.0672,3.0625,3.0667,3.0777,3.0712,3.0739,3.0801,3.0804,3.0806,3.079,3.0742,3.0721,3.0691,3.0574,3.043,3.0627,3.2201,2.0897,0.785,0.5826,-0.7856,-2.2484,-2.7854,-2.9081,-3.0022,-3.3387,-3.5951,-3.7589,-3.757,-3.9396,-4.0984,-4.1072,-4.0823,-4.0568,-4.0417,-4.0172,-3.9948,-3.98,-3.9731,-4.0031,-4.0886,-4.169,-4.2521,-4.3445,-4.4253,-4.4726,-4.48,-4.48,-4.48,-4.48,-4.48,-4.48,-4.48,-4.48,-4.48,-4.48,-4.4915,-4.4962,-4.4962,-4.4962,-4.4938,0.0,0.0,0.0,1.2747,0.0,0.0,0.0,1.4422,1.5329,0.0,0.0,0.0,0.0,0.0,0.0,0.0,0.0,0.0,0.0,0.0,0.0,0.0,0.0,0.0,0.0,2.5321,2.5484,2.5964,2.5688,2.5859,2.6691,2.6343,2.6907,2.864,2.832,2.8716,2.9983,2.9174,2.8788,2.8847,2.7971,2.7807,2.832,2.8674,2.9062,2.9468,2.9804,3.0175,3.0472,2.9574,2.9773,3.0633,3.0543,3.0586,3.0696,3.0667,3.0724,3.0845,3.0845,3.0823,3.0804,3.0797,3.08,3.0779,3.0646,3.1201,3.198,3.2463,2.3202,1.1958,0.6736,-0.5564,-1.8746,-2.7189,-2.9214,-3.0121,-3.3468,-3.5575,-3.691,-3.7318,-3.8769,-4.0091,-4.0703,-4.0471,-4.0154,-4.0032,-3.9853,-3.9688,-3.9557,-3.9451,-3.9564,-4.0021,-4.1041,-4.1885,-4.2352,-4.3539,-4.4269,-4.4308,-4.4308,-4.4308,-4.4365,-4.4098,-4.3881,-4.3656,-4.3831,-4.3831,-4.3638,-4.3638,-4.3964,-4.4594,-4.4594,-4.4463,0.0,0.0,0.0,0.0,0.0,1.4233,0.0,0.0,0.0,0.0,0.0,0.0,0.0,0.0,0.0,0.0,0.0,0.0,0.0,0.0,0.0,0.0,0.0,0.0,0.0,2.499,2.5307,2.6392,2.5573,2.5754,2.7431,2.6418,2.6746,2.8851,2.7756,2.7779,2.9156,2.8294,2.7904,2.7954,2.7095,2.7047,2.7771,2.7893,2.8291,2.886,2.8994,2.9422,2.9902,2.8512,2.8878,3.0344,3.022,3.0345,3.0626,3.062,3.0726,3.0882,3.0886,3.0845,3.0804,3.0795,3.0801,3.0795,3.0794,3.2015,3.2933,3.0642,2.4213,1.5639,0.5288,-0.4665,-1.4898,-2.6446,-2.9194,-3.0106,-3.3456,-3.5078,-3.6118,-3.6931,-3.7887,-3.8969,-4.0179,-4.0048,-3.9737,-3.965,-3.9561,-3.9482,-3.9358,-3.9127,-3.8998,-3.8998,-4.0204,-4.1052,-4.1052,-4.2643,-4.36,-4.3548,-4.3634,-4.3649,-4.3631,-4.3212,-4.2829,-4.2523,-4.2829,-4.2811,-4.2483,-4.2483,-4.3032,-4.4053,-4.4082,-4.3862,0.0,0.0,0.0,0.0,1.4754,0.0,0.0,0.0,0.0,0.0,0.0,0.0,0.0,0.0,0.0,0.0,0.0,0.0,0.0,0.0,0.0,0.0,0.0,0.0,0.0,0.0,2.3921,2.5511,2.4178,2.4015,2.5686,2.6398,2.687,2.7162,2.7692,2.8088,2.8332,2.7474,2.7077,2.7129,2.625,2.5835,2.585,2.6677,2.6996,2.6955,2.7799,2.8189,2.8277,2.8064,2.8568,2.9448,2.9371,2.9887,3.0697,3.0678,3.0739,3.0813,3.0816,3.0801,3.0801,3.0804,3.0799,3.0793,3.081,3.2016,3.1527,2.2492,1.3991,0.5274,-0.4828,-1.4908,-2.3527,-2.8112,-2.9158,-3.0017,-3.3394,-3.5002,-3.605,-3.6871,-3.7632,-3.8556,-3.9749,-3.9641,-3.9349,-3.9344,-3.9044,-3.8803,-3.8792,-3.8478,-3.8216,-3.8216,-3.9337,-4.0089,-4.0146,-4.1959,-4.2977,-4.2657,-4.2978,-4.3014,-4.2678,-4.26,-4.2562,-4.2483,-4.2562,-4.2562,-4.2483,-4.2483,-4.2582,-4.2718,-4.2905,-4.2959,0.0,0.0,0.0,0.0,0.0,0.0,0.0,0.0,1.3349,0.0,0.0,0.0,0.0,0.0,0.0,0.0,0.0,0.0,0.0,0.0,0.0,0.0,0.0,0.0,0.0,0.0,0.0,0.0,0.0,2.504,2.6247,2.6233,2.6429,2.69,2.6776,2.6962,2.7496,2.6637,2.6229,2.623,2.5879,2.5637,2.5524,2.647,2.6784,2.6621,2.7058,2.7522,2.7918,2.6942,2.734,2.8491,2.796,2.895,3.0637,3.013,3.033,3.086,3.0868,3.0827,3.0804,3.0798,3.0795,3.0801,3.0789,3.2012,3.2511,2.8261,1.6842,0.4909,0.0693,-1.2898,-2.6147,-2.8552,-2.9904,-3.1243,-3.353,-3.4824,-3.5747,-3.6505,-3.7241,-3.807,-3.9039,-3.9051,-3.8943,-3.8943,-3.8597,-3.8368,-3.8368,-3.8,-3.7935,-3.8349,-3.9314,-4.0096,-4.0524,-4.1794,-4.248,-4.2342,-4.2505,-4.2426,-4.1931,-4.2244,-4.2121,-4.1561,-4.1803,-4.1803,-4.1561,-4.1561,-4.1561,-4.1561,-4.2098,-4.2262,1.882,0.0,0.0,0.0,0.0,0.0,0.0,0.0,0.0,0.0,0.0,0.0,0.0,0.0,0.0,0.0,0.0,0.0,0.0,0.0,0.0,0.0,0.0,0.0,0.0,0.0,0.0,0.0,0.0,0.0,2.6509,2.6015,2.5968,2.6555,2.5995,2.5996,2.6641,2.6016,2.5683,2.5659,2.5659,2.5576,2.5443,2.6135,2.6372,2.6251,2.6326,2.6729,2.7213,2.5994,2.6343,2.7561,2.6695,2.7867,2.9951,2.9547,2.9861,3.0559,3.0816,3.0853,3.0793,3.08,3.0799,3.0798,3.0804,3.2012,3.2246,2.6702,1.5863,0.4625,-0.091,-1.4378,-2.7001,-2.8704,-3.0403,-3.2045,-3.363,-3.4457,-3.519,-3.6176,-3.6783,-3.7448,-3.8232,-3.8364,-3.8415,-3.8515,-3.8117,-3.7826,-3.7913,-3.7578,-3.7623,-3.8386,-3.9106,-3.9863,-4.0583,-4.1487,-4.199,-4.199,-4.1973,-4.176,-4.1356,-4.1717,-4.1604,-4.0918,-4.1209,-4.1209,-4.0888,-4.0888,-4.0823,-4.0728,-4.1445,-4.1683,0.0,0.0,0.0,1.6468,0.0,0.0,0.0,0.0,1.6199,0.0,0.0,0.0,0.0,0.0,0.0,0.0,0.0,0.0,0.0,0.0,0.0,0.0,0.0,0.0,0.0,0.0,0.0,0.0,0.0,0.0,2.5648,2.5701,2.5703,2.5742,2.5703,2.5703,2.5742,2.5703,2.5638,2.5508,2.5508,2.5407,2.5206,2.5305,2.5346,2.5351,2.547,2.555,2.5588,2.553,2.5994,2.6652,2.5842,2.6665,2.8364,2.9119,2.9457,2.9662,3.0579,3.0858,3.0801,3.0798,3.0808,3.0807,3.0793,3.2012,2.9328,0.9751,0.5048,0.1401,-1.8095,-2.4798,-2.6928,-2.8687,-3.0283,-3.1876,-3.3544,-3.386,-3.4336,-3.5984,-3.6313,-3.6583,-3.7395,-3.7542,-3.7683,-3.805,-3.7506,-3.7155,-3.7487,-3.717,-3.7216,-3.8023,-3.8417,-3.8933,-3.9675,-4.0829,-4.1516,-4.1516,-4.1163,-4.0918,-4.0918,-4.0918,-4.0918,-4.0888,-4.0918,-4.0918,-4.0888,-4.0888,-4.068,-4.0355,-4.0931,-4.1192,0.0,0.0,2.2098,1.912,0.0,0.0,0.0,0.0,0.0,0.0,0.0,0.0,0.0,0.0,0.0,0.0,0.0,0.0,0.0,0.0,0.0,0.0,0.0,0.0,0.0,0.0,0.0,0.0,0.0,0.0,0.0,2.5703,2.5703,2.5703,2.5703,2.5703,2.5703,2.57,2.5625,2.5504,2.545,2.5356,2.5207,2.5277,2.5299,2.5313,2.5432,2.5511,2.5511,2.5511,2.5657,2.5874,2.5609,2.5931,2.6707,2.8093,2.9006,2.9682,3.0546,3.082,3.0795,3.0806,3.0807,2.9732,2.3992,2.2829,2.086,0.8295,0.053,-0.5571,-1.2407,-2.1149,-2.8364,-2.8898,-3.1133,-3.3252,-3.3732,-3.4292,-3.4867,-3.5412,-3.5959,-3.6409,-3.6723,-3.6566,-3.6601,-3.725,-3.7135,-3.6904,-3.6786,-3.6399,-3.6534,-3.7541,-3.7746,-3.8294,-3.9529,-4.028,-4.0693,-4.0693,-4.0823,-4.0888,-4.0888,-4.0888,-4.0776,-4.0502,-4.0485,-4.037,-4.002,-4.002,-3.9986,-3.9833,-4.007,-4.0336,2.3125,2.3397,0.0,2.0828,2.0226,0.0,1.7106,0.0,0.0,0.0,0.0,0.0,0.0,0.0,0.0,0.0,0.0,0.0,0.0,1.1052,0.0,0.0,0.0,0.0,0.0,0.0,0.0,0.0,0.0,0.0,0.0,0.0,2.5703,2.5703,2.5702,2.5702,2.5703,2.5672,2.5574,2.5396,2.5393,2.5321,2.5166,2.526,2.5343,2.5388,2.5468,2.5511,2.5511,2.5511,2.5498,2.5504,2.5526,2.5601,2.5863,2.7231,2.8512,2.9687,3.0507,3.0795,3.0794,3.0794,2.8718,2.5159,1.9586,1.6144,1.2165,0.2815,-0.4152,-0.9794,-1.4147,-2.2132,-2.9191,-2.9706,-3.1906,-3.3857,-3.3759,-3.3846,-3.4197,-3.4914,-3.5049,-3.522,-3.5887,-3.59,-3.6044,-3.6711,-3.6626,-3.6416,-3.619,-3.6163,-3.6497,-3.7332,-3.7652,-3.8288,-3.951,-4.002,-4.0238,-4.007,-4.0436,-4.0631,-4.0451,-4.0451,-4.0303,-4.007,-4.007,-3.9901,-3.961,-3.961,-3.9506,-3.9401,-3.9558,-3.9679]}]]